Darstellungsparameter: Aktuell verwendete Einstellungen:
Skalierung der Graphiken ... ?
xyx+y,   Skalierungsfaktor:      Skalierung: Modus: x, Faktor: 1
Darstellungszeitraum ... ?
Vom - - bis: - -   Zeitraum: 07.06.2013 - 06.12.2013
Min/Max/Avg-Anzeige ... ?
Zeige MMA aktuell
Zeige MMA Monat
Zeige MMA alles
Zeige --A aktuell
Zeige --A Monat
Zeige --A alles
Keine MMA-Anzeige
MMA:
Keine MMA-Graphiken
MMA-Basis: 07.06.2013 - 06.12.2013
Quicknavigation für Darstellung... ?
Tage:      1T, 2T, 3T, 5T -1T -2T -3T -5T +1T +2T +3T +5T
Wochen: 1W, 2W, 3W -1W -2W -3W +1W +2W +3W
Monate: 1M, 3M, 6M -1M -3M -6M +1M +3M +6M
Jahre:    1J, 3J, 5J, 10J -1J -3J -5J -10J +1J +3J +5J +10J
Nutze für die Darstellung ... ?
Originaldaten oder ...
Mittelwerte Minima Maxima auf...
Stundenbasis Tagesbasis Wochenbasis
Monatsbasis Jahresbasis      Datenbasis: Mittelwerte auf Stundenbasis
Darstellen als:
Statistik (Auto) Statistik J:M      Darstellung:
Zur Graphik,    zurück zur Übersicht aller Sensoren.
 
Tabellarische Datenbersicht: ?
 
Sensor: Nr:Datum:Temp:Abs-Feuchte:Windchill:Wind:
Aussen-T/F 1 07-06-2013 00:00:00 13.39167 C 9.37 g/m*3 13.39 C 0 km/h
2 07-06-2013 01:00:00 12.43333 C 9.14 g/m*3 12.43 C 0.26667 km/h
3 07-06-2013 02:00:00 11.625 C 9.13 g/m*3 11.63 C 0.13333 km/h
4 07-06-2013 03:00:00 10.98333 C 8.97 g/m*3 10.98 C 0 km/h
5 07-06-2013 04:00:00 10.40833 C 8.82 g/m*3 10.41 C 0 km/h
6 07-06-2013 05:00:00 10.025 C 8.77 g/m*3 10.03 C 0 km/h
7 07-06-2013 06:00:00 10.025 C 8.85 g/m*3 10.03 C 0 km/h
8 07-06-2013 07:00:00 10.86667 C 9.29 g/m*3 10.87 C 0.13333 km/h
9 07-06-2013 08:00:00 13.33333 C 10.12 g/m*3 13.33 C 0 km/h
10 07-06-2013 09:00:00 14.85 C 10.97 g/m*3 14.85 C 0 km/h
11 07-06-2013 10:00:00 17.5 C 12.27 g/m*3 17.5 C 0.93333 km/h
12 07-06-2013 11:00:00 20.8 C 13.26 g/m*3 20.8 C 1.73333 km/h
13 07-06-2013 12:00:00 22.85 C 12.4 g/m*3 22.85 C 2.26667 km/h
14 07-06-2013 13:00:00 25.45 C 11.15 g/m*3 25.45 C 5.89167 km/h
15 07-06-2013 14:00:00 26.44167 C 10.6 g/m*3 26.44 C 8.46667 km/h
16 07-06-2013 15:00:00 26.08333 C 10.86 g/m*3 26.08 C 4.29167 km/h
17 07-06-2013 16:00:00 26.88333 C 10.72 g/m*3 26.88 C 5.9 km/h
18 07-06-2013 17:00:00 28.06667 C 9.55 g/m*3 28.07 C 4.94167 km/h
19 07-06-2013 18:00:00 27.35833 C 10.7 g/m*3 27.36 C 3.33333 km/h
20 07-06-2013 19:00:00 23.63333 C 12.63 g/m*3 23.63 C 1.2 km/h
21 07-06-2013 20:00:00 20.45833 C 12.28 g/m*3 20.46 C 0.8 km/h
22 07-06-2013 21:00:00 18.26667 C 11.59 g/m*3 18.27 C 1.06667 km/h
23 07-06-2013 22:00:00 17.4 C 11.33 g/m*3 17.4 C 0.53333 km/h
24 07-06-2013 23:00:00 16.425 C 11.09 g/m*3 16.43 C 0 km/h
25 08-06-2013 00:00:00 15.29167 C 10.75 g/m*3 15.29 C 0.26667 km/h
Sensor: Nr:Datum:Temp:Abs-Feuchte:Windchill:Wind:
Aussen-T/F 26 08-06-2013 01:00:00 14.50833 C 10.7 g/m*3 14.51 C 0.26667 km/h
27 08-06-2013 02:00:00 13.80833 C 10.5 g/m*3 13.81 C 0 km/h
28 08-06-2013 03:00:00 13.15833 C 10.41 g/m*3 13.16 C 0 km/h
29 08-06-2013 04:00:00 12.64167 C 10.25 g/m*3 12.64 C 0 km/h
30 08-06-2013 05:00:00 12.25833 C 10.15 g/m*3 12.26 C 0 km/h
31 08-06-2013 06:00:00 12.475 C 10.34 g/m*3 12.48 C 0 km/h
32 08-06-2013 07:00:00 13.45 C 10.84 g/m*3 13.45 C 0 km/h
33 08-06-2013 08:00:00 15.8 C 11.89 g/m*3 15.8 C 0 km/h
34 08-06-2013 09:00:00 17.35 C 12.51 g/m*3 17.35 C 0.53333 km/h
35 08-06-2013 10:00:00 19.95 C 13.56 g/m*3 19.95 C 1.6 km/h
36 08-06-2013 11:00:00 23.775 C 13.96 g/m*3 23.78 C 4.675 km/h
37 08-06-2013 12:00:00 24.95833 C 13.63 g/m*3 24.96 C 5.08333 km/h
38 08-06-2013 13:00:00 26.425 C 12.15 g/m*3 26.43 C 6.85 km/h
39 08-06-2013 14:00:00 26.79167 C 12.32 g/m*3 26.79 C 7.78333 km/h
40 08-06-2013 15:00:00 23.21667 C 14.1 g/m*3 23.22 C 1.73333 km/h
41 08-06-2013 16:00:00 20.975 C 14.66 g/m*3 20.98 C 0 km/h
42 08-06-2013 17:00:00 21.1 C 14.17 g/m*3 21.1 C 3.36667 km/h
43 08-06-2013 18:00:00 21.00833 C 13.23 g/m*3 21.01 C 2.13333 km/h
44 08-06-2013 19:00:00 21.88333 C 13.58 g/m*3 21.88 C 2.53333 km/h
45 08-06-2013 20:00:00 20.75833 C 14.22 g/m*3 20.76 C 0.13333 km/h
46 08-06-2013 21:00:00 18.58333 C 13.57 g/m*3 18.58 C 0.13333 km/h
47 08-06-2013 22:00:00 17.80833 C 13.11 g/m*3 17.81 C 0.26667 km/h
48 08-06-2013 23:00:00 16.775 C 12.23 g/m*3 16.77 C 0.4 km/h
49 09-06-2013 00:00:00 15.99167 C 12.11 g/m*3 15.99 C 0 km/h
50 09-06-2013 01:00:00 15.35833 C 11.95 g/m*3 15.36 C 0 km/h
Sensor: Nr:Datum:Temp:Abs-Feuchte:Windchill:Wind:
Aussen-T/F 51 09-06-2013 02:00:00 15.25833 C 12.02 g/m*3 15.26 C 0 km/h
52 09-06-2013 03:00:00 14.95833 C 11.87 g/m*3 14.96 C 0 km/h
53 09-06-2013 04:00:00 14.06667 C 11.26 g/m*3 14.07 C 0 km/h
54 09-06-2013 05:00:00 13.68333 C 11.12 g/m*3 13.68 C 0 km/h
55 09-06-2013 06:00:00 14.50833 C 11.24 g/m*3 14.51 C 2.00833 km/h
56 09-06-2013 07:00:00 15.15 C 11.1 g/m*3 15.15 C 4.96667 km/h
57 09-06-2013 08:00:00 15.56667 C 10.97 g/m*3 15.57 C 5.9 km/h
58 09-06-2013 09:00:00 16.29167 C 11 g/m*3 16.29 C 5.5 km/h
59 09-06-2013 10:00:00 17.15 C 11.39 g/m*3 17.15 C 5.075 km/h
60 09-06-2013 11:00:00 16.21667 C 11.79 g/m*3 16.22 C 0.66667 km/h
61 09-06-2013 12:00:00 15.425 C 12.2 g/m*3 15.43 C 0.13333 km/h
62 09-06-2013 13:00:00 15.44167 C 12.37 g/m*3 15.44 C 0.4 km/h
63 09-06-2013 14:00:00 15.34167 C 12.2 g/m*3 15.34 C 3.35 km/h
64 09-06-2013 15:00:00 15.1 C 11.63 g/m*3 15.1 C 5.5 km/h
65 09-06-2013 16:00:00 15.2 C 11.55 g/m*3 15.2 C 4 km/h
66 09-06-2013 17:00:00 16.05 C 11.84 g/m*3 16.05 C 6.71667 km/h
67 09-06-2013 18:00:00 15.59167 C 11.51 g/m*3 15.59 C 4.40833 km/h
68 09-06-2013 19:00:00 15.16667 C 11.52 g/m*3 15.17 C 1.73333 km/h
69 09-06-2013 20:00:00 14.35 C 11.52 g/m*3 14.35 C 1.33333 km/h
70 09-06-2013 21:00:00 14.5 C 11.41 g/m*3 14.5 C 2.93333 km/h
71 09-06-2013 22:00:00 14.15833 C 11.49 g/m*3 14.16 C 0.13333 km/h
72 09-06-2013 23:00:00 13.99167 C 11.53 g/m*3 13.99 C 0 km/h
73 10-06-2013 00:00:00 13.91667 C 11.52 g/m*3 13.92 C 0 km/h
74 10-06-2013 01:00:00 13.96667 C 11.56 g/m*3 13.97 C 0.26667 km/h
75 10-06-2013 02:00:00 14.075 C 11.63 g/m*3 14.08 C 1.86667 km/h
Sensor: Nr:Datum:Temp:Abs-Feuchte:Windchill:Wind:
Aussen-T/F 76 10-06-2013 03:00:00 14.025 C 11.48 g/m*3 14.03 C 4.15 km/h
77 10-06-2013 04:00:00 13.88333 C 11.38 g/m*3 13.88 C 6.04167 km/h
78 10-06-2013 05:00:00 13.44167 C 11.07 g/m*3 13.44 C 6.3 km/h
79 10-06-2013 06:00:00 12.63333 C 10.46 g/m*3 12.63 C 10.49167 km/h
80 10-06-2013 07:00:00 11.925 C 9.98 g/m*3 11.93 C 8.18333 km/h
81 10-06-2013 08:00:00 11.78333 C 9.97 g/m*3 11.78 C 5.61667 km/h
82 10-06-2013 09:00:00 11.78333 C 9.97 g/m*3 11.78 C 6.70833 km/h
83 10-06-2013 10:00:00 11.39167 C 9.64 g/m*3 11.39 C 8.2 km/h
84 10-06-2013 11:00:00 11.175 C 9.51 g/m*3 11.18 C 8.73333 km/h
85 10-06-2013 12:00:00 11.325 C 9.65 g/m*3 11.33 C 5.76667 km/h
86 10-06-2013 13:00:00 12.025 C 9.93 g/m*3 12.03 C 8.20833 km/h
87 10-06-2013 14:00:00 12.50833 C 9.99 g/m*3 12.51 C 7.91667 km/h
88 10-06-2013 15:00:00 12.91667 C 10.2 g/m*3 12.92 C 6.3 km/h
89 10-06-2013 16:00:00 13.54167 C 10.48 g/m*3 13.54 C 4.95 km/h
90 10-06-2013 17:00:00 13.41667 C 10.89 g/m*3 13.42 C 0 km/h
91 10-06-2013 18:00:00 13.19167 C 10.93 g/m*3 13.19 C 0 km/h
92 10-06-2013 19:00:00 12.95833 C 10.87 g/m*3 12.96 C 0 km/h
93 10-06-2013 20:00:00 12.8 C 10.87 g/m*3 12.8 C 0 km/h
94 10-06-2013 21:00:00 12.68333 C 10.79 g/m*3 12.68 C 0 km/h
95 10-06-2013 22:00:00 12.60833 C 10.74 g/m*3 12.61 C 0 km/h
96 10-06-2013 23:00:00 12.6 C 10.73 g/m*3 12.6 C 0.4 km/h
97 11-06-2013 00:00:00 12.58333 C 10.72 g/m*3 12.58 C 0.13333 km/h
98 11-06-2013 01:00:00 12.41667 C 10.61 g/m*3 12.42 C 0.26667 km/h
99 11-06-2013 02:00:00 12.23333 C 10.49 g/m*3 12.23 C 2.26667 km/h
100 11-06-2013 03:00:00 11.7 C 10.15 g/m*3 11.7 C 0 km/h
Sensor: Nr:Datum:Temp:Abs-Feuchte:Windchill:Wind:
Aussen-T/F 101 11-06-2013 04:00:00 11.36667 C 9.94 g/m*3 11.37 C 0 km/h
102 11-06-2013 05:00:00 10.94167 C 9.72 g/m*3 10.94 C 0.53333 km/h
103 11-06-2013 06:00:00 11.26667 C 9.95 g/m*3 11.27 C 2.13333 km/h
104 11-06-2013 07:00:00 11.4 C 9.96 g/m*3 11.4 C 2.26667 km/h
105 11-06-2013 08:00:00 12.575 C 10.53 g/m*3 12.58 C 7.125 km/h
106 11-06-2013 09:00:00 14.05 C 10.81 g/m*3 14.05 C 8.05833 km/h
107 11-06-2013 10:00:00 15.64167 C 10.9 g/m*3 15.64 C 9.025 km/h
108 11-06-2013 11:00:00 17.59167 C 10.99 g/m*3 17.59 C 6.18333 km/h
109 11-06-2013 12:00:00 18.75833 C 10.32 g/m*3 18.76 C 7.4 km/h
110 11-06-2013 13:00:00 19.01667 C 10.83 g/m*3 19.02 C 3.88333 km/h
111 11-06-2013 14:00:00 20.625 C 10.69 g/m*3 20.63 C 5.90833 km/h
112 11-06-2013 15:00:00 19.375 C 11.63 g/m*3 19.38 C 2.68333 km/h
113 11-06-2013 16:00:00 17.09167 C 12.31 g/m*3 17.09 C 0.26667 km/h
114 11-06-2013 17:00:00 20.3 C 11.96 g/m*3 20.3 C 3.475 km/h
115 11-06-2013 18:00:00 22.125 C 11.55 g/m*3 22.13 C 2.66667 km/h
116 11-06-2013 19:00:00 17.65833 C 12.72 g/m*3 17.66 C 0.4 km/h
117 11-06-2013 20:00:00 16.78333 C 12.47 g/m*3 16.78 C 0.13333 km/h
118 11-06-2013 21:00:00 15.5 C 11.85 g/m*3 15.5 C 0.13333 km/h
119 11-06-2013 22:00:00 14.575 C 11.41 g/m*3 14.58 C 0 km/h
120 11-06-2013 23:00:00 14.13333 C 11.29 g/m*3 14.13 C 0.13333 km/h
121 12-06-2013 00:00:00 13.475 C 10.94 g/m*3 13.48 C 0.26667 km/h
122 12-06-2013 01:00:00 12.81667 C 10.58 g/m*3 12.82 C 0 km/h
123 12-06-2013 02:00:00 12.51667 C 10.52 g/m*3 12.52 C 0.13333 km/h
124 12-06-2013 03:00:00 12.66667 C 10.66 g/m*3 12.67 C 0 km/h
125 12-06-2013 04:00:00 12.65 C 10.65 g/m*3 12.65 C 0 km/h
Sensor: Nr:Datum:Temp:Abs-Feuchte:Windchill:Wind:
Aussen-T/F 126 12-06-2013 05:00:00 12.76667 C 10.73 g/m*3 12.77 C 0 km/h
127 12-06-2013 06:00:00 12.50833 C 10.57 g/m*3 12.51 C 0 km/h
128 12-06-2013 07:00:00 13.80833 C 11.37 g/m*3 13.81 C 0.4 km/h
129 12-06-2013 08:00:00 16.05833 C 12.12 g/m*3 16.06 C 0.4 km/h
130 12-06-2013 09:00:00 17.60833 C 12.88 g/m*3 17.61 C 1.33333 km/h
131 12-06-2013 10:00:00 19.875 C 12.9 g/m*3 19.88 C 8.60833 km/h
132 12-06-2013 11:00:00 21.04167 C 12.38 g/m*3 21.04 C 12.49167 km/h
133 12-06-2013 12:00:00 21.7 C 12.59 g/m*3 21.7 C 10.89167 km/h
134 12-06-2013 13:00:00 21.825 C 12.87 g/m*3 21.83 C 7.39167 km/h
135 12-06-2013 14:00:00 21.99167 C 13.13 g/m*3 21.99 C 5.89167 km/h
136 12-06-2013 15:00:00 21.35 C 13.76 g/m*3 21.35 C 4 km/h
137 12-06-2013 16:00:00 19.73333 C 13.77 g/m*3 19.73 C 2.13333 km/h
138 12-06-2013 17:00:00 21.14167 C 13.7 g/m*3 21.14 C 4.28333 km/h
139 12-06-2013 18:00:00 20.525 C 13.83 g/m*3 20.53 C 2.54167 km/h
140 12-06-2013 19:00:00 21.44167 C 13.28 g/m*3 21.44 C 4.55833 km/h
141 12-06-2013 20:00:00 19.34167 C 13.61 g/m*3 19.34 C 0.93333 km/h
142 12-06-2013 21:00:00 18.59167 C 13.3 g/m*3 18.59 C 1.73333 km/h
143 12-06-2013 22:00:00 17.24167 C 13.03 g/m*3 17.24 C 0 km/h
144 12-06-2013 23:00:00 16.98333 C 13.05 g/m*3 16.98 C 0 km/h
145 13-06-2013 00:00:00 17.11667 C 13.16 g/m*3 17.12 C 1.06667 km/h
146 13-06-2013 01:00:00 17.59167 C 13.3 g/m*3 17.59 C 1.34167 km/h
147 13-06-2013 02:00:00 17.36667 C 13.35 g/m*3 17.37 C 0.26667 km/h
148 13-06-2013 03:00:00 17.075 C 13.35 g/m*3 17.08 C 0.26667 km/h
149 13-06-2013 04:00:00 16.39167 C 12.99 g/m*3 16.39 C 0 km/h
150 13-06-2013 05:00:00 16.23333 C 13.07 g/m*3 16.23 C 0 km/h
Sensor: Nr:Datum:Temp:Abs-Feuchte:Windchill:Wind:
Aussen-T/F 151 13-06-2013 06:00:00 16.76667 C 13.42 g/m*3 16.77 C 0.4 km/h
152 13-06-2013 07:00:00 17.35833 C 13.77 g/m*3 17.36 C 0.13333 km/h
153 13-06-2013 08:00:00 17.76667 C 14.04 g/m*3 17.77 C 0 km/h
154 13-06-2013 09:00:00 19.15 C 14.47 g/m*3 19.15 C 2.275 km/h
155 13-06-2013 10:00:00 21.53333 C 14.61 g/m*3 21.53 C 10.625 km/h
156 13-06-2013 11:00:00 23.35 C 14.66 g/m*3 23.35 C 13.16667 km/h
157 13-06-2013 12:00:00 24.25 C 14.4 g/m*3 24.25 C 12.63333 km/h
158 13-06-2013 13:00:00 24.76667 C 13.82 g/m*3 24.77 C 12.36667 km/h
159 13-06-2013 14:00:00 24.89167 C 14.95 g/m*3 24.89 C 5.63333 km/h
160 13-06-2013 15:00:00 23.96667 C 15.64 g/m*3 23.97 C 2.80833 km/h
161 13-06-2013 16:00:00 21.28333 C 15.27 g/m*3 21.28 C 1.2 km/h
162 13-06-2013 17:00:00 20.59167 C 14.77 g/m*3 20.59 C 6.175 km/h
163 13-06-2013 18:00:00 19.60833 C 14.23 g/m*3 19.61 C 5.90833 km/h
164 13-06-2013 19:00:00 14.89167 C 10.98 g/m*3 14.89 C 10.325 km/h
165 13-06-2013 20:00:00 13.11667 C 10.78 g/m*3 13.12 C 0.13333 km/h
166 13-06-2013 21:00:00 12.95 C 10.79 g/m*3 12.95 C 0.93333 km/h
167 13-06-2013 22:00:00 12.76667 C 10.69 g/m*3 12.77 C 2.675 km/h
168 13-06-2013 23:00:00 12.09167 C 10.04 g/m*3 12.09 C 3.33333 km/h
169 14-06-2013 00:00:00 11.825 C 9.63 g/m*3 11.83 C 4.94167 km/h
170 14-06-2013 01:00:00 11.74167 C 9.4 g/m*3 11.74 C 9.81667 km/h
171 14-06-2013 02:00:00 11.71667 C 9.29 g/m*3 11.72 C 11.275 km/h
172 14-06-2013 03:00:00 11.25833 C 9.22 g/m*3 11.26 C 6.3 km/h
173 14-06-2013 04:00:00 11.175 C 9.11 g/m*3 11.18 C 7.10833 km/h
174 14-06-2013 05:00:00 11.21667 C 9.12 g/m*3 11.22 C 4.68333 km/h
175 14-06-2013 06:00:00 11.15833 C 9.15 g/m*3 11.16 C 5.90833 km/h
Sensor: Nr:Datum:Temp:Abs-Feuchte:Windchill:Wind:
Aussen-T/F 176 14-06-2013 07:00:00 11.93333 C 9.28 g/m*3 11.93 C 7.8 km/h
177 14-06-2013 08:00:00 13.125 C 9.44 g/m*3 13.13 C 9.94167 km/h
178 14-06-2013 09:00:00 14.06667 C 9.5 g/m*3 14.07 C 11.55833 km/h
179 14-06-2013 10:00:00 15.10833 C 9.42 g/m*3 15.11 C 9.69167 km/h
180 14-06-2013 11:00:00 16.1 C 9.46 g/m*3 16.1 C 10.5 km/h
181 14-06-2013 12:00:00 17.38333 C 9.73 g/m*3 17.38 C 10.5 km/h
182 14-06-2013 13:00:00 18.175 C 8.94 g/m*3 18.18 C 8.60833 km/h
183 14-06-2013 14:00:00 18.16667 C 8.92 g/m*3 18.17 C 8.325 km/h
184 14-06-2013 15:00:00 17.7 C 8.93 g/m*3 17.7 C 6.03333 km/h
185 14-06-2013 16:00:00 17.275 C 10.06 g/m*3 17.27 C 2.53333 km/h
186 14-06-2013 17:00:00 18.44167 C 9.71 g/m*3 18.44 C 3.75833 km/h
187 14-06-2013 18:00:00 17.73333 C 10.14 g/m*3 17.73 C 2 km/h
188 14-06-2013 19:00:00 17.96667 C 10.78 g/m*3 17.97 C 3.21667 km/h
189 14-06-2013 20:00:00 16.025 C 11.42 g/m*3 16.02 C 0 km/h
190 14-06-2013 21:00:00 13.99167 C 10.45 g/m*3 13.99 C 0.93333 km/h
191 14-06-2013 22:00:00 12.35 C 9.67 g/m*3 12.35 C 0.53333 km/h
192 14-06-2013 23:00:00 11.86667 C 9.54 g/m*3 11.87 C 0 km/h
193 15-06-2013 00:00:00 11.23333 C 9.18 g/m*3 11.23 C 0 km/h
194 15-06-2013 01:00:00 10.40833 C 8.93 g/m*3 10.41 C 0 km/h
195 15-06-2013 02:00:00 9.76667 C 8.7 g/m*3 9.77 C 0 km/h
196 15-06-2013 03:00:00 9.54167 C 8.67 g/m*3 9.54 C 0.13333 km/h
197 15-06-2013 04:00:00 9.575 C 8.75 g/m*3 9.57 C 0.13333 km/h
198 15-06-2013 05:00:00 9.33333 C 8.63 g/m*3 9.33 C 0 km/h
199 15-06-2013 06:00:00 9.675 C 8.84 g/m*3 9.68 C 0.13333 km/h
200 15-06-2013 07:00:00 10.6 C 9.24 g/m*3 10.6 C 1.33333 km/h
Sensor: Nr:Datum:Temp:Abs-Feuchte:Windchill:Wind:
Aussen-T/F 201 15-06-2013 08:00:00 12.125 C 9.76 g/m*3 12.13 C 1.6 km/h
202 15-06-2013 09:00:00 14.16667 C 10.45 g/m*3 14.17 C 1.86667 km/h
203 15-06-2013 10:00:00 17.33333 C 11.45 g/m*3 17.33 C 5.36667 km/h
204 15-06-2013 11:00:00 18.75833 C 11.13 g/m*3 18.76 C 12.9 km/h
205 15-06-2013 12:00:00 19.575 C 11.13 g/m*3 19.58 C 13.3 km/h
206 15-06-2013 13:00:00 19.65833 C 11.01 g/m*3 19.66 C 10.74167 km/h
207 15-06-2013 14:00:00 19.84167 C 10.6 g/m*3 19.84 C 11.28333 km/h
208 15-06-2013 15:00:00 20.825 C 10.9 g/m*3 20.83 C 10.625 km/h
209 15-06-2013 16:00:00 19.90833 C 10.36 g/m*3 19.91 C 13.025 km/h
210 15-06-2013 17:00:00 19.925 C 10.31 g/m*3 19.93 C 14.23333 km/h
211 15-06-2013 18:00:00 19.70833 C 10.5 g/m*3 19.71 C 13.7 km/h
212 15-06-2013 19:00:00 19.275 C 10.21 g/m*3 19.27 C 12.36667 km/h
213 15-06-2013 20:00:00 18.93333 C 9.96 g/m*3 18.93 C 11.025 km/h
214 15-06-2013 21:00:00 17.04167 C 10.24 g/m*3 17.04 C 4.69167 km/h
215 15-06-2013 22:00:00 15.09167 C 10.17 g/m*3 15.09 C 1.06667 km/h
216 15-06-2013 23:00:00 13.14167 C 9.86 g/m*3 13.14 C 0 km/h
217 16-06-2013 00:00:00 12.73333 C 9.62 g/m*3 12.73 C 0.26667 km/h
218 16-06-2013 01:00:00 12.29167 C 9.49 g/m*3 12.29 C 0.66667 km/h
219 16-06-2013 02:00:00 11.60833 C 9.26 g/m*3 11.61 C 0.66667 km/h
220 16-06-2013 03:00:00 11.46667 C 9.04 g/m*3 11.47 C 3.89167 km/h
221 16-06-2013 04:00:00 10.96667 C 8.8 g/m*3 10.97 C 2.93333 km/h
222 16-06-2013 05:00:00 11.06667 C 8.77 g/m*3 11.07 C 5.75833 km/h
223 16-06-2013 06:00:00 11.21667 C 8.83 g/m*3 11.22 C 4.66667 km/h
224 16-06-2013 07:00:00 11.85833 C 9.04 g/m*3 11.86 C 5.61667 km/h
225 16-06-2013 08:00:00 12.96667 C 9.45 g/m*3 12.97 C 8.075 km/h
Sensor: Nr:Datum:Temp:Abs-Feuchte:Windchill:Wind:
Aussen-T/F 226 16-06-2013 09:00:00 15.55833 C 9.58 g/m*3 15.56 C 8.35 km/h
227 16-06-2013 10:00:00 17.19167 C 9.78 g/m*3 17.19 C 8.49167 km/h
228 16-06-2013 11:00:00 18.6 C 9.62 g/m*3 18.6 C 11.425 km/h
229 16-06-2013 12:00:00 19.29167 C 9.39 g/m*3 19.29 C 12.23333 km/h
230 16-06-2013 13:00:00 20.40833 C 9.44 g/m*3 20.41 C 11.55833 km/h
231 16-06-2013 14:00:00 21.51667 C 9.53 g/m*3 21.52 C 11.3 km/h
232 16-06-2013 15:00:00 22.53333 C 9.31 g/m*3 22.53 C 10.36667 km/h
233 16-06-2013 16:00:00 23.375 C 9.36 g/m*3 23.38 C 8.75 km/h
234 16-06-2013 17:00:00 23.76667 C 9.04 g/m*3 23.77 C 7.23333 km/h
235 16-06-2013 18:00:00 23.83333 C 8.87 g/m*3 23.83 C 4.93333 km/h
236 16-06-2013 19:00:00 20.48333 C 11.81 g/m*3 20.48 C 0.93333 km/h
237 16-06-2013 20:00:00 17.41667 C 11.89 g/m*3 17.42 C 0.93333 km/h
238 16-06-2013 21:00:00 16.79167 C 11.31 g/m*3 16.79 C 0.4 km/h
239 16-06-2013 22:00:00 16.05 C 10.93 g/m*3 16.05 C 0 km/h
240 16-06-2013 23:00:00 15.43333 C 10.6 g/m*3 15.43 C 0 km/h
241 17-06-2013 00:00:00 14.59167 C 10.37 g/m*3 14.59 C 0 km/h
242 17-06-2013 01:00:00 13.675 C 9.98 g/m*3 13.68 C 0 km/h
243 17-06-2013 02:00:00 13.11667 C 9.9 g/m*3 13.12 C 0 km/h
244 17-06-2013 03:00:00 12.60833 C 9.87 g/m*3 12.61 C 0 km/h
245 17-06-2013 04:00:00 12.44167 C 9.97 g/m*3 12.44 C 0 km/h
246 17-06-2013 05:00:00 12.8 C 10.19 g/m*3 12.8 C 0.26667 km/h
247 17-06-2013 06:00:00 12.925 C 10.29 g/m*3 12.93 C 0.26667 km/h
248 17-06-2013 07:00:00 13.76667 C 10.78 g/m*3 13.77 C 0.66667 km/h
249 17-06-2013 08:00:00 15.8 C 11.72 g/m*3 15.8 C 1.33333 km/h
250 17-06-2013 09:00:00 17.53333 C 11.78 g/m*3 17.53 C 2.80833 km/h
Sensor: Nr:Datum:Temp:Abs-Feuchte:Windchill:Wind:
Aussen-T/F 251 17-06-2013 10:00:00 20.89167 C 11.86 g/m*3 20.89 C 4.8 km/h
252 17-06-2013 11:00:00 23.3 C 12.58 g/m*3 23.3 C 7.125 km/h
253 17-06-2013 12:00:00 25.35833 C 13.41 g/m*3 25.36 C 8.225 km/h
254 17-06-2013 13:00:00 27.26667 C 14.78 g/m*3 27.27 C 7.26667 km/h
255 17-06-2013 14:00:00 28.91667 C 14.96 g/m*3 28.92 C 9.55833 km/h
256 17-06-2013 15:00:00 30.325 C 15.12 g/m*3 30.33 C 8.49167 km/h
257 17-06-2013 16:00:00 31.38333 C 15.35 g/m*3 31.38 C 8.88333 km/h
258 17-06-2013 17:00:00 28.65833 C 17.34 g/m*3 28.66 C 3.48333 km/h
259 17-06-2013 18:00:00 29.94167 C 16.47 g/m*3 29.94 C 5.74167 km/h
260 17-06-2013 19:00:00 28.54167 C 17.46 g/m*3 28.54 C 4.55 km/h
261 17-06-2013 20:00:00 24.525 C 17.54 g/m*3 24.53 C 1.6 km/h
262 17-06-2013 21:00:00 22.55833 C 16.78 g/m*3 22.56 C 1.33333 km/h
263 17-06-2013 22:00:00 21.725 C 16.46 g/m*3 21.73 C 0.26667 km/h
264 17-06-2013 23:00:00 21.16667 C 16.32 g/m*3 21.17 C 0.13333 km/h
265 18-06-2013 00:00:00 20.80833 C 15.88 g/m*3 20.81 C 0.94167 km/h
266 18-06-2013 01:00:00 19.725 C 15.33 g/m*3 19.73 C 0 km/h
267 18-06-2013 02:00:00 18.84167 C 14.91 g/m*3 18.84 C 0.4 km/h
268 18-06-2013 03:00:00 18.85833 C 15.14 g/m*3 18.86 C 0.66667 km/h
269 18-06-2013 04:00:00 18.55 C 14.97 g/m*3 18.55 C 0.53333 km/h
270 18-06-2013 05:00:00 17.89167 C 14.49 g/m*3 17.89 C 0 km/h
271 18-06-2013 06:00:00 17.925 C 14.68 g/m*3 17.93 C 0 km/h
272 18-06-2013 07:00:00 18.3 C 14.87 g/m*3 18.3 C 0 km/h
273 18-06-2013 08:00:00 20.13333 C 15.78 g/m*3 20.13 C 0.4 km/h
274 18-06-2013 09:00:00 20.975 C 16.22 g/m*3 20.98 C 0.53333 km/h
275 18-06-2013 10:00:00 22.81667 C 17.09 g/m*3 22.82 C 1.73333 km/h
Sensor: Nr:Datum:Temp:Abs-Feuchte:Windchill:Wind:
Aussen-T/F 276 18-06-2013 11:00:00 24.95 C 17.89 g/m*3 24.95 C 2.4 km/h
277 18-06-2013 12:00:00 26.81667 C 17.88 g/m*3 26.82 C 3.06667 km/h
278 18-06-2013 13:00:00 29.94167 C 18.14 g/m*3 29.94 C 5.60833 km/h
279 18-06-2013 14:00:00 31.275 C 17.1 g/m*3 31.28 C 4.53333 km/h
280 18-06-2013 15:00:00 32.875 C 15.44 g/m*3 32.88 C 5.475 km/h
281 18-06-2013 16:00:00 31.65 C 17.45 g/m*3 31.65 C 4.53333 km/h
282 18-06-2013 17:00:00 31.49167 C 17.93 g/m*3 31.49 C 4.68333 km/h
283 18-06-2013 18:00:00 29.525 C 19.19 g/m*3 29.53 C 1.46667 km/h
284 18-06-2013 19:00:00 27.5 C 18.56 g/m*3 27.5 C 1.33333 km/h
285 18-06-2013 20:00:00 25.19167 C 18.11 g/m*3 25.19 C 1.6 km/h
286 18-06-2013 21:00:00 23.14167 C 17.01 g/m*3 23.14 C 0.53333 km/h
287 18-06-2013 22:00:00 22.48333 C 16.73 g/m*3 22.48 C 0 km/h
288 18-06-2013 23:00:00 21.59167 C 16.37 g/m*3 21.59 C 0 km/h
289 19-06-2013 00:00:00 20.90833 C 16.2 g/m*3 20.91 C 0 km/h
290 19-06-2013 01:00:00 20.175 C 15.95 g/m*3 20.18 C 0.26667 km/h
291 19-06-2013 02:00:00 19.61667 C 15.72 g/m*3 19.62 C 0.13333 km/h
292 19-06-2013 03:00:00 19.21667 C 15.61 g/m*3 19.22 C 0 km/h
293 19-06-2013 04:00:00 19.35833 C 15.8 g/m*3 19.36 C 0 km/h
294 19-06-2013 05:00:00 18.875 C 15.37 g/m*3 18.88 C 0 km/h
295 19-06-2013 06:00:00 18.91667 C 15.54 g/m*3 18.92 C 0 km/h
296 19-06-2013 07:00:00 19.675 C 16.15 g/m*3 19.68 C 0 km/h
297 19-06-2013 08:00:00 22.11667 C 17.55 g/m*3 22.12 C 0 km/h
298 19-06-2013 09:00:00 23.73333 C 18.45 g/m*3 23.73 C 0.66667 km/h
299 19-06-2013 10:00:00 26.625 C 18.59 g/m*3 26.63 C 9.00833 km/h
300 19-06-2013 11:00:00 28.73333 C 18.71 g/m*3 28.73 C 8.325 km/h
Sensor: Nr:Datum:Temp:Abs-Feuchte:Windchill:Wind:
Aussen-T/F 301 19-06-2013 12:00:00 29.99167 C 19.27 g/m*3 29.99 C 6.29167 km/h
302 19-06-2013 13:00:00 30.7 C 20.21 g/m*3 30.7 C 4.53333 km/h
303 19-06-2013 14:00:00 30.75833 C 20.61 g/m*3 30.76 C 4.28333 km/h
304 19-06-2013 15:00:00 30.40833 C 20.69 g/m*3 30.41 C 2.13333 km/h
305 19-06-2013 16:00:00 29.15833 C 20.98 g/m*3 29.16 C 1.475 km/h
306 19-06-2013 17:00:00 29.36667 C 21.85 g/m*3 29.37 C 1.86667 km/h
307 19-06-2013 18:00:00 30.98333 C 20.54 g/m*3 30.98 C 7.65833 km/h
308 19-06-2013 19:00:00 30.83333 C 19.56 g/m*3 30.83 C 10.75833 km/h
309 19-06-2013 20:00:00 27.65833 C 19.42 g/m*3 27.66 C 5.375 km/h
310 19-06-2013 21:00:00 24.96667 C 18.96 g/m*3 24.97 C 0.53333 km/h
311 19-06-2013 22:00:00 23.43333 C 18.52 g/m*3 23.43 C 0.66667 km/h
312 19-06-2013 23:00:00 23.05 C 18.35 g/m*3 23.05 C 0.13333 km/h
313 20-06-2013 00:00:00 22.65 C 18.25 g/m*3 22.65 C 1.2 km/h
314 20-06-2013 01:00:00 22.55833 C 17.7 g/m*3 22.56 C 3.75 km/h
315 20-06-2013 02:00:00 22.45 C 16.75 g/m*3 22.45 C 5.90833 km/h
316 20-06-2013 03:00:00 22.3 C 16.21 g/m*3 22.3 C 8.725 km/h
317 20-06-2013 04:00:00 21.43333 C 16.01 g/m*3 21.43 C 2.00833 km/h
318 20-06-2013 05:00:00 21.19167 C 15.82 g/m*3 21.19 C 4.00833 km/h
319 20-06-2013 06:00:00 20.375 C 15.63 g/m*3 20.38 C 1.06667 km/h
320 20-06-2013 07:00:00 20.81667 C 15.98 g/m*3 20.82 C 1.74167 km/h
321 20-06-2013 08:00:00 21.7 C 16.36 g/m*3 21.7 C 3.75833 km/h
322 20-06-2013 09:00:00 19.875 C 15.25 g/m*3 19.88 C 4.15833 km/h
323 20-06-2013 10:00:00 20.60833 C 17.04 g/m*3 20.61 C 1.6 km/h
324 20-06-2013 11:00:00 21.33333 C 16.82 g/m*3 21.33 C 10.05833 km/h
325 20-06-2013 12:00:00 18.45 C 14.89 g/m*3 18.45 C 11.28333 km/h
Sensor: Nr:Datum:Temp:Abs-Feuchte:Windchill:Wind:
Aussen-T/F 326 20-06-2013 13:00:00 19.40833 C 15.25 g/m*3 19.41 C 11.15833 km/h
327 20-06-2013 14:00:00 22.2 C 15.71 g/m*3 22.2 C 8.06667 km/h
328 20-06-2013 15:00:00 23.975 C 16.08 g/m*3 23.98 C 5.88333 km/h
329 20-06-2013 16:00:00 24.83333 C 15.96 g/m*3 24.83 C 8.06667 km/h
330 20-06-2013 17:00:00 25.45833 C 15.73 g/m*3 25.46 C 7.38333 km/h
331 20-06-2013 18:00:00 25.55833 C 15.34 g/m*3 25.56 C 6.29167 km/h
332 20-06-2013 19:00:00 24.74167 C 15.2 g/m*3 24.74 C 6.04167 km/h
333 20-06-2013 20:00:00 22.11667 C 15.53 g/m*3 22.12 C 1.46667 km/h
334 20-06-2013 21:00:00 19.99167 C 15.53 g/m*3 19.99 C 0 km/h
335 20-06-2013 22:00:00 18.59167 C 13.96 g/m*3 18.59 C 13.14167 km/h
336 20-06-2013 23:00:00 16.575 C 12.72 g/m*3 16.58 C 9.79167 km/h
337 21-06-2013 00:00:00 15.65833 C 12.62 g/m*3 15.66 C 0.13333 km/h
338 21-06-2013 01:00:00 15.35 C 12.57 g/m*3 15.35 C 0.66667 km/h
339 21-06-2013 02:00:00 15.14167 C 12.33 g/m*3 15.14 C 0.26667 km/h
340 21-06-2013 03:00:00 14.7 C 12.06 g/m*3 14.7 C 0.8 km/h
341 21-06-2013 04:00:00 14.88333 C 12.11 g/m*3 14.88 C 5.225 km/h
342 21-06-2013 05:00:00 14.51667 C 11.47 g/m*3 14.52 C 3.61667 km/h
343 21-06-2013 06:00:00 14.01667 C 11.38 g/m*3 14.02 C 0.4 km/h
344 21-06-2013 07:00:00 14.475 C 11.9 g/m*3 14.48 C 0.66667 km/h
345 21-06-2013 08:00:00 16.45833 C 12.28 g/m*3 16.46 C 7.35 km/h
346 21-06-2013 09:00:00 16.80833 C 11.96 g/m*3 16.81 C 7.65 km/h
347 21-06-2013 10:00:00 18.01667 C 11.95 g/m*3 18.02 C 14.1 km/h
348 21-06-2013 11:00:00 19.36667 C 12.29 g/m*3 19.37 C 15.43333 km/h
349 21-06-2013 12:00:00 20.425 C 12.28 g/m*3 20.43 C 17.575 km/h
350 21-06-2013 13:00:00 21.64167 C 12.42 g/m*3 21.64 C 14.225 km/h
Sensor: Nr:Datum:Temp:Abs-Feuchte:Windchill:Wind:
Aussen-T/F 351 21-06-2013 14:00:00 22.11667 C 12.07 g/m*3 22.12 C 18.50833 km/h
352 21-06-2013 15:00:00 21.61667 C 12.17 g/m*3 21.62 C 19.04167 km/h
353 21-06-2013 16:00:00 21.60833 C 12.08 g/m*3 21.61 C 18.1 km/h
354 21-06-2013 17:00:00 21.3 C 11.54 g/m*3 21.3 C 18.36667 km/h
355 21-06-2013 18:00:00 20.19167 C 11.29 g/m*3 20.19 C 12.625 km/h
356 21-06-2013 19:00:00 19.08333 C 11.35 g/m*3 19.08 C 10.75833 km/h
357 21-06-2013 20:00:00 18.45 C 11.36 g/m*3 18.45 C 6.01667 km/h
358 21-06-2013 21:00:00 17.775 C 11.1 g/m*3 17.77 C 6.98333 km/h
359 21-06-2013 22:00:00 16.28333 C 11.2 g/m*3 16.28 C 2.675 km/h
360 21-06-2013 23:00:00 15.58333 C 11.14 g/m*3 15.58 C 2.40833 km/h
361 22-06-2013 00:00:00 15.99167 C 11.22 g/m*3 15.99 C 3.75 km/h
362 22-06-2013 01:00:00 15.79167 C 11.17 g/m*3 15.79 C 2.53333 km/h
363 22-06-2013 02:00:00 15.175 C 11.16 g/m*3 15.18 C 1.06667 km/h
364 22-06-2013 03:00:00 15.15 C 11.11 g/m*3 15.15 C 1.73333 km/h
365 22-06-2013 04:00:00 15.31667 C 10.99 g/m*3 15.32 C 3.2 km/h
366 22-06-2013 05:00:00 15.20833 C 10.95 g/m*3 15.21 C 4.13333 km/h
367 22-06-2013 06:00:00 14.68333 C 11.14 g/m*3 14.68 C 0 km/h
368 22-06-2013 07:00:00 14.80833 C 11.28 g/m*3 14.81 C 1.73333 km/h
369 22-06-2013 08:00:00 16.83333 C 11.52 g/m*3 16.83 C 13.15833 km/h
370 22-06-2013 09:00:00 18.04167 C 11.61 g/m*3 18.04 C 14.9 km/h
371 22-06-2013 10:00:00 19.15 C 11.71 g/m*3 19.15 C 13.7 km/h
372 22-06-2013 11:00:00 19.31667 C 11.75 g/m*3 19.32 C 13.43333 km/h
373 22-06-2013 12:00:00 19.45833 C 11.91 g/m*3 19.46 C 9.425 km/h
374 22-06-2013 13:00:00 20.025 C 12.36 g/m*3 20.02 C 7.51667 km/h
375 22-06-2013 14:00:00 21.01667 C 12.64 g/m*3 21.02 C 9.13333 km/h
Sensor: Nr:Datum:Temp:Abs-Feuchte:Windchill:Wind:
Aussen-T/F 376 22-06-2013 15:00:00 21.38333 C 12.61 g/m*3 21.38 C 16.9 km/h
377 22-06-2013 16:00:00 22.75833 C 12.25 g/m*3 22.76 C 14.23333 km/h
378 22-06-2013 17:00:00 21.8 C 11.99 g/m*3 21.8 C 11.15833 km/h
379 22-06-2013 18:00:00 21.28333 C 11.84 g/m*3 21.28 C 11.15833 km/h
380 22-06-2013 19:00:00 20.65 C 11.25 g/m*3 20.65 C 13.43333 km/h
381 22-06-2013 20:00:00 18.95 C 10.76 g/m*3 18.95 C 8.86667 km/h
382 22-06-2013 21:00:00 18.06667 C 10.5 g/m*3 18.07 C 10.46667 km/h
383 22-06-2013 22:00:00 16.86667 C 10.87 g/m*3 16.87 C 10.34167 km/h
384 22-06-2013 23:00:00 16.33333 C 11.12 g/m*3 16.33 C 4.15833 km/h
385 23-06-2013 00:00:00 16.73333 C 11.23 g/m*3 16.73 C 7.11667 km/h
386 23-06-2013 01:00:00 16.39167 C 11.53 g/m*3 16.39 C 5.06667 km/h
387 23-06-2013 02:00:00 16.05 C 11.58 g/m*3 16.05 C 2.94167 km/h
388 23-06-2013 03:00:00 15.825 C 11.56 g/m*3 15.83 C 2.54167 km/h
389 23-06-2013 04:00:00 15.70833 C 11.24 g/m*3 15.71 C 5.63333 km/h
390 23-06-2013 05:00:00 15.76667 C 10.5 g/m*3 15.77 C 9.825 km/h
391 23-06-2013 06:00:00 15.71667 C 10.11 g/m*3 15.72 C 11.96667 km/h
392 23-06-2013 07:00:00 15.7 C 10.25 g/m*3 15.7 C 9.54167 km/h
393 23-06-2013 08:00:00 16.25 C 10.4 g/m*3 16.25 C 11.96667 km/h
394 23-06-2013 09:00:00 16.60833 C 10.01 g/m*3 16.61 C 13.16667 km/h
395 23-06-2013 10:00:00 15.04167 C 9.7 g/m*3 15.04 C 15.55 km/h
396 23-06-2013 11:00:00 14.15 C 10.55 g/m*3 14.15 C 6.71667 km/h
397 23-06-2013 12:00:00 16.13333 C 10.64 g/m*3 16.13 C 12.21667 km/h
398 23-06-2013 13:00:00 16.875 C 10.18 g/m*3 16.88 C 13.83333 km/h
399 23-06-2013 14:00:00 17.38333 C 10.25 g/m*3 17.38 C 18.63333 km/h
400 23-06-2013 15:00:00 16.83333 C 10.53 g/m*3 16.83 C 16.1 km/h
Sensor: Nr:Datum:Temp:Abs-Feuchte:Windchill:Wind:
Aussen-T/F 401 23-06-2013 16:00:00 18.025 C 10.96 g/m*3 18.02 C 16.36667 km/h
402 23-06-2013 17:00:00 17.475 C 10.68 g/m*3 17.48 C 15.16667 km/h
403 23-06-2013 18:00:00 16.375 C 10.31 g/m*3 16.38 C 13.7 km/h
404 23-06-2013 19:00:00 16.55 C 10.46 g/m*3 16.55 C 13.56667 km/h
405 23-06-2013 20:00:00 15.58333 C 10.37 g/m*3 15.58 C 9.275 km/h
406 23-06-2013 21:00:00 14.875 C 10.33 g/m*3 14.88 C 5.23333 km/h
407 23-06-2013 22:00:00 14.31667 C 10.33 g/m*3 14.32 C 7.79167 km/h
408 23-06-2013 23:00:00 14.45 C 10.2 g/m*3 14.45 C 5.08333 km/h
409 24-06-2013 00:00:00 14.25 C 9.97 g/m*3 14.25 C 7.79167 km/h
410 24-06-2013 01:00:00 14.00833 C 9.92 g/m*3 14.01 C 4.66667 km/h
411 24-06-2013 02:00:00 13.64167 C 9.72 g/m*3 13.64 C 2.13333 km/h
412 24-06-2013 03:00:00 13.29167 C 9.57 g/m*3 13.29 C 2.13333 km/h
413 24-06-2013 04:00:00 13.10833 C 9.62 g/m*3 13.11 C 3.88333 km/h
414 24-06-2013 05:00:00 13.09167 C 9.79 g/m*3 13.09 C 3.20833 km/h
415 24-06-2013 06:00:00 13.25833 C 9.72 g/m*3 13.26 C 8.06667 km/h
416 24-06-2013 07:00:00 13.48333 C 9.79 g/m*3 13.48 C 9.81667 km/h
417 24-06-2013 08:00:00 14.20833 C 10.03 g/m*3 14.21 C 9.425 km/h
418 24-06-2013 09:00:00 15.16667 C 10.27 g/m*3 15.17 C 8.46667 km/h
419 24-06-2013 10:00:00 15.64167 C 10.29 g/m*3 15.64 C 8.34167 km/h
420 24-06-2013 11:00:00 16.925 C 10.41 g/m*3 16.93 C 9.53333 km/h
421 24-06-2013 12:00:00 14.975 C 10.24 g/m*3 14.98 C 4.70833 km/h
422 24-06-2013 13:00:00 14.81667 C 10.71 g/m*3 14.82 C 2.275 km/h
423 24-06-2013 14:00:00 13.78333 C 10.85 g/m*3 13.78 C 0.93333 km/h
424 24-06-2013 15:00:00 16.2 C 11.35 g/m*3 16.2 C 4.45 km/h
425 24-06-2013 16:00:00 15.78333 C 9.97 g/m*3 15.78 C 10.1 km/h
Sensor: Nr:Datum:Temp:Abs-Feuchte:Windchill:Wind:
Aussen-T/F 426 24-06-2013 17:00:00 15.34167 C 9.69 g/m*3 15.34 C 7.78333 km/h
427 24-06-2013 18:00:00 16.10833 C 9.65 g/m*3 16.11 C 7.51667 km/h
428 24-06-2013 19:00:00 15.33333 C 9.48 g/m*3 15.33 C 6.7 km/h
429 24-06-2013 20:00:00 14.36667 C 9.5 g/m*3 14.37 C 2.53333 km/h
430 24-06-2013 21:00:00 13.19167 C 9.89 g/m*3 13.19 C 1.06667 km/h
431 24-06-2013 22:00:00 12.8 C 9.82 g/m*3 12.8 C 0.8 km/h
432 24-06-2013 23:00:00 13.26667 C 9.22 g/m*3 13.27 C 4.94167 km/h
433 25-06-2013 00:00:00 13.075 C 9.18 g/m*3 13.08 C 4 km/h
434 25-06-2013 01:00:00 12.65833 C 9.35 g/m*3 12.66 C 4.41667 km/h
435 25-06-2013 02:00:00 12.28333 C 9.48 g/m*3 12.28 C 3.875 km/h
436 25-06-2013 03:00:00 11.65833 C 9.61 g/m*3 11.66 C 1.2 km/h
437 25-06-2013 04:00:00 11.40833 C 9.71 g/m*3 11.41 C 0.26667 km/h
438 25-06-2013 05:00:00 11.39167 C 9.75 g/m*3 11.39 C 1.6 km/h
439 25-06-2013 06:00:00 11.39167 C 9.75 g/m*3 11.39 C 1.46667 km/h
440 25-06-2013 07:00:00 11.65 C 9.83 g/m*3 11.65 C 2.675 km/h
441 25-06-2013 08:00:00 12.15 C 9.74 g/m*3 12.15 C 6.575 km/h
442 25-06-2013 09:00:00 12.375 C 9.59 g/m*3 12.38 C 6.98333 km/h
443 25-06-2013 10:00:00 12.78333 C 9.6 g/m*3 12.78 C 10.20833 km/h
444 25-06-2013 11:00:00 13.1 C 9.66 g/m*3 13.1 C 10.625 km/h
445 25-06-2013 12:00:00 13.825 C 9.86 g/m*3 13.83 C 10.49167 km/h
446 25-06-2013 13:00:00 14.95 C 9.92 g/m*3 14.95 C 10.75833 km/h
447 25-06-2013 14:00:00 16.15833 C 9.81 g/m*3 16.16 C 14.5 km/h
448 25-06-2013 15:00:00 15.08333 C 9.18 g/m*3 15.08 C 12.625 km/h
449 25-06-2013 16:00:00 15.18333 C 9.22 g/m*3 15.18 C 9.01667 km/h
450 25-06-2013 17:00:00 15.53333 C 9.01 g/m*3 15.53 C 9.55833 km/h
Sensor: Nr:Datum:Temp:Abs-Feuchte:Windchill:Wind:
Aussen-T/F 451 25-06-2013 18:00:00 15.25 C 8.1 g/m*3 15.25 C 9.01667 km/h
452 25-06-2013 19:00:00 14.975 C 8.36 g/m*3 14.98 C 6.84167 km/h
453 25-06-2013 20:00:00 14.88333 C 8.17 g/m*3 14.88 C 6.975 km/h
454 25-06-2013 21:00:00 13.13333 C 8.75 g/m*3 13.13 C 1.6 km/h
455 25-06-2013 22:00:00 11.76667 C 8.52 g/m*3 11.77 C 3.34167 km/h
456 25-06-2013 23:00:00 11.3 C 8.74 g/m*3 11.3 C 0 km/h
457 26-06-2013 00:00:00 11.11667 C 8.65 g/m*3 11.12 C 0.93333 km/h
458 26-06-2013 01:00:00 11.175 C 8.41 g/m*3 11.18 C 0.93333 km/h
459 26-06-2013 02:00:00 9.725 C 8.09 g/m*3 9.73 C 0.26667 km/h
460 26-06-2013 03:00:00 9.08333 C 7.94 g/m*3 9.08 C 0.13333 km/h
461 26-06-2013 04:00:00 8.48333 C 7.76 g/m*3 8.48 C 0.4 km/h
462 26-06-2013 05:00:00 7.74167 C 7.53 g/m*3 7.74 C 0.4 km/h
463 26-06-2013 06:00:00 7.61667 C 7.55 g/m*3 7.62 C 0.53333 km/h
464 26-06-2013 07:00:00 8.40833 C 7.94 g/m*3 8.41 C 1.06667 km/h
465 26-06-2013 08:00:00 10.7 C 8.34 g/m*3 10.7 C 4.66667 km/h
466 26-06-2013 09:00:00 12.14167 C 8.4 g/m*3 12.14 C 6.3 km/h
467 26-06-2013 10:00:00 12.7 C 8.16 g/m*3 12.7 C 7.79167 km/h
468 26-06-2013 11:00:00 13.30833 C 8.41 g/m*3 13.31 C 8.46667 km/h
469 26-06-2013 12:00:00 14.25 C 8.5 g/m*3 14.25 C 8.34167 km/h
470 26-06-2013 13:00:00 14.95 C 8.29 g/m*3 14.95 C 7.51667 km/h
471 26-06-2013 14:00:00 14.85833 C 8.19 g/m*3 14.86 C 9.55 km/h
472 26-06-2013 15:00:00 15.73333 C 8.28 g/m*3 15.73 C 9.13333 km/h
473 26-06-2013 16:00:00 15.51667 C 8.29 g/m*3 15.52 C 7.65833 km/h
474 26-06-2013 17:00:00 15.525 C 8.15 g/m*3 15.53 C 7.24167 km/h
475 26-06-2013 18:00:00 15.575 C 8.34 g/m*3 15.58 C 3.2 km/h
Sensor: Nr:Datum:Temp:Abs-Feuchte:Windchill:Wind:
Aussen-T/F 476 26-06-2013 19:00:00 14.15 C 9.61 g/m*3 14.15 C 0.26667 km/h
477 26-06-2013 20:00:00 13.15833 C 9.54 g/m*3 13.16 C 0 km/h
478 26-06-2013 21:00:00 12.64167 C 9.47 g/m*3 12.64 C 0 km/h
479 26-06-2013 22:00:00 12.40833 C 9.36 g/m*3 12.41 C 0 km/h
480 26-06-2013 23:00:00 12.21667 C 9.32 g/m*3 12.22 C 0.8 km/h
481 27-06-2013 00:00:00 12.175 C 9.31 g/m*3 12.18 C 0.13333 km/h
482 27-06-2013 01:00:00 12.14167 C 9.09 g/m*3 12.14 C 2.8 km/h
483 27-06-2013 02:00:00 12.075 C 9.14 g/m*3 12.08 C 2.00833 km/h
484 27-06-2013 03:00:00 11.80833 C 9.3 g/m*3 11.81 C 1.6 km/h
485 27-06-2013 04:00:00 11.00833 C 9.28 g/m*3 11.01 C 0.13333 km/h
486 27-06-2013 05:00:00 10.925 C 9.26 g/m*3 10.93 C 0.13333 km/h
487 27-06-2013 06:00:00 11.10833 C 9.46 g/m*3 11.11 C 0 km/h
488 27-06-2013 07:00:00 11.33333 C 9.71 g/m*3 11.33 C 0.26667 km/h
489 27-06-2013 08:00:00 11.36667 C 9.69 g/m*3 11.37 C 3.08333 km/h
490 27-06-2013 09:00:00 11.21667 C 9.5 g/m*3 11.22 C 1.33333 km/h
491 27-06-2013 10:00:00 12.3 C 9.71 g/m*3 12.3 C 0.93333 km/h
492 27-06-2013 11:00:00 13.275 C 9.91 g/m*3 13.28 C 3.6 km/h
493 27-06-2013 12:00:00 14.34167 C 10.11 g/m*3 14.34 C 4.40833 km/h
494 27-06-2013 13:00:00 15.65 C 9.75 g/m*3 15.65 C 6.43333 km/h
495 27-06-2013 14:00:00 16.075 C 9.3 g/m*3 16.08 C 10.2 km/h
496 27-06-2013 15:00:00 13.18333 C 9.27 g/m*3 13.18 C 6.85 km/h
497 27-06-2013 16:00:00 14.76667 C 9.67 g/m*3 14.77 C 5.61667 km/h
498 27-06-2013 17:00:00 16.13333 C 8.96 g/m*3 16.13 C 7.90833 km/h
499 27-06-2013 18:00:00 13.74167 C 9.3 g/m*3 13.74 C 4.84167 km/h
500 27-06-2013 19:00:00 13.45 C 9.63 g/m*3 13.45 C 0.66667 km/h
Sensor: Nr:Datum:Temp:Abs-Feuchte:Windchill:Wind:
Aussen-T/F 501 27-06-2013 20:00:00 13.15833 C 9.97 g/m*3 13.16 C 0 km/h
502 27-06-2013 21:00:00 12.06667 C 9.79 g/m*3 12.07 C 0 km/h
503 27-06-2013 22:00:00 11.7 C 9.74 g/m*3 11.7 C 0 km/h
504 27-06-2013 23:00:00 11.54167 C 9.7 g/m*3 11.54 C 0 km/h
505 28-06-2013 00:00:00 11.275 C 9.47 g/m*3 11.28 C 0.4 km/h
506 28-06-2013 01:00:00 10.44167 C 9.03 g/m*3 10.44 C 0 km/h
507 28-06-2013 02:00:00 9.94167 C 8.87 g/m*3 9.94 C 1.46667 km/h
508 28-06-2013 03:00:00 9.66667 C 8.72 g/m*3 9.67 C 0.4 km/h
509 28-06-2013 04:00:00 9.49167 C 8.64 g/m*3 9.49 C 0.26667 km/h
510 28-06-2013 05:00:00 9.3 C 8.54 g/m*3 9.3 C 1.2 km/h
511 28-06-2013 06:00:00 9.46667 C 8.62 g/m*3 9.47 C 0 km/h
512 28-06-2013 07:00:00 10.075 C 8.86 g/m*3 10.07 C 0.53333 km/h
513 28-06-2013 08:00:00 10.7 C 9.1 g/m*3 10.7 C 0.8 km/h
514 28-06-2013 09:00:00 11.35 C 9.39 g/m*3 11.35 C 0.4 km/h
515 28-06-2013 10:00:00 11.875 C 9.75 g/m*3 11.88 C 0 km/h
516 28-06-2013 11:00:00 12.225 C 10.08 g/m*3 12.23 C 0.13333 km/h
517 28-06-2013 12:00:00 12.64167 C 10.46 g/m*3 12.64 C 0 km/h
518 28-06-2013 13:00:00 13.35 C 10.97 g/m*3 13.35 C 0.66667 km/h
519 28-06-2013 14:00:00 14.35 C 10.77 g/m*3 14.35 C 2.81667 km/h
520 28-06-2013 15:00:00 15.39167 C 10.81 g/m*3 15.39 C 4.29167 km/h
521 28-06-2013 16:00:00 15.1 C 10.79 g/m*3 15.1 C 2.54167 km/h
522 28-06-2013 17:00:00 15.8 C 10.65 g/m*3 15.8 C 4.825 km/h
523 28-06-2013 18:00:00 15.59167 C 10.66 g/m*3 15.59 C 2.66667 km/h
524 28-06-2013 19:00:00 15.61667 C 10.64 g/m*3 15.62 C 4 km/h
525 28-06-2013 20:00:00 15.1 C 10.73 g/m*3 15.1 C 0.66667 km/h
Sensor: Nr:Datum:Temp:Abs-Feuchte:Windchill:Wind:
Aussen-T/F 526 28-06-2013 21:00:00 14.075 C 10.62 g/m*3 14.08 C 0.4 km/h
527 28-06-2013 22:00:00 13.63333 C 10.38 g/m*3 13.63 C 0.93333 km/h
528 28-06-2013 23:00:00 14.01667 C 10.25 g/m*3 14.02 C 5.49167 km/h
529 29-06-2013 00:00:00 13.81667 C 10.28 g/m*3 13.82 C 3.88333 km/h
530 29-06-2013 01:00:00 13.89167 C 10.39 g/m*3 13.89 C 2.66667 km/h
531 29-06-2013 02:00:00 13.36667 C 10.66 g/m*3 13.37 C 1.06667 km/h
532 29-06-2013 03:00:00 12.90833 C 10.7 g/m*3 12.91 C 1.2 km/h
533 29-06-2013 04:00:00 13.09167 C 10.81 g/m*3 13.09 C 8.05833 km/h
534 29-06-2013 05:00:00 13.30833 C 10.91 g/m*3 13.31 C 10.075 km/h
535 29-06-2013 06:00:00 13.54167 C 11.01 g/m*3 13.54 C 10.89167 km/h
536 29-06-2013 07:00:00 13.85833 C 11.33 g/m*3 13.86 C 6.44167 km/h
537 29-06-2013 08:00:00 14.11667 C 11.58 g/m*3 14.12 C 6.16667 km/h
538 29-06-2013 09:00:00 14.51667 C 11.84 g/m*3 14.52 C 2 km/h
539 29-06-2013 10:00:00 14.95833 C 11.95 g/m*3 14.96 C 6.575 km/h
540 29-06-2013 11:00:00 15.925 C 12.35 g/m*3 15.93 C 12.225 km/h
541 29-06-2013 12:00:00 17.20833 C 12.37 g/m*3 17.21 C 14.76667 km/h
542 29-06-2013 13:00:00 17.775 C 12.09 g/m*3 17.77 C 15.16667 km/h
543 29-06-2013 14:00:00 18.275 C 12.05 g/m*3 18.27 C 14.23333 km/h
544 29-06-2013 15:00:00 18.58333 C 11.66 g/m*3 18.58 C 15.16667 km/h
545 29-06-2013 16:00:00 18.875 C 11.32 g/m*3 18.88 C 14.36667 km/h
546 29-06-2013 17:00:00 18.14167 C 10.61 g/m*3 18.14 C 11.83333 km/h
547 29-06-2013 18:00:00 17.53333 C 10.08 g/m*3 17.53 C 11.15 km/h
548 29-06-2013 19:00:00 17.25833 C 9.71 g/m*3 17.26 C 10.89167 km/h
549 29-06-2013 20:00:00 16.85833 C 9.36 g/m*3 16.86 C 7.38333 km/h
550 29-06-2013 21:00:00 15.30833 C 9.17 g/m*3 15.31 C 4.16667 km/h
Sensor: Nr:Datum:Temp:Abs-Feuchte:Windchill:Wind:
Aussen-T/F 551 29-06-2013 22:00:00 12.43333 C 9.17 g/m*3 12.43 C 1.06667 km/h
552 29-06-2013 23:00:00 11.96667 C 9.1 g/m*3 11.97 C 0.26667 km/h
553 30-06-2013 00:00:00 11.275 C 8.83 g/m*3 11.28 C 0.4 km/h
554 30-06-2013 01:00:00 10.2 C 8.45 g/m*3 10.2 C 0 km/h
555 30-06-2013 02:00:00 9.18333 C 8.21 g/m*3 9.18 C 0.4 km/h
556 30-06-2013 03:00:00 8.74167 C 8.07 g/m*3 8.74 C 1.20833 km/h
557 30-06-2013 04:00:00 8.375 C 7.95 g/m*3 8.38 C 2.94167 km/h
558 30-06-2013 05:00:00 7.95 C 7.75 g/m*3 7.95 C 0.13333 km/h
559 30-06-2013 06:00:00 7.73333 C 7.71 g/m*3 7.73 C 0.8 km/h
560 30-06-2013 07:00:00 8.54167 C 8.08 g/m*3 7.99 C 5.35 km/h
561 30-06-2013 08:00:00 11.23333 C 8.85 g/m*3 11.23 C 5.89167 km/h
562 30-06-2013 09:00:00 13.475 C 9.25 g/m*3 13.48 C 5.625 km/h
563 30-06-2013 10:00:00 15.60833 C 9.35 g/m*3 15.61 C 6.16667 km/h
564 30-06-2013 11:00:00 16.71667 C 8.9 g/m*3 16.72 C 5.35 km/h
565 30-06-2013 12:00:00 17.88333 C 9.24 g/m*3 17.88 C 5.09167 km/h
566 30-06-2013 13:00:00 18.21667 C 9.48 g/m*3 18.22 C 4.29167 km/h
567 30-06-2013 14:00:00 18.95833 C 9.32 g/m*3 18.96 C 5.34167 km/h
568 30-06-2013 15:00:00 19.875 C 9.58 g/m*3 19.88 C 6.18333 km/h
569 30-06-2013 16:00:00 19.475 C 10.47 g/m*3 19.48 C 2.94167 km/h
570 30-06-2013 17:00:00 20.05833 C 10.85 g/m*3 20.06 C 4.28333 km/h
571 30-06-2013 18:00:00 21.175 C 10.27 g/m*3 21.18 C 8.88333 km/h
572 30-06-2013 19:00:00 17.9 C 12.04 g/m*3 17.9 C 0.4 km/h
573 30-06-2013 20:00:00 16.38333 C 11.76 g/m*3 16.38 C 0.13333 km/h
574 30-06-2013 21:00:00 15.50833 C 11.34 g/m*3 15.51 C 1.33333 km/h
575 30-06-2013 22:00:00 15.16667 C 11.16 g/m*3 15.17 C 1.2 km/h
Sensor: Nr:Datum:Temp:Abs-Feuchte:Windchill:Wind:
Aussen-T/F 576 30-06-2013 23:00:00 15.11667 C 10.91 g/m*3 15.12 C 0.8 km/h
577 01-07-2013 00:00:00 14.68333 C 10.82 g/m*3 14.68 C 0.66667 km/h
578 01-07-2013 01:00:00 14.00833 C 10.63 g/m*3 14.01 C 2 km/h
579 01-07-2013 02:00:00 13.425 C 10.4 g/m*3 13.43 C 0.53333 km/h
580 01-07-2013 03:00:00 12.76667 C 10.23 g/m*3 12.77 C 2.26667 km/h
581 01-07-2013 04:00:00 12.34167 C 10.02 g/m*3 12.34 C 2.53333 km/h
582 01-07-2013 05:00:00 11.71667 C 9.81 g/m*3 11.72 C 0.53333 km/h
583 01-07-2013 06:00:00 11.775 C 9.89 g/m*3 11.78 C 1.2 km/h
584 01-07-2013 07:00:00 12.65 C 10.26 g/m*3 12.65 C 0.53333 km/h
585 01-07-2013 08:00:00 15.09167 C 11.27 g/m*3 15.09 C 2.95833 km/h
586 01-07-2013 09:00:00 17.86667 C 11.71 g/m*3 17.87 C 11.7 km/h
587 01-07-2013 10:00:00 19.625 C 12.13 g/m*3 19.63 C 12.5 km/h
588 01-07-2013 11:00:00 21.04167 C 12.44 g/m*3 21.04 C 14.75833 km/h
589 01-07-2013 12:00:00 22.4 C 12.53 g/m*3 22.4 C 13.03333 km/h
590 01-07-2013 13:00:00 23.49167 C 12.45 g/m*3 23.49 C 13.83333 km/h
591 01-07-2013 14:00:00 24.48333 C 12.22 g/m*3 24.48 C 12.49167 km/h
592 01-07-2013 15:00:00 24.88333 C 11.82 g/m*3 24.88 C 13.43333 km/h
593 01-07-2013 16:00:00 25.4 C 11.99 g/m*3 25.4 C 12.21667 km/h
594 01-07-2013 17:00:00 25.7 C 11.83 g/m*3 25.7 C 11.3 km/h
595 01-07-2013 18:00:00 24.95833 C 12.29 g/m*3 24.96 C 9.28333 km/h
596 01-07-2013 19:00:00 22.68333 C 12.35 g/m*3 22.68 C 4.69167 km/h
597 01-07-2013 20:00:00 20.76667 C 11.97 g/m*3 20.77 C 6.04167 km/h
598 01-07-2013 21:00:00 18.18333 C 12.71 g/m*3 18.18 C 0 km/h
599 01-07-2013 22:00:00 17.15 C 12.5 g/m*3 17.15 C 0.53333 km/h
600 01-07-2013 23:00:00 16.025 C 12.16 g/m*3 16.02 C 0.13333 km/h
Sensor: Nr:Datum:Temp:Abs-Feuchte:Windchill:Wind:
Aussen-T/F 601 02-07-2013 00:00:00 16.14167 C 12.48 g/m*3 16.14 C 0.13333 km/h
602 02-07-2013 01:00:00 15.75833 C 12.25 g/m*3 15.76 C 0.13333 km/h
603 02-07-2013 02:00:00 15.24167 C 11.99 g/m*3 15.24 C 0 km/h
604 02-07-2013 03:00:00 15.03333 C 11.94 g/m*3 15.03 C 0 km/h
605 02-07-2013 04:00:00 13.775 C 11.09 g/m*3 13.78 C 0 km/h
606 02-07-2013 05:00:00 12.875 C 10.67 g/m*3 12.88 C 0 km/h
607 02-07-2013 06:00:00 12.65833 C 10.62 g/m*3 12.66 C 2.53333 km/h
608 02-07-2013 07:00:00 12.85833 C 10.79 g/m*3 12.86 C 4.26667 km/h
609 02-07-2013 08:00:00 14.125 C 11.32 g/m*3 14.13 C 2.53333 km/h
610 02-07-2013 09:00:00 16.775 C 12.13 g/m*3 16.77 C 5.35833 km/h
611 02-07-2013 10:00:00 19.20833 C 12.35 g/m*3 19.21 C 9.275 km/h
612 02-07-2013 11:00:00 21.09167 C 11.83 g/m*3 21.09 C 12.36667 km/h
613 02-07-2013 12:00:00 22.375 C 11.57 g/m*3 22.38 C 13.43333 km/h
614 02-07-2013 13:00:00 23.5 C 11.49 g/m*3 23.5 C 12.09167 km/h
615 02-07-2013 14:00:00 24.28333 C 11.31 g/m*3 24.28 C 11.41667 km/h
616 02-07-2013 15:00:00 25.05833 C 11.55 g/m*3 25.06 C 9.95833 km/h
617 02-07-2013 16:00:00 26.05833 C 11.07 g/m*3 26.06 C 11.16667 km/h
618 02-07-2013 17:00:00 26.575 C 10.35 g/m*3 26.58 C 8.75 km/h
619 02-07-2013 18:00:00 25.29167 C 12.6 g/m*3 25.29 C 4.29167 km/h
620 02-07-2013 19:00:00 20.625 C 14.01 g/m*3 20.63 C 1.33333 km/h
621 02-07-2013 20:00:00 20.13333 C 14.01 g/m*3 20.13 C 1.2 km/h
622 02-07-2013 21:00:00 18.425 C 13.19 g/m*3 18.43 C 1.73333 km/h
623 02-07-2013 22:00:00 17.575 C 12.92 g/m*3 17.58 C 0.26667 km/h
624 02-07-2013 23:00:00 17.80833 C 13.21 g/m*3 17.81 C 0 km/h
625 03-07-2013 00:00:00 17.85833 C 13.09 g/m*3 17.86 C 0.53333 km/h
Sensor: Nr:Datum:Temp:Abs-Feuchte:Windchill:Wind:
Aussen-T/F 626 03-07-2013 01:00:00 17.64167 C 13.06 g/m*3 17.64 C 0 km/h
627 03-07-2013 02:00:00 16.83333 C 13.36 g/m*3 16.83 C 1.6 km/h
628 03-07-2013 03:00:00 16.25833 C 13.23 g/m*3 16.26 C 0 km/h
629 03-07-2013 04:00:00 16.18333 C 13.23 g/m*3 16.18 C 0 km/h
630 03-07-2013 05:00:00 16.075 C 13.26 g/m*3 16.08 C 0 km/h
631 03-07-2013 06:00:00 16.225 C 13.4 g/m*3 16.23 C 0 km/h
632 03-07-2013 07:00:00 16.45 C 13.58 g/m*3 16.45 C 0 km/h
633 03-07-2013 08:00:00 16.6 C 13.7 g/m*3 16.6 C 0 km/h
634 03-07-2013 09:00:00 16.81667 C 13.95 g/m*3 16.82 C 0 km/h
635 03-07-2013 10:00:00 16.74167 C 13.84 g/m*3 16.74 C 1.33333 km/h
636 03-07-2013 11:00:00 16.75833 C 13.62 g/m*3 16.76 C 2.675 km/h
637 03-07-2013 12:00:00 17.65833 C 13.85 g/m*3 17.66 C 6.975 km/h
638 03-07-2013 13:00:00 17.7 C 13.84 g/m*3 17.7 C 7.65 km/h
639 03-07-2013 14:00:00 18.01667 C 13.75 g/m*3 18.02 C 9.95833 km/h
640 03-07-2013 15:00:00 18.48333 C 14.04 g/m*3 18.48 C 9.14167 km/h
641 03-07-2013 16:00:00 18.925 C 14.18 g/m*3 18.93 C 5.76667 km/h
642 03-07-2013 17:00:00 18.55833 C 13.98 g/m*3 18.56 C 3.48333 km/h
643 03-07-2013 18:00:00 18.38333 C 13.76 g/m*3 18.38 C 4.55 km/h
644 03-07-2013 19:00:00 17.725 C 13.83 g/m*3 17.73 C 0.26667 km/h
645 03-07-2013 20:00:00 17.29167 C 13.94 g/m*3 17.29 C 0 km/h
646 03-07-2013 21:00:00 17.01667 C 13.82 g/m*3 17.02 C 0.53333 km/h
647 03-07-2013 22:00:00 16.64167 C 13.6 g/m*3 16.64 C 0 km/h
648 03-07-2013 23:00:00 15.71667 C 12.82 g/m*3 15.72 C 1.875 km/h
649 04-07-2013 00:00:00 15.20833 C 12.58 g/m*3 15.21 C 0 km/h
650 04-07-2013 01:00:00 15.2 C 12.59 g/m*3 15.2 C 0 km/h
Sensor: Nr:Datum:Temp:Abs-Feuchte:Windchill:Wind:
Aussen-T/F 651 04-07-2013 02:00:00 15.25833 C 12.64 g/m*3 15.26 C 0.53333 km/h
652 04-07-2013 03:00:00 15.21667 C 12.62 g/m*3 15.22 C 0 km/h
653 04-07-2013 04:00:00 15.125 C 12.66 g/m*3 15.13 C 0 km/h
654 04-07-2013 05:00:00 15.03333 C 12.59 g/m*3 15.03 C 0 km/h
655 04-07-2013 06:00:00 15.15833 C 12.69 g/m*3 15.16 C 0 km/h
656 04-07-2013 07:00:00 15.75833 C 13.16 g/m*3 15.76 C 0.13333 km/h
657 04-07-2013 08:00:00 16.30833 C 13.6 g/m*3 16.31 C 0 km/h
658 04-07-2013 09:00:00 16.68333 C 13.66 g/m*3 16.68 C 0.13333 km/h
659 04-07-2013 10:00:00 17.46667 C 13.64 g/m*3 17.47 C 0.66667 km/h
660 04-07-2013 11:00:00 19.16667 C 13.49 g/m*3 19.17 C 5.35 km/h
661 04-07-2013 12:00:00 20.68333 C 13.43 g/m*3 20.68 C 9.13333 km/h
662 04-07-2013 13:00:00 21.78333 C 13.15 g/m*3 21.78 C 8.99167 km/h
663 04-07-2013 14:00:00 20.875 C 13.43 g/m*3 20.88 C 6.04167 km/h
664 04-07-2013 15:00:00 20.025 C 13.95 g/m*3 20.02 C 2.275 km/h
665 04-07-2013 16:00:00 20.70833 C 14.05 g/m*3 20.71 C 2.675 km/h
666 04-07-2013 17:00:00 23.15 C 12.9 g/m*3 23.15 C 5.90833 km/h
667 04-07-2013 18:00:00 22.50833 C 14.07 g/m*3 22.51 C 3.225 km/h
668 04-07-2013 19:00:00 18.76667 C 14.24 g/m*3 18.77 C 0.8 km/h
669 04-07-2013 20:00:00 19.075 C 14.15 g/m*3 19.08 C 1.33333 km/h
670 04-07-2013 21:00:00 18.08333 C 13.72 g/m*3 18.08 C 1.2 km/h
671 04-07-2013 22:00:00 17.68333 C 13.53 g/m*3 17.68 C 0.53333 km/h
672 04-07-2013 23:00:00 17.925 C 13.56 g/m*3 17.93 C 0.66667 km/h
673 05-07-2013 00:00:00 17.40833 C 13.59 g/m*3 17.41 C 0.13333 km/h
674 05-07-2013 01:00:00 17.55833 C 13.36 g/m*3 17.56 C 1.46667 km/h
675 05-07-2013 02:00:00 16.78333 C 13.21 g/m*3 16.78 C 0 km/h
Sensor: Nr:Datum:Temp:Abs-Feuchte:Windchill:Wind:
Aussen-T/F 676 05-07-2013 03:00:00 16.35 C 12.96 g/m*3 16.35 C 0 km/h
677 05-07-2013 04:00:00 16.275 C 12.98 g/m*3 16.27 C 0 km/h
678 05-07-2013 05:00:00 16.16667 C 12.97 g/m*3 16.17 C 0 km/h
679 05-07-2013 06:00:00 16.2 C 13.04 g/m*3 16.2 C 0 km/h
680 05-07-2013 07:00:00 16.71667 C 13.23 g/m*3 16.72 C 2.53333 km/h
681 05-07-2013 08:00:00 17.93333 C 13.37 g/m*3 17.93 C 4.13333 km/h
682 05-07-2013 09:00:00 19.24167 C 13.44 g/m*3 19.24 C 6 km/h
683 05-07-2013 10:00:00 19.775 C 13.29 g/m*3 19.77 C 6.56667 km/h
684 05-07-2013 11:00:00 20.475 C 12.84 g/m*3 20.48 C 6.7 km/h
685 05-07-2013 12:00:00 21.125 C 12.98 g/m*3 21.13 C 6.28333 km/h
686 05-07-2013 13:00:00 21.15833 C 13.02 g/m*3 21.16 C 6.16667 km/h
687 05-07-2013 14:00:00 21.13333 C 12.92 g/m*3 21.13 C 6.83333 km/h
688 05-07-2013 15:00:00 21.59167 C 12.97 g/m*3 21.59 C 7.125 km/h
689 05-07-2013 16:00:00 21.6 C 13.32 g/m*3 21.6 C 3.2 km/h
690 05-07-2013 17:00:00 22.40833 C 13.69 g/m*3 22.41 C 4.55 km/h
691 05-07-2013 18:00:00 24.2 C 13.04 g/m*3 24.2 C 6.96667 km/h
692 05-07-2013 19:00:00 23.85833 C 12.34 g/m*3 23.86 C 5.88333 km/h
693 05-07-2013 20:00:00 21.21667 C 13.82 g/m*3 21.22 C 1.6 km/h
694 05-07-2013 21:00:00 17.80833 C 13.35 g/m*3 17.81 C 0.53333 km/h
695 05-07-2013 22:00:00 16.83333 C 13.01 g/m*3 16.83 C 0.66667 km/h
696 05-07-2013 23:00:00 16.35 C 12.8 g/m*3 16.35 C 0 km/h
697 06-07-2013 00:00:00 15.49167 C 12.35 g/m*3 15.49 C 0 km/h
698 06-07-2013 01:00:00 14.85 C 12.04 g/m*3 14.85 C 0 km/h
699 06-07-2013 02:00:00 14.375 C 11.76 g/m*3 14.38 C 0 km/h
700 06-07-2013 03:00:00 13.90833 C 11.51 g/m*3 13.91 C 0 km/h
Sensor: Nr:Datum:Temp:Abs-Feuchte:Windchill:Wind:
Aussen-T/F 701 06-07-2013 04:00:00 13.64167 C 11.33 g/m*3 13.64 C 0 km/h
702 06-07-2013 05:00:00 13.28333 C 11.13 g/m*3 13.28 C 0 km/h
703 06-07-2013 06:00:00 13.225 C 11.15 g/m*3 13.23 C 0.26667 km/h
704 06-07-2013 07:00:00 13.59167 C 11.41 g/m*3 13.59 C 0.4 km/h
705 06-07-2013 08:00:00 15.08333 C 12.34 g/m*3 15.08 C 0 km/h
706 06-07-2013 09:00:00 16.95833 C 13.31 g/m*3 16.96 C 0 km/h
707 06-07-2013 10:00:00 19.19167 C 14.56 g/m*3 19.19 C 1.06667 km/h
708 06-07-2013 11:00:00 22.98333 C 15.4 g/m*3 22.98 C 6.15 km/h
709 06-07-2013 12:00:00 23.60833 C 15.39 g/m*3 23.61 C 3.33333 km/h
710 06-07-2013 13:00:00 23.90833 C 14.93 g/m*3 23.91 C 3.61667 km/h
711 06-07-2013 14:00:00 26.15833 C 13.22 g/m*3 26.16 C 6.31667 km/h
712 06-07-2013 15:00:00 27.39167 C 12.32 g/m*3 27.39 C 8.45833 km/h
713 06-07-2013 16:00:00 27.28333 C 12.98 g/m*3 27.28 C 5.63333 km/h
714 06-07-2013 17:00:00 27.325 C 12.99 g/m*3 27.33 C 5.76667 km/h
715 06-07-2013 18:00:00 25.175 C 14.84 g/m*3 25.18 C 2.26667 km/h
716 06-07-2013 19:00:00 23.54167 C 15.42 g/m*3 23.54 C 1.6 km/h
717 06-07-2013 20:00:00 20.79167 C 14.75 g/m*3 20.79 C 1.33333 km/h
718 06-07-2013 21:00:00 17.95833 C 13.87 g/m*3 17.96 C 2.53333 km/h
719 06-07-2013 22:00:00 17.16667 C 13.42 g/m*3 17.17 C 0.13333 km/h
720 06-07-2013 23:00:00 16.50833 C 13.11 g/m*3 16.51 C 0 km/h
721 07-07-2013 00:00:00 15.96667 C 12.79 g/m*3 15.97 C 0 km/h
722 07-07-2013 01:00:00 15.68333 C 12.65 g/m*3 15.68 C 0 km/h
723 07-07-2013 02:00:00 15.26667 C 12.38 g/m*3 15.27 C 0 km/h
724 07-07-2013 03:00:00 15.175 C 12.43 g/m*3 15.18 C 0 km/h
725 07-07-2013 04:00:00 14.7 C 12.09 g/m*3 14.7 C 0 km/h
Sensor: Nr:Datum:Temp:Abs-Feuchte:Windchill:Wind:
Aussen-T/F 726 07-07-2013 05:00:00 14.3 C 11.83 g/m*3 14.3 C 0 km/h
727 07-07-2013 06:00:00 14.44167 C 12.02 g/m*3 14.44 C 0 km/h
728 07-07-2013 07:00:00 15.25 C 12.63 g/m*3 15.25 C 0 km/h
729 07-07-2013 08:00:00 16.73333 C 13.26 g/m*3 16.73 C 0 km/h
730 07-07-2013 09:00:00 17.75833 C 13.79 g/m*3 17.76 C 0 km/h
731 07-07-2013 10:00:00 19.775 C 14.6 g/m*3 19.77 C 0.4 km/h
732 07-07-2013 11:00:00 21.75833 C 15.01 g/m*3 21.76 C 2.94167 km/h
733 07-07-2013 12:00:00 24.91667 C 12.12 g/m*3 24.92 C 6.575 km/h
734 07-07-2013 13:00:00 26.625 C 11.6 g/m*3 26.63 C 8.88333 km/h
735 07-07-2013 14:00:00 27.825 C 10.95 g/m*3 27.83 C 8.48333 km/h
736 07-07-2013 15:00:00 28.425 C 10.3 g/m*3 28.43 C 6.96667 km/h
737 07-07-2013 16:00:00 28.56667 C 11.34 g/m*3 28.57 C 8.05833 km/h
738 07-07-2013 17:00:00 28.80833 C 11.18 g/m*3 28.81 C 8.325 km/h
739 07-07-2013 18:00:00 28.14167 C 12.01 g/m*3 28.14 C 6.175 km/h
740 07-07-2013 19:00:00 25.79167 C 13.82 g/m*3 25.79 C 3.21667 km/h
741 07-07-2013 20:00:00 21.725 C 14.01 g/m*3 21.73 C 1.33333 km/h
742 07-07-2013 21:00:00 19.55 C 13.17 g/m*3 19.55 C 1.2 km/h
743 07-07-2013 22:00:00 18.54167 C 12.82 g/m*3 18.54 C 0 km/h
744 07-07-2013 23:00:00 17.53333 C 12.56 g/m*3 17.53 C 0 km/h
745 08-07-2013 00:00:00 16.7 C 12.26 g/m*3 16.7 C 0 km/h
746 08-07-2013 01:00:00 16.04167 C 11.93 g/m*3 16.04 C 0.13333 km/h
747 08-07-2013 02:00:00 15 C 11.56 g/m*3 15 C 0.13333 km/h
748 08-07-2013 03:00:00 14.30833 C 11.31 g/m*3 14.31 C 0.13333 km/h
749 08-07-2013 04:00:00 13.80833 C 11.1 g/m*3 13.81 C 0.13333 km/h
750 08-07-2013 05:00:00 13.31667 C 10.88 g/m*3 13.32 C 0 km/h
Sensor: Nr:Datum:Temp:Abs-Feuchte:Windchill:Wind:
Aussen-T/F 751 08-07-2013 06:00:00 13.13333 C 10.87 g/m*3 13.13 C 0 km/h
752 08-07-2013 07:00:00 13.675 C 11.31 g/m*3 13.68 C 0 km/h
753 08-07-2013 08:00:00 16.09167 C 12.39 g/m*3 16.09 C 0 km/h
754 08-07-2013 09:00:00 17.44167 C 12.73 g/m*3 17.44 C 0 km/h
755 08-07-2013 10:00:00 19.125 C 13.74 g/m*3 19.13 C 0.53333 km/h
756 08-07-2013 11:00:00 23.025 C 13.28 g/m*3 23.03 C 5.75833 km/h
757 08-07-2013 12:00:00 25.25 C 12 g/m*3 25.25 C 9.525 km/h
758 08-07-2013 13:00:00 26.625 C 12.33 g/m*3 26.63 C 9.40833 km/h
759 08-07-2013 14:00:00 27.39167 C 11.94 g/m*3 27.39 C 9.15 km/h
760 08-07-2013 15:00:00 27.96667 C 11.79 g/m*3 27.97 C 9.95 km/h
761 08-07-2013 16:00:00 28.575 C 11.79 g/m*3 28.58 C 9.14167 km/h
762 08-07-2013 17:00:00 28.73333 C 12.29 g/m*3 28.73 C 7.66667 km/h
763 08-07-2013 18:00:00 28.38333 C 12.45 g/m*3 28.38 C 6.98333 km/h
764 08-07-2013 19:00:00 27.10833 C 12.79 g/m*3 27.11 C 4.41667 km/h
765 08-07-2013 20:00:00 23.38333 C 14.09 g/m*3 23.38 C 1.33333 km/h
766 08-07-2013 21:00:00 20.43333 C 13.25 g/m*3 20.43 C 1.2 km/h
767 08-07-2013 22:00:00 19.14167 C 12.75 g/m*3 19.14 C 0.8 km/h
768 08-07-2013 23:00:00 18.28333 C 12.57 g/m*3 18.28 C 0.13333 km/h
769 09-07-2013 00:00:00 17.64167 C 11.99 g/m*3 17.64 C 0.13333 km/h
770 09-07-2013 01:00:00 17.33333 C 11.96 g/m*3 17.33 C 0.26667 km/h
771 09-07-2013 02:00:00 16.50833 C 11.92 g/m*3 16.51 C 0.13333 km/h
772 09-07-2013 03:00:00 15.29167 C 11.49 g/m*3 15.29 C 0 km/h
773 09-07-2013 04:00:00 14.39167 C 11.28 g/m*3 14.39 C 0 km/h
774 09-07-2013 05:00:00 13.81667 C 11.08 g/m*3 13.82 C 0 km/h
775 09-07-2013 06:00:00 13.825 C 11.22 g/m*3 13.83 C 0 km/h
Sensor: Nr:Datum:Temp:Abs-Feuchte:Windchill:Wind:
Aussen-T/F 776 09-07-2013 07:00:00 14.48333 C 11.72 g/m*3 14.48 C 0 km/h
777 09-07-2013 08:00:00 16.89167 C 12.75 g/m*3 16.89 C 0 km/h
778 09-07-2013 09:00:00 18.05 C 13.24 g/m*3 18.05 C 0 km/h
779 09-07-2013 10:00:00 20.28333 C 14.04 g/m*3 20.28 C 1.06667 km/h
780 09-07-2013 11:00:00 22.91667 C 14.73 g/m*3 22.92 C 2.66667 km/h
781 09-07-2013 12:00:00 23.43333 C 14.98 g/m*3 23.43 C 2.13333 km/h
782 09-07-2013 13:00:00 26.93333 C 13.35 g/m*3 26.93 C 7.51667 km/h
783 09-07-2013 14:00:00 27.78333 C 12.38 g/m*3 27.78 C 9.29167 km/h
784 09-07-2013 15:00:00 28.51667 C 12.45 g/m*3 28.52 C 9.275 km/h
785 09-07-2013 16:00:00 28.95833 C 12.32 g/m*3 28.96 C 8.86667 km/h
786 09-07-2013 17:00:00 28.81667 C 12.44 g/m*3 28.82 C 8.45833 km/h
787 09-07-2013 18:00:00 28.58333 C 13.31 g/m*3 28.58 C 6.025 km/h
788 09-07-2013 19:00:00 25.53333 C 15.28 g/m*3 25.53 C 2 km/h
789 09-07-2013 20:00:00 21.55 C 14.58 g/m*3 21.55 C 2 km/h
790 09-07-2013 21:00:00 20.075 C 13.76 g/m*3 20.08 C 0.26667 km/h
791 09-07-2013 22:00:00 19.16667 C 13.48 g/m*3 19.17 C 0 km/h
792 09-07-2013 23:00:00 18.58333 C 13.45 g/m*3 18.58 C 0 km/h
793 10-07-2013 00:00:00 17.925 C 13.6 g/m*3 17.93 C 0 km/h
794 10-07-2013 01:00:00 17.175 C 13.28 g/m*3 17.18 C 0 km/h
795 10-07-2013 02:00:00 16.625 C 13.03 g/m*3 16.63 C 0.13333 km/h
796 10-07-2013 03:00:00 16.75 C 12.92 g/m*3 16.75 C 0.8 km/h
797 10-07-2013 04:00:00 16.075 C 12.32 g/m*3 16.08 C 0 km/h
798 10-07-2013 05:00:00 15.50833 C 11.83 g/m*3 15.51 C 0 km/h
799 10-07-2013 06:00:00 15.85 C 11.66 g/m*3 15.85 C 1.33333 km/h
800 10-07-2013 07:00:00 16.30833 C 11.95 g/m*3 16.31 C 0.8 km/h
Sensor: Nr:Datum:Temp:Abs-Feuchte:Windchill:Wind:
Aussen-T/F 801 10-07-2013 08:00:00 17.70833 C 12.32 g/m*3 17.71 C 2.4 km/h
802 10-07-2013 09:00:00 19.10833 C 12.25 g/m*3 19.11 C 3.875 km/h
803 10-07-2013 10:00:00 20.98333 C 12.67 g/m*3 20.98 C 6.43333 km/h
804 10-07-2013 11:00:00 22.48333 C 12.7 g/m*3 22.48 C 10.5 km/h
805 10-07-2013 12:00:00 23.65 C 11.7 g/m*3 23.65 C 11.03333 km/h
806 10-07-2013 13:00:00 24.50833 C 13.01 g/m*3 24.51 C 12.5 km/h
807 10-07-2013 14:00:00 25.375 C 13.3 g/m*3 25.38 C 12.5 km/h
808 10-07-2013 15:00:00 25.64167 C 12.89 g/m*3 25.64 C 13.03333 km/h
809 10-07-2013 16:00:00 25.84167 C 12.63 g/m*3 25.84 C 13.16667 km/h
810 10-07-2013 17:00:00 25.30833 C 12.51 g/m*3 25.31 C 12.76667 km/h
811 10-07-2013 18:00:00 23.95833 C 12.75 g/m*3 23.96 C 16.9 km/h
812 10-07-2013 19:00:00 22.46667 C 12.26 g/m*3 22.47 C 13.16667 km/h
813 10-07-2013 20:00:00 20.675 C 11.56 g/m*3 20.68 C 7.375 km/h
814 10-07-2013 21:00:00 19.05 C 11.17 g/m*3 19.05 C 4.15833 km/h
815 10-07-2013 22:00:00 17.05 C 11.02 g/m*3 17.05 C 2.13333 km/h
816 10-07-2013 23:00:00 16.925 C 10.73 g/m*3 16.93 C 6.84167 km/h
817 11-07-2013 00:00:00 15.93333 C 10.22 g/m*3 15.93 C 8.2 km/h
818 11-07-2013 01:00:00 15.275 C 9.5 g/m*3 15.28 C 7.24167 km/h
819 11-07-2013 02:00:00 14.10833 C 9.11 g/m*3 14.11 C 3.33333 km/h
820 11-07-2013 03:00:00 14.05833 C 9.17 g/m*3 14.06 C 4.13333 km/h
821 11-07-2013 04:00:00 14.28333 C 8.91 g/m*3 14.28 C 6.7 km/h
822 11-07-2013 05:00:00 14.05 C 8.7 g/m*3 14.05 C 8.9 km/h
823 11-07-2013 06:00:00 13.83333 C 8.74 g/m*3 13.83 C 6.69167 km/h
824 11-07-2013 07:00:00 14.30833 C 9.14 g/m*3 14.31 C 5.35833 km/h
825 11-07-2013 08:00:00 15.20833 C 9.69 g/m*3 15.21 C 7.10833 km/h
Sensor: Nr:Datum:Temp:Abs-Feuchte:Windchill:Wind:
Aussen-T/F 826 11-07-2013 09:00:00 15.83333 C 9.87 g/m*3 15.83 C 6.15833 km/h
827 11-07-2013 10:00:00 17.04167 C 10.2 g/m*3 17.04 C 6.56667 km/h
828 11-07-2013 11:00:00 17.63333 C 10.34 g/m*3 17.63 C 9.01667 km/h
829 11-07-2013 12:00:00 18.64167 C 10.77 g/m*3 18.64 C 9.56667 km/h
830 11-07-2013 13:00:00 19.375 C 10.61 g/m*3 19.38 C 10.36667 km/h
831 11-07-2013 14:00:00 19.71667 C 10.88 g/m*3 19.72 C 11.56667 km/h
832 11-07-2013 15:00:00 20.3 C 10.86 g/m*3 20.3 C 11.16667 km/h
833 11-07-2013 16:00:00 21.76667 C 10.9 g/m*3 21.77 C 11.7 km/h
834 11-07-2013 17:00:00 21.65833 C 11.02 g/m*3 21.66 C 11.7 km/h
835 11-07-2013 18:00:00 21.04167 C 10.82 g/m*3 21.04 C 12.9 km/h
836 11-07-2013 19:00:00 20.08333 C 10.78 g/m*3 20.08 C 10.35833 km/h
837 11-07-2013 20:00:00 18.575 C 10.61 g/m*3 18.58 C 9.28333 km/h
838 11-07-2013 21:00:00 17.25 C 10.48 g/m*3 17.25 C 4.15 km/h
839 11-07-2013 22:00:00 15.78333 C 10.37 g/m*3 15.78 C 3.6 km/h
840 11-07-2013 23:00:00 14.74167 C 10.11 g/m*3 14.74 C 0.8 km/h
841 12-07-2013 00:00:00 13.21667 C 9.85 g/m*3 13.22 C 0 km/h
842 12-07-2013 01:00:00 12.49167 C 9.69 g/m*3 12.49 C 0 km/h
843 12-07-2013 02:00:00 11.89167 C 9.52 g/m*3 11.89 C 0 km/h
844 12-07-2013 03:00:00 11.36667 C 9.41 g/m*3 11.37 C 0 km/h
845 12-07-2013 04:00:00 11.025 C 9.32 g/m*3 11.03 C 0 km/h
846 12-07-2013 05:00:00 10.53333 C 9.1 g/m*3 10.53 C 0 km/h
847 12-07-2013 06:00:00 10.53333 C 9.2 g/m*3 10.53 C 0.4 km/h
848 12-07-2013 07:00:00 11.16667 C 9.59 g/m*3 11.17 C 0 km/h
849 12-07-2013 08:00:00 13.49167 C 10.43 g/m*3 13.49 C 0.26667 km/h
850 12-07-2013 09:00:00 15.14167 C 10.85 g/m*3 15.14 C 1.33333 km/h
Sensor: Nr:Datum:Temp:Abs-Feuchte:Windchill:Wind:
Aussen-T/F 851 12-07-2013 10:00:00 17.40833 C 11.44 g/m*3 17.41 C 3.6 km/h
852 12-07-2013 11:00:00 19.30833 C 11.45 g/m*3 19.31 C 4.4 km/h
853 12-07-2013 12:00:00 21.025 C 11.22 g/m*3 21.03 C 5.08333 km/h
854 12-07-2013 13:00:00 21.96667 C 11.11 g/m*3 21.97 C 7.38333 km/h
855 12-07-2013 14:00:00 22.19167 C 10.68 g/m*3 22.19 C 9.29167 km/h
856 12-07-2013 15:00:00 22.98333 C 10.78 g/m*3 22.98 C 9.00833 km/h
857 12-07-2013 16:00:00 23.48333 C 10.48 g/m*3 23.48 C 9.03333 km/h
858 12-07-2013 17:00:00 23.46667 C 10.75 g/m*3 23.47 C 10.48333 km/h
859 12-07-2013 18:00:00 22.675 C 10.76 g/m*3 22.68 C 10.23333 km/h
860 12-07-2013 19:00:00 21.75833 C 10.69 g/m*3 21.76 C 9.41667 km/h
861 12-07-2013 20:00:00 19.91667 C 10.32 g/m*3 19.92 C 8.45833 km/h
862 12-07-2013 21:00:00 17.86667 C 10.13 g/m*3 17.87 C 5.23333 km/h
863 12-07-2013 22:00:00 16.20833 C 10.23 g/m*3 16.21 C 3.34167 km/h
864 12-07-2013 23:00:00 14.69167 C 10.25 g/m*3 14.69 C 0.66667 km/h
865 13-07-2013 00:00:00 13.83333 C 10.1 g/m*3 13.83 C 0.26667 km/h
866 13-07-2013 01:00:00 13.33333 C 9.87 g/m*3 13.33 C 0.93333 km/h
867 13-07-2013 02:00:00 12.45 C 9.69 g/m*3 12.45 C 0 km/h
868 13-07-2013 03:00:00 11.66667 C 9.48 g/m*3 11.67 C 0 km/h
869 13-07-2013 04:00:00 11.2 C 9.37 g/m*3 11.2 C 0.13333 km/h
870 13-07-2013 05:00:00 10.775 C 9.21 g/m*3 10.78 C 0 km/h
871 13-07-2013 06:00:00 10.75833 C 9.28 g/m*3 10.76 C 0 km/h
872 13-07-2013 07:00:00 11.45 C 9.73 g/m*3 11.45 C 0 km/h
873 13-07-2013 08:00:00 13.84167 C 10.62 g/m*3 13.84 C 0.26667 km/h
874 13-07-2013 09:00:00 15.43333 C 10.94 g/m*3 15.43 C 1.46667 km/h
875 13-07-2013 10:00:00 17.6 C 11.4 g/m*3 17.6 C 2.93333 km/h
Sensor: Nr:Datum:Temp:Abs-Feuchte:Windchill:Wind:
Aussen-T/F 876 13-07-2013 11:00:00 19.79167 C 11.52 g/m*3 19.79 C 6.85 km/h
877 13-07-2013 12:00:00 21.075 C 11.81 g/m*3 21.08 C 7.51667 km/h
878 13-07-2013 13:00:00 22.55833 C 11.69 g/m*3 22.56 C 7.93333 km/h
879 13-07-2013 14:00:00 22.88333 C 11.31 g/m*3 22.88 C 8.19167 km/h
880 13-07-2013 15:00:00 23.525 C 11.49 g/m*3 23.53 C 10.36667 km/h
881 13-07-2013 16:00:00 23.19167 C 11.19 g/m*3 23.19 C 12.36667 km/h
882 13-07-2013 17:00:00 23.3 C 11.31 g/m*3 23.3 C 10.76667 km/h
883 13-07-2013 18:00:00 22.825 C 11.02 g/m*3 22.83 C 9.95833 km/h
884 13-07-2013 19:00:00 22.11667 C 10.88 g/m*3 22.12 C 9.41667 km/h
885 13-07-2013 20:00:00 20.7 C 10.89 g/m*3 20.7 C 6.43333 km/h
886 13-07-2013 21:00:00 18.375 C 11.16 g/m*3 18.38 C 3.2 km/h
887 13-07-2013 22:00:00 16.31667 C 11.09 g/m*3 16.32 C 0.13333 km/h
888 13-07-2013 23:00:00 15.34167 C 10.9 g/m*3 15.34 C 0 km/h
889 14-07-2013 00:00:00 14.21667 C 10.59 g/m*3 14.22 C 0 km/h
890 14-07-2013 01:00:00 13.225 C 10.32 g/m*3 13.23 C 0 km/h
891 14-07-2013 02:00:00 12.65 C 10.14 g/m*3 12.65 C 0 km/h
892 14-07-2013 03:00:00 12.175 C 9.99 g/m*3 12.18 C 0 km/h
893 14-07-2013 04:00:00 11.70833 C 9.81 g/m*3 11.71 C 0 km/h
894 14-07-2013 05:00:00 11.24167 C 9.59 g/m*3 11.24 C 0.4 km/h
895 14-07-2013 06:00:00 11.1 C 9.57 g/m*3 11.1 C 0.8 km/h
896 14-07-2013 07:00:00 11.525 C 9.83 g/m*3 11.53 C 2.66667 km/h
897 14-07-2013 08:00:00 13.69167 C 10.75 g/m*3 13.69 C 0.53333 km/h
898 14-07-2013 09:00:00 15.91667 C 11.69 g/m*3 15.92 C 0.4 km/h
899 14-07-2013 10:00:00 18.34167 C 12.28 g/m*3 18.34 C 2.26667 km/h
900 14-07-2013 11:00:00 20.725 C 12 g/m*3 20.73 C 7.50833 km/h
Sensor: Nr:Datum:Temp:Abs-Feuchte:Windchill:Wind:
Aussen-T/F 901 14-07-2013 12:00:00 22.44167 C 12.19 g/m*3 22.44 C 7.8 km/h
902 14-07-2013 13:00:00 23.56667 C 12.22 g/m*3 23.57 C 8.2 km/h
903 14-07-2013 14:00:00 24.73333 C 12.38 g/m*3 24.73 C 7.93333 km/h
904 14-07-2013 15:00:00 25.2 C 12.45 g/m*3 25.2 C 8.9 km/h
905 14-07-2013 16:00:00 25.21667 C 12.41 g/m*3 25.22 C 11.96667 km/h
906 14-07-2013 17:00:00 25.025 C 12.35 g/m*3 25.03 C 11.7 km/h
907 14-07-2013 18:00:00 24.89167 C 12.55 g/m*3 24.89 C 10.5 km/h
908 14-07-2013 19:00:00 23.6 C 11.75 g/m*3 23.6 C 9.825 km/h
909 14-07-2013 20:00:00 22.33333 C 11.77 g/m*3 22.33 C 8.2 km/h
910 14-07-2013 21:00:00 20.225 C 11.92 g/m*3 20.23 C 2.66667 km/h
911 14-07-2013 22:00:00 18.58333 C 11.47 g/m*3 18.58 C 4.66667 km/h
912 14-07-2013 23:00:00 16.9 C 11.3 g/m*3 16.9 C 1.46667 km/h
913 15-07-2013 00:00:00 15.55 C 11.12 g/m*3 15.55 C 1.46667 km/h
914 15-07-2013 01:00:00 14.50833 C 10.9 g/m*3 14.51 C 0.13333 km/h
915 15-07-2013 02:00:00 13.85 C 10.7 g/m*3 13.85 C 0 km/h
916 15-07-2013 03:00:00 13.09167 C 10.45 g/m*3 13.09 C 0 km/h
917 15-07-2013 04:00:00 12.55 C 10.27 g/m*3 12.55 C 0 km/h
918 15-07-2013 05:00:00 12.16667 C 10.1 g/m*3 12.17 C 0.13333 km/h
919 15-07-2013 06:00:00 12.10833 C 10.13 g/m*3 12.11 C 0.13333 km/h
920 15-07-2013 07:00:00 12.74167 C 10.47 g/m*3 12.74 C 2 km/h
921 15-07-2013 08:00:00 14.825 C 11.12 g/m*3 14.83 C 2.8 km/h
922 15-07-2013 09:00:00 16.78333 C 11.46 g/m*3 16.78 C 3.06667 km/h
923 15-07-2013 10:00:00 18.79167 C 12.18 g/m*3 18.79 C 1.46667 km/h
924 15-07-2013 11:00:00 21.05833 C 12.5 g/m*3 21.06 C 2.93333 km/h
925 15-07-2013 12:00:00 23.00833 C 12.53 g/m*3 23.01 C 4 km/h
Sensor: Nr:Datum:Temp:Abs-Feuchte:Windchill:Wind:
Aussen-T/F 926 15-07-2013 13:00:00 24.35 C 12.69 g/m*3 24.35 C 5.34167 km/h
927 15-07-2013 14:00:00 25.45833 C 12.3 g/m*3 25.46 C 6.55833 km/h
928 15-07-2013 15:00:00 26.41667 C 11.9 g/m*3 26.42 C 5.75833 km/h
929 15-07-2013 16:00:00 26.675 C 12.41 g/m*3 26.68 C 5.75833 km/h
930 15-07-2013 17:00:00 26.34167 C 12.84 g/m*3 26.34 C 4.96667 km/h
931 15-07-2013 18:00:00 24.54167 C 13.96 g/m*3 24.54 C 2.26667 km/h
932 15-07-2013 19:00:00 22.8 C 14.44 g/m*3 22.8 C 1.6 km/h
933 15-07-2013 20:00:00 21.23333 C 13.9 g/m*3 21.23 C 0.4 km/h
934 15-07-2013 21:00:00 18.99167 C 12.85 g/m*3 18.99 C 0.66667 km/h
935 15-07-2013 22:00:00 17.95833 C 12.35 g/m*3 17.96 C 0 km/h
936 15-07-2013 23:00:00 16.71667 C 11.71 g/m*3 16.72 C 0 km/h
937 16-07-2013 00:00:00 15.775 C 11.35 g/m*3 15.78 C 0 km/h
938 16-07-2013 01:00:00 15.34167 C 11.52 g/m*3 15.34 C 0.66667 km/h
939 16-07-2013 02:00:00 14.64167 C 11.37 g/m*3 14.64 C 0.13333 km/h
940 16-07-2013 03:00:00 13.91667 C 11.11 g/m*3 13.92 C 0.13333 km/h
941 16-07-2013 04:00:00 13.43333 C 10.95 g/m*3 13.43 C 0.26667 km/h
942 16-07-2013 05:00:00 13.04167 C 10.74 g/m*3 13.04 C 0 km/h
943 16-07-2013 06:00:00 13.00833 C 10.78 g/m*3 13.01 C 0.13333 km/h
944 16-07-2013 07:00:00 13.60833 C 11.17 g/m*3 13.61 C 0.13333 km/h
945 16-07-2013 08:00:00 15.71667 C 12.04 g/m*3 15.72 C 0.13333 km/h
946 16-07-2013 09:00:00 17.29167 C 12.75 g/m*3 17.29 C 0.4 km/h
947 16-07-2013 10:00:00 19.45833 C 13.63 g/m*3 19.46 C 0.93333 km/h
948 16-07-2013 11:00:00 21.29167 C 14.08 g/m*3 21.29 C 1.86667 km/h
949 16-07-2013 12:00:00 22.85833 C 13.83 g/m*3 22.86 C 2.66667 km/h
950 16-07-2013 13:00:00 25.79167 C 12.07 g/m*3 25.79 C 4.28333 km/h
Sensor: Nr:Datum:Temp:Abs-Feuchte:Windchill:Wind:
Aussen-T/F 951 16-07-2013 14:00:00 27.19167 C 12.09 g/m*3 27.19 C 6.3 km/h
952 16-07-2013 15:00:00 27.88333 C 11.55 g/m*3 27.88 C 7.24167 km/h
953 16-07-2013 16:00:00 28.5 C 11.83 g/m*3 28.5 C 6.56667 km/h
954 16-07-2013 17:00:00 28.71667 C 11.81 g/m*3 28.72 C 8.05 km/h
955 16-07-2013 18:00:00 28.55 C 11.61 g/m*3 28.55 C 6.96667 km/h
956 16-07-2013 19:00:00 28.24167 C 11.39 g/m*3 28.24 C 6.15833 km/h
957 16-07-2013 20:00:00 23.65833 C 13.25 g/m*3 23.66 C 2.13333 km/h
958 16-07-2013 21:00:00 19.9 C 12.36 g/m*3 19.9 C 1.46667 km/h
959 16-07-2013 22:00:00 18.66667 C 12.09 g/m*3 18.67 C 0 km/h
960 16-07-2013 23:00:00 17.94167 C 11.98 g/m*3 17.94 C 0.13333 km/h
961 17-07-2013 00:00:00 16.88333 C 11.83 g/m*3 16.88 C 0 km/h
962 17-07-2013 01:00:00 15.93333 C 11.55 g/m*3 15.93 C 0 km/h
963 17-07-2013 02:00:00 15.24167 C 11.42 g/m*3 15.24 C 0.26667 km/h
964 17-07-2013 03:00:00 14.71667 C 11.25 g/m*3 14.72 C 0 km/h
965 17-07-2013 04:00:00 14.10833 C 11.06 g/m*3 14.11 C 0 km/h
966 17-07-2013 05:00:00 13.73333 C 10.95 g/m*3 13.73 C 0.13333 km/h
967 17-07-2013 06:00:00 13.65 C 10.98 g/m*3 13.65 C 0 km/h
968 17-07-2013 07:00:00 14.21667 C 11.41 g/m*3 14.22 C 0 km/h
969 17-07-2013 08:00:00 16.49167 C 12.39 g/m*3 16.49 C 0.13333 km/h
970 17-07-2013 09:00:00 17.65833 C 12.83 g/m*3 17.66 C 0.13333 km/h
971 17-07-2013 10:00:00 19.68333 C 13.7 g/m*3 19.68 C 1.06667 km/h
972 17-07-2013 11:00:00 22.13333 C 14.24 g/m*3 22.13 C 2.13333 km/h
973 17-07-2013 12:00:00 25.75 C 13.8 g/m*3 25.75 C 7.13333 km/h
974 17-07-2013 13:00:00 26.75 C 13.52 g/m*3 26.75 C 5.08333 km/h
975 17-07-2013 14:00:00 27.53333 C 13.01 g/m*3 27.53 C 5.48333 km/h
Sensor: Nr:Datum:Temp:Abs-Feuchte:Windchill:Wind:
Aussen-T/F 976 17-07-2013 15:00:00 27.175 C 13.1 g/m*3 27.18 C 5.35 km/h
977 17-07-2013 16:00:00 26.64167 C 14.42 g/m*3 26.64 C 2.4 km/h
978 17-07-2013 17:00:00 29.26667 C 11.75 g/m*3 29.27 C 7.25 km/h
979 17-07-2013 18:00:00 25.725 C 14.38 g/m*3 25.73 C 1.46667 km/h
980 17-07-2013 19:00:00 22.25833 C 13.99 g/m*3 22.26 C 1.33333 km/h
981 17-07-2013 20:00:00 22.16667 C 14.06 g/m*3 22.17 C 0.26667 km/h
982 17-07-2013 21:00:00 20.96667 C 14.09 g/m*3 20.97 C 0.4 km/h
983 17-07-2013 22:00:00 19.69167 C 13.56 g/m*3 19.69 C 0.13333 km/h
984 17-07-2013 23:00:00 18.8 C 13.06 g/m*3 18.8 C 0 km/h
985 18-07-2013 00:00:00 17.81667 C 12.57 g/m*3 17.82 C 0 km/h
986 18-07-2013 01:00:00 17.08333 C 12.37 g/m*3 17.08 C 0 km/h
987 18-07-2013 02:00:00 16.425 C 12.17 g/m*3 16.43 C 0 km/h
988 18-07-2013 03:00:00 15.725 C 11.97 g/m*3 15.73 C 0 km/h
989 18-07-2013 04:00:00 15.23333 C 11.87 g/m*3 15.23 C 0 km/h
990 18-07-2013 05:00:00 14.725 C 11.66 g/m*3 14.73 C 0 km/h
991 18-07-2013 06:00:00 14.59167 C 11.74 g/m*3 14.59 C 0 km/h
992 18-07-2013 07:00:00 14.94167 C 12.01 g/m*3 14.94 C 0 km/h
993 18-07-2013 08:00:00 16.86667 C 13.05 g/m*3 16.87 C 0 km/h
994 18-07-2013 09:00:00 18.75833 C 14.02 g/m*3 18.76 C 0.26667 km/h
995 18-07-2013 10:00:00 20.875 C 14.79 g/m*3 20.88 C 0.8 km/h
996 18-07-2013 11:00:00 25.41667 C 14.59 g/m*3 25.42 C 5.48333 km/h
997 18-07-2013 12:00:00 27.31667 C 13.18 g/m*3 27.32 C 9.66667 km/h
998 18-07-2013 13:00:00 28.46667 C 12.65 g/m*3 28.47 C 11.3 km/h
999 18-07-2013 14:00:00 29.3 C 12.51 g/m*3 29.3 C 9.275 km/h
1000 18-07-2013 15:00:00 29.89167 C 11.61 g/m*3 29.89 C 9.28333 km/h
Sensor: Nr:Datum:Temp:Abs-Feuchte:Windchill:Wind:
Aussen-T/F 1001 18-07-2013 16:00:00 30.53333 C 12.15 g/m*3 30.53 C 9.01667 km/h
1002 18-07-2013 17:00:00 30.95833 C 12.05 g/m*3 30.96 C 8.06667 km/h
1003 18-07-2013 18:00:00 30.50833 C 12.55 g/m*3 30.51 C 5.35 km/h
1004 18-07-2013 19:00:00 25.35833 C 14.46 g/m*3 25.36 C 1.33333 km/h
1005 18-07-2013 20:00:00 22.45 C 13.68 g/m*3 22.45 C 1.6 km/h
1006 18-07-2013 21:00:00 21.275 C 12.32 g/m*3 21.28 C 1.6 km/h
1007 18-07-2013 22:00:00 20.40833 C 12.32 g/m*3 20.41 C 0.13333 km/h
1008 18-07-2013 23:00:00 19.41667 C 12.64 g/m*3 19.42 C 0 km/h
1009 19-07-2013 00:00:00 18.63333 C 12.33 g/m*3 18.63 C 0 km/h
1010 19-07-2013 01:00:00 17.74167 C 12.13 g/m*3 17.74 C 0 km/h
1011 19-07-2013 02:00:00 16.5 C 11.78 g/m*3 16.5 C 0 km/h
1012 19-07-2013 03:00:00 15.79167 C 11.72 g/m*3 15.79 C 0 km/h
1013 19-07-2013 04:00:00 15.20833 C 11.53 g/m*3 15.21 C 0 km/h
1014 19-07-2013 05:00:00 14.61667 C 11.36 g/m*3 14.62 C 0.13333 km/h
1015 19-07-2013 06:00:00 14.39167 C 11.44 g/m*3 14.39 C 0 km/h
1016 19-07-2013 07:00:00 15.05833 C 11.96 g/m*3 15.06 C 0 km/h
1017 19-07-2013 08:00:00 17.35833 C 12.81 g/m*3 17.36 C 0 km/h
1018 19-07-2013 09:00:00 18.61667 C 13.38 g/m*3 18.62 C 0.4 km/h
1019 19-07-2013 10:00:00 20.29167 C 14.08 g/m*3 20.29 C 1.20833 km/h
1020 19-07-2013 11:00:00 23.625 C 14.8 g/m*3 23.63 C 3.475 km/h
1021 19-07-2013 12:00:00 27.03333 C 12.96 g/m*3 27.03 C 7.375 km/h
1022 19-07-2013 13:00:00 28.11667 C 13.09 g/m*3 28.12 C 7.38333 km/h
1023 19-07-2013 14:00:00 28.63333 C 12.36 g/m*3 28.63 C 8.74167 km/h
1024 19-07-2013 15:00:00 29.21667 C 12.11 g/m*3 29.22 C 10.09167 km/h
1025 19-07-2013 16:00:00 29.8 C 12.5 g/m*3 29.8 C 10.09167 km/h
Sensor: Nr:Datum:Temp:Abs-Feuchte:Windchill:Wind:
Aussen-T/F 1026 19-07-2013 17:00:00 29.73333 C 12.4 g/m*3 29.73 C 9.7 km/h
1027 19-07-2013 18:00:00 29.89167 C 12.49 g/m*3 29.89 C 13.3 km/h
1028 19-07-2013 19:00:00 28.31667 C 12.41 g/m*3 28.32 C 12.1 km/h
1029 19-07-2013 20:00:00 26.175 C 12.31 g/m*3 26.18 C 9.7 km/h
1030 19-07-2013 21:00:00 24.6 C 12.15 g/m*3 24.6 C 7.39167 km/h
1031 19-07-2013 22:00:00 22.075 C 12.65 g/m*3 22.08 C 1.46667 km/h
1032 19-07-2013 23:00:00 19.61667 C 12.63 g/m*3 19.62 C 0.26667 km/h
1033 20-07-2013 00:00:00 18.69167 C 12.5 g/m*3 18.69 C 0 km/h
1034 20-07-2013 01:00:00 17.90833 C 12.32 g/m*3 17.91 C 0 km/h
1035 20-07-2013 02:00:00 17.13333 C 12.15 g/m*3 17.13 C 0 km/h
1036 20-07-2013 03:00:00 16.125 C 11.85 g/m*3 16.13 C 0 km/h
1037 20-07-2013 04:00:00 15.2 C 11.57 g/m*3 15.2 C 0 km/h
1038 20-07-2013 05:00:00 14.69167 C 11.48 g/m*3 14.69 C 0 km/h
1039 20-07-2013 06:00:00 14.40833 C 11.46 g/m*3 14.41 C 0 km/h
1040 20-07-2013 07:00:00 14.89167 C 11.83 g/m*3 14.89 C 0 km/h
1041 20-07-2013 08:00:00 16.70833 C 12.49 g/m*3 16.71 C 0 km/h
1042 20-07-2013 09:00:00 17.80833 C 12.93 g/m*3 17.81 C 0.66667 km/h
1043 20-07-2013 10:00:00 20.5 C 13.11 g/m*3 20.5 C 2.80833 km/h
1044 20-07-2013 11:00:00 23.325 C 12.72 g/m*3 23.33 C 6.43333 km/h
1045 20-07-2013 12:00:00 24.65833 C 12.68 g/m*3 24.66 C 7.65833 km/h
1046 20-07-2013 13:00:00 25.93333 C 12.79 g/m*3 25.93 C 6.425 km/h
1047 20-07-2013 14:00:00 27.06667 C 12.72 g/m*3 27.07 C 8.74167 km/h
1048 20-07-2013 15:00:00 28.09167 C 12.91 g/m*3 28.09 C 8.475 km/h
1049 20-07-2013 16:00:00 28.75 C 12.94 g/m*3 28.75 C 8.875 km/h
1050 20-07-2013 17:00:00 29.10833 C 13.17 g/m*3 29.11 C 8.48333 km/h
Sensor: Nr:Datum:Temp:Abs-Feuchte:Windchill:Wind:
Aussen-T/F 1051 20-07-2013 18:00:00 29.03333 C 13.26 g/m*3 29.03 C 7.38333 km/h
1052 20-07-2013 19:00:00 27.875 C 13.12 g/m*3 27.88 C 6.96667 km/h
1053 20-07-2013 20:00:00 24.6 C 13.3 g/m*3 24.6 C 2.40833 km/h
1054 20-07-2013 21:00:00 20.60833 C 12.27 g/m*3 20.61 C 1.33333 km/h
1055 20-07-2013 22:00:00 19.575 C 12.04 g/m*3 19.58 C 0 km/h
1056 20-07-2013 23:00:00 18.76667 C 12.36 g/m*3 18.77 C 0.53333 km/h
1057 21-07-2013 00:00:00 17.74167 C 12.3 g/m*3 17.74 C 0.13333 km/h
1058 21-07-2013 01:00:00 17.16667 C 12.23 g/m*3 17.17 C 0 km/h
1059 21-07-2013 02:00:00 16.43333 C 11.93 g/m*3 16.43 C 0 km/h
1060 21-07-2013 03:00:00 15.60833 C 11.73 g/m*3 15.61 C 0 km/h
1061 21-07-2013 04:00:00 15.10833 C 11.63 g/m*3 15.11 C 0 km/h
1062 21-07-2013 05:00:00 14.6 C 11.46 g/m*3 14.6 C 0 km/h
1063 21-07-2013 06:00:00 14.33333 C 11.4 g/m*3 14.33 C 0 km/h
1064 21-07-2013 07:00:00 14.75833 C 11.78 g/m*3 14.76 C 0 km/h
1065 21-07-2013 08:00:00 16.85833 C 12.8 g/m*3 16.86 C 0 km/h
1066 21-07-2013 09:00:00 18.60833 C 13.52 g/m*3 18.61 C 1.86667 km/h
1067 21-07-2013 10:00:00 21.75 C 14.25 g/m*3 21.75 C 3.06667 km/h
1068 21-07-2013 11:00:00 25.18333 C 14.57 g/m*3 25.18 C 5.20833 km/h
1069 21-07-2013 12:00:00 27.61667 C 14.4 g/m*3 27.62 C 8.74167 km/h
1070 21-07-2013 13:00:00 29.2 C 14.01 g/m*3 29.2 C 6.29167 km/h
1071 21-07-2013 14:00:00 30.66667 C 12.73 g/m*3 30.67 C 7.65 km/h
1072 21-07-2013 15:00:00 31.25833 C 12.41 g/m*3 31.26 C 7.65833 km/h
1073 21-07-2013 16:00:00 31.68333 C 12.03 g/m*3 31.68 C 7.25833 km/h
1074 21-07-2013 17:00:00 31.95833 C 12.07 g/m*3 31.96 C 5.89167 km/h
1075 21-07-2013 18:00:00 30.43333 C 14.38 g/m*3 30.43 C 2.54167 km/h
Sensor: Nr:Datum:Temp:Abs-Feuchte:Windchill:Wind:
Aussen-T/F 1076 21-07-2013 19:00:00 27.15833 C 15.23 g/m*3 27.16 C 1.46667 km/h
1077 21-07-2013 20:00:00 24.29167 C 14.78 g/m*3 24.29 C 1.2 km/h
1078 21-07-2013 21:00:00 22.125 C 13.47 g/m*3 22.13 C 1.6 km/h
1079 21-07-2013 22:00:00 21.08333 C 12.9 g/m*3 21.08 C 0.26667 km/h
1080 21-07-2013 23:00:00 19.7 C 12.68 g/m*3 19.7 C 0 km/h
1081 22-07-2013 00:00:00 18.6 C 12.32 g/m*3 18.6 C 0 km/h
1082 22-07-2013 01:00:00 17.78333 C 12.14 g/m*3 17.78 C 0 km/h
1083 22-07-2013 02:00:00 17.26667 C 12.35 g/m*3 17.27 C 0.26667 km/h
1084 22-07-2013 03:00:00 16.35 C 12.08 g/m*3 16.35 C 0 km/h
1085 22-07-2013 04:00:00 15.66667 C 11.94 g/m*3 15.67 C 0 km/h
1086 22-07-2013 05:00:00 15.25833 C 11.86 g/m*3 15.26 C 0.13333 km/h
1087 22-07-2013 06:00:00 15.03333 C 11.86 g/m*3 15.03 C 0 km/h
1088 22-07-2013 07:00:00 15.49167 C 12.17 g/m*3 15.49 C 0.13333 km/h
1089 22-07-2013 08:00:00 17.44167 C 12.99 g/m*3 17.44 C 0.13333 km/h
1090 22-07-2013 09:00:00 18.79167 C 13.72 g/m*3 18.79 C 0.53333 km/h
1091 22-07-2013 10:00:00 20.71667 C 15.09 g/m*3 20.72 C 0 km/h
1092 22-07-2013 11:00:00 22.90833 C 16.02 g/m*3 22.91 C 0.13333 km/h
1093 22-07-2013 12:00:00 25.075 C 16.37 g/m*3 25.08 C 1.06667 km/h
1094 22-07-2013 13:00:00 28.775 C 15.25 g/m*3 28.78 C 2.53333 km/h
1095 22-07-2013 14:00:00 31.88333 C 13.53 g/m*3 31.88 C 5.75 km/h
1096 22-07-2013 15:00:00 32.275 C 12.9 g/m*3 32.28 C 4.53333 km/h
1097 22-07-2013 16:00:00 32.675 C 12.07 g/m*3 32.67 C 4.01667 km/h
1098 22-07-2013 17:00:00 32.08333 C 12.04 g/m*3 32.08 C 4.4 km/h
1099 22-07-2013 18:00:00 28.3 C 15.04 g/m*3 28.3 C 1.46667 km/h
1100 22-07-2013 19:00:00 25.66667 C 14.98 g/m*3 25.67 C 1.73333 km/h
Sensor: Nr:Datum:Temp:Abs-Feuchte:Windchill:Wind:
Aussen-T/F 1101 22-07-2013 20:00:00 23.71667 C 13.68 g/m*3 23.72 C 0.93333 km/h
1102 22-07-2013 21:00:00 22.70833 C 13.59 g/m*3 22.71 C 0 km/h
1103 22-07-2013 22:00:00 21.95 C 13.43 g/m*3 21.95 C 0 km/h
1104 22-07-2013 23:00:00 21.55833 C 13.48 g/m*3 21.56 C 0.13333 km/h
1105 23-07-2013 00:00:00 21.34167 C 13.94 g/m*3 21.34 C 1.46667 km/h
1106 23-07-2013 01:00:00 21.125 C 14.3 g/m*3 21.13 C 0.66667 km/h
1107 23-07-2013 02:00:00 20.31667 C 14.32 g/m*3 20.32 C 1.33333 km/h
1108 23-07-2013 03:00:00 20.18333 C 14.5 g/m*3 20.18 C 1.2 km/h
1109 23-07-2013 04:00:00 18.63333 C 14.64 g/m*3 18.63 C 0.4 km/h
1110 23-07-2013 05:00:00 17.90833 C 14.31 g/m*3 17.91 C 0.53333 km/h
1111 23-07-2013 06:00:00 17.99167 C 14.47 g/m*3 17.99 C 0.53333 km/h
1112 23-07-2013 07:00:00 18.20833 C 14.8 g/m*3 18.21 C 0.66667 km/h
1113 23-07-2013 08:00:00 18.31667 C 15.02 g/m*3 18.32 C 0.66667 km/h
1114 23-07-2013 09:00:00 18.35 C 15.07 g/m*3 18.35 C 1.46667 km/h
1115 23-07-2013 10:00:00 18.95 C 15.76 g/m*3 18.95 C 0 km/h
1116 23-07-2013 11:00:00 20.05 C 16.65 g/m*3 20.05 C 0.13333 km/h
1117 23-07-2013 12:00:00 21.75 C 17.46 g/m*3 21.75 C 1.2 km/h
1118 23-07-2013 13:00:00 24.56667 C 18.83 g/m*3 24.57 C 2.93333 km/h
1119 23-07-2013 14:00:00 26.75 C 20.07 g/m*3 26.75 C 2 km/h
1120 23-07-2013 15:00:00 29.55833 C 19.05 g/m*3 29.56 C 4.26667 km/h
1121 23-07-2013 16:00:00 27.53333 C 18.86 g/m*3 27.53 C 1.73333 km/h
1122 23-07-2013 17:00:00 23.55833 C 18.35 g/m*3 23.56 C 2 km/h
1123 23-07-2013 18:00:00 22.60833 C 17.28 g/m*3 22.61 C 1.86667 km/h
1124 23-07-2013 19:00:00 22.15 C 16.88 g/m*3 22.15 C 2 km/h
1125 23-07-2013 20:00:00 21.80833 C 16.89 g/m*3 21.81 C 0.26667 km/h
Sensor: Nr:Datum:Temp:Abs-Feuchte:Windchill:Wind:
Aussen-T/F 1126 23-07-2013 21:00:00 21.00833 C 16.02 g/m*3 21.01 C 0.26667 km/h
1127 23-07-2013 22:00:00 20.39167 C 15.65 g/m*3 20.39 C 0.66667 km/h
1128 23-07-2013 23:00:00 19.91667 C 15.02 g/m*3 19.92 C 0 km/h
1129 24-07-2013 00:00:00 19.275 C 14.62 g/m*3 19.27 C 0 km/h
1130 24-07-2013 01:00:00 18.73333 C 14.33 g/m*3 18.73 C 0 km/h
1131 24-07-2013 02:00:00 18.15833 C 14.1 g/m*3 18.16 C 0 km/h
1132 24-07-2013 03:00:00 17.725 C 13.8 g/m*3 17.73 C 0.13333 km/h
1133 24-07-2013 04:00:00 17.33333 C 13.68 g/m*3 17.33 C 1.2 km/h
1134 24-07-2013 05:00:00 16.88333 C 13.43 g/m*3 16.88 C 0 km/h
1135 24-07-2013 06:00:00 16.79167 C 13.56 g/m*3 16.79 C 0 km/h
1136 24-07-2013 07:00:00 17.74167 C 14.14 g/m*3 17.74 C 1.73333 km/h
1137 24-07-2013 08:00:00 19.55 C 14.7 g/m*3 19.55 C 3.86667 km/h
1138 24-07-2013 09:00:00 21.30833 C 15.66 g/m*3 21.31 C 1.2 km/h
1139 24-07-2013 10:00:00 22.46667 C 15.63 g/m*3 22.47 C 5.61667 km/h
1140 24-07-2013 11:00:00 23.25833 C 16.11 g/m*3 23.26 C 5.74167 km/h
1141 24-07-2013 12:00:00 24.30833 C 15.41 g/m*3 24.31 C 8.86667 km/h
1142 24-07-2013 13:00:00 24.825 C 14.4 g/m*3 24.83 C 7.38333 km/h
1143 24-07-2013 14:00:00 24.2 C 14.14 g/m*3 24.2 C 7.10833 km/h
1144 24-07-2013 15:00:00 24.60833 C 14.24 g/m*3 24.61 C 8.74167 km/h
1145 24-07-2013 16:00:00 27.10833 C 14.56 g/m*3 27.11 C 6.425 km/h
1146 24-07-2013 17:00:00 27.59167 C 14.58 g/m*3 27.59 C 5.34167 km/h
1147 24-07-2013 18:00:00 25.16667 C 16.07 g/m*3 25.17 C 1.2 km/h
1148 24-07-2013 19:00:00 23.075 C 16.31 g/m*3 23.08 C 0.4 km/h
1149 24-07-2013 20:00:00 21.61667 C 15.73 g/m*3 21.62 C 0.26667 km/h
1150 24-07-2013 21:00:00 20.875 C 15.19 g/m*3 20.88 C 0 km/h
Sensor: Nr:Datum:Temp:Abs-Feuchte:Windchill:Wind:
Aussen-T/F 1151 24-07-2013 22:00:00 20.4 C 15.23 g/m*3 20.4 C 1.06667 km/h
1152 24-07-2013 23:00:00 19.63333 C 15.1 g/m*3 19.63 C 0 km/h
1153 25-07-2013 00:00:00 18.90833 C 14.79 g/m*3 18.91 C 0 km/h
1154 25-07-2013 01:00:00 18.025 C 14.37 g/m*3 18.02 C 0 km/h
1155 25-07-2013 02:00:00 17.525 C 14.05 g/m*3 17.52 C 0 km/h
1156 25-07-2013 03:00:00 17.025 C 13.77 g/m*3 17.02 C 0 km/h
1157 25-07-2013 04:00:00 16.58333 C 13.47 g/m*3 16.58 C 0 km/h
1158 25-07-2013 05:00:00 16.275 C 13.31 g/m*3 16.27 C 0.26667 km/h
1159 25-07-2013 06:00:00 16.64167 C 13.73 g/m*3 16.64 C 0.26667 km/h
1160 25-07-2013 07:00:00 16.76667 C 13.84 g/m*3 16.77 C 2.8 km/h
1161 25-07-2013 08:00:00 17.13333 C 14.11 g/m*3 17.13 C 3.73333 km/h
1162 25-07-2013 09:00:00 19.15 C 15.02 g/m*3 19.15 C 3.2 km/h
1163 25-07-2013 10:00:00 20.98333 C 16.14 g/m*3 20.98 C 0.13333 km/h
1164 25-07-2013 11:00:00 23.03333 C 17.3 g/m*3 23.03 C 0.4 km/h
1165 25-07-2013 12:00:00 24.725 C 16.83 g/m*3 24.73 C 7.39167 km/h
1166 25-07-2013 13:00:00 25.64167 C 16.74 g/m*3 25.64 C 10.49167 km/h
1167 25-07-2013 14:00:00 28.01667 C 16.69 g/m*3 28.02 C 7.65833 km/h
1168 25-07-2013 15:00:00 28.54167 C 16.55 g/m*3 28.54 C 6.71667 km/h
1169 25-07-2013 16:00:00 28.05 C 16.66 g/m*3 28.05 C 10.30833 km/h
1170 25-07-2013 17:00:00 25.3 C 15.7 g/m*3 25.3 C 8.59167 km/h
1171 25-07-2013 18:00:00 22.375 C 17.4 g/m*3 22.38 C 1.60833 km/h
1172 25-07-2013 19:00:00 22.54167 C 17.97 g/m*3 22.54 C 1.46667 km/h
1173 25-07-2013 20:00:00 20.6 C 16.85 g/m*3 20.6 C 0.26667 km/h
1174 25-07-2013 21:00:00 19.725 C 16.2 g/m*3 19.73 C 0.53333 km/h
1175 25-07-2013 22:00:00 18.98333 C 15.66 g/m*3 18.98 C 0.4 km/h
Sensor: Nr:Datum:Temp:Abs-Feuchte:Windchill:Wind:
Aussen-T/F 1176 25-07-2013 23:00:00 18.7 C 15.5 g/m*3 18.7 C 0 km/h
1177 26-07-2013 00:00:00 18.3 C 15.17 g/m*3 18.3 C 0 km/h
1178 26-07-2013 01:00:00 18.33333 C 15.21 g/m*3 18.33 C 0 km/h
1179 26-07-2013 02:00:00 18.55 C 15.47 g/m*3 18.55 C 0 km/h
1180 26-07-2013 03:00:00 18.28333 C 15.2 g/m*3 18.28 C 0 km/h
1181 26-07-2013 04:00:00 18.24167 C 15.27 g/m*3 18.24 C 0 km/h
1182 26-07-2013 05:00:00 18.275 C 15.3 g/m*3 18.27 C 0 km/h
1183 26-07-2013 06:00:00 18.43333 C 15.44 g/m*3 18.43 C 0 km/h
1184 26-07-2013 07:00:00 18.90833 C 15.88 g/m*3 18.91 C 0.13333 km/h
1185 26-07-2013 08:00:00 19.625 C 16.53 g/m*3 19.63 C 0 km/h
1186 26-07-2013 09:00:00 20.65833 C 17.27 g/m*3 20.66 C 0.94167 km/h
1187 26-07-2013 10:00:00 21.15 C 17.48 g/m*3 21.15 C 1.475 km/h
1188 26-07-2013 11:00:00 21.15833 C 17.81 g/m*3 21.16 C 0 km/h
1189 26-07-2013 12:00:00 21.84167 C 18.56 g/m*3 21.84 C 0.4 km/h
1190 26-07-2013 13:00:00 22.66667 C 18.91 g/m*3 22.67 C 0.93333 km/h
1191 26-07-2013 14:00:00 22.95 C 19.15 g/m*3 22.95 C 0 km/h
1192 26-07-2013 15:00:00 23.025 C 19.28 g/m*3 23.03 C 1.73333 km/h
1193 26-07-2013 16:00:00 23.475 C 19.89 g/m*3 23.48 C 1.2 km/h
1194 26-07-2013 17:00:00 26.39167 C 21.46 g/m*3 26.39 C 1.06667 km/h
1195 26-07-2013 18:00:00 25.94167 C 21.54 g/m*3 25.94 C 0 km/h
1196 26-07-2013 19:00:00 24.89167 C 20.92 g/m*3 24.89 C 0.26667 km/h
1197 26-07-2013 20:00:00 23.91667 C 20.12 g/m*3 23.92 C 0.26667 km/h
1198 26-07-2013 21:00:00 22.28333 C 18.71 g/m*3 22.28 C 0 km/h
1199 26-07-2013 22:00:00 21.68333 C 18.1 g/m*3 21.68 C 0 km/h
1200 26-07-2013 23:00:00 21.19167 C 17.78 g/m*3 21.19 C 0 km/h
Sensor: Nr:Datum:Temp:Abs-Feuchte:Windchill:Wind:
Aussen-T/F 1201 27-07-2013 00:00:00 20.74167 C 17.37 g/m*3 20.74 C 0 km/h
1202 27-07-2013 01:00:00 20.25 C 17.01 g/m*3 20.25 C 0 km/h
1203 27-07-2013 02:00:00 19.91667 C 16.68 g/m*3 19.92 C 0 km/h
1204 27-07-2013 03:00:00 19.65833 C 16.46 g/m*3 19.66 C 0.26667 km/h
1205 27-07-2013 04:00:00 19.54167 C 16.38 g/m*3 19.54 C 0.26667 km/h
1206 27-07-2013 05:00:00 19.475 C 16.41 g/m*3 19.48 C 0 km/h
1207 27-07-2013 06:00:00 19.20833 C 16.13 g/m*3 19.21 C 0 km/h
1208 27-07-2013 07:00:00 19.63333 C 16.58 g/m*3 19.63 C 0.26667 km/h
1209 27-07-2013 08:00:00 20.70833 C 17.4 g/m*3 20.71 C 0 km/h
1210 27-07-2013 09:00:00 21.34167 C 17.81 g/m*3 21.34 C 0 km/h
1211 27-07-2013 10:00:00 22.825 C 19.25 g/m*3 22.83 C 0 km/h
1212 27-07-2013 11:00:00 24.7 C 20.41 g/m*3 24.7 C 0.53333 km/h
1213 27-07-2013 12:00:00 27.68333 C 17.62 g/m*3 27.68 C 6.58333 km/h
1214 27-07-2013 13:00:00 26.01667 C 18.44 g/m*3 26.02 C 2.53333 km/h
1215 27-07-2013 14:00:00 28.625 C 18.93 g/m*3 28.63 C 3.625 km/h
1216 27-07-2013 15:00:00 28.63333 C 20.13 g/m*3 28.63 C 2.13333 km/h
1217 27-07-2013 16:00:00 30.55833 C 18.93 g/m*3 30.56 C 6.30833 km/h
1218 27-07-2013 17:00:00 30.48333 C 18.47 g/m*3 30.48 C 4.425 km/h
1219 27-07-2013 18:00:00 26.75833 C 19.17 g/m*3 26.76 C 2 km/h
1220 27-07-2013 19:00:00 26.1 C 19.24 g/m*3 26.1 C 1.2 km/h
1221 27-07-2013 20:00:00 24.675 C 18.27 g/m*3 24.68 C 1.33333 km/h
1222 27-07-2013 21:00:00 23.26667 C 16.99 g/m*3 23.27 C 0.26667 km/h
1223 27-07-2013 22:00:00 22.3 C 16.16 g/m*3 22.3 C 0 km/h
1224 27-07-2013 23:00:00 21.91667 C 16.08 g/m*3 21.92 C 0 km/h
1225 28-07-2013 00:00:00 23.275 C 15.55 g/m*3 23.28 C 8.58333 km/h
Sensor: Nr:Datum:Temp:Abs-Feuchte:Windchill:Wind:
Aussen-T/F 1226 28-07-2013 01:00:00 25.825 C 13.26 g/m*3 25.83 C 12.35 km/h
1227 28-07-2013 02:00:00 23.40833 C 14.17 g/m*3 23.41 C 5.50833 km/h
1228 28-07-2013 03:00:00 21.78333 C 14.71 g/m*3 21.78 C 0.93333 km/h
1229 28-07-2013 04:00:00 21.54167 C 14.3 g/m*3 21.54 C 3.2 km/h
1230 28-07-2013 05:00:00 20.98333 C 14.46 g/m*3 20.98 C 1.475 km/h
1231 28-07-2013 06:00:00 21.125 C 14.65 g/m*3 21.13 C 0.4 km/h
1232 28-07-2013 07:00:00 20.78333 C 15.42 g/m*3 20.78 C 0 km/h
1233 28-07-2013 08:00:00 21.73333 C 15.85 g/m*3 21.73 C 0.13333 km/h
1234 28-07-2013 09:00:00 23.4 C 15.63 g/m*3 23.4 C 6.70833 km/h
1235 28-07-2013 10:00:00 24.2 C 15.9 g/m*3 24.2 C 6.825 km/h
1236 28-07-2013 11:00:00 23.29167 C 16.32 g/m*3 23.29 C 5.10833 km/h
1237 28-07-2013 12:00:00 22.30833 C 17.09 g/m*3 22.31 C 0.94167 km/h
1238 28-07-2013 13:00:00 22.225 C 16.76 g/m*3 22.23 C 4.55833 km/h
1239 28-07-2013 14:00:00 22.10833 C 16.75 g/m*3 22.11 C 1.2 km/h
1240 28-07-2013 15:00:00 22.175 C 16.79 g/m*3 22.18 C 2.53333 km/h
1241 28-07-2013 16:00:00 21.425 C 16.74 g/m*3 21.43 C 0.66667 km/h
1242 28-07-2013 17:00:00 21.325 C 16.8 g/m*3 21.33 C 1.2 km/h
1243 28-07-2013 18:00:00 20.95 C 16.85 g/m*3 20.95 C 0.26667 km/h
1244 28-07-2013 19:00:00 20.775 C 16.62 g/m*3 20.78 C 0.8 km/h
1245 28-07-2013 20:00:00 21.01667 C 15.98 g/m*3 21.02 C 1.46667 km/h
1246 28-07-2013 21:00:00 19.24167 C 15.39 g/m*3 19.24 C 0 km/h
1247 28-07-2013 22:00:00 18.19167 C 14.75 g/m*3 18.19 C 0 km/h
1248 28-07-2013 23:00:00 17.7 C 14.36 g/m*3 17.7 C 0 km/h
1249 29-07-2013 00:00:00 17.45833 C 14.13 g/m*3 17.46 C 0 km/h
1250 29-07-2013 01:00:00 17.225 C 13.93 g/m*3 17.23 C 0.66667 km/h
Sensor: Nr:Datum:Temp:Abs-Feuchte:Windchill:Wind:
Aussen-T/F 1251 29-07-2013 02:00:00 17.01667 C 13.8 g/m*3 17.02 C 0.4 km/h
1252 29-07-2013 03:00:00 16.825 C 13.75 g/m*3 16.83 C 0 km/h
1253 29-07-2013 04:00:00 16.75 C 13.73 g/m*3 16.75 C 0.53333 km/h
1254 29-07-2013 05:00:00 17.90833 C 14.24 g/m*3 17.91 C 3.60833 km/h
1255 29-07-2013 06:00:00 18.36667 C 14.28 g/m*3 18.37 C 1.6 km/h
1256 29-07-2013 07:00:00 18.6 C 14.38 g/m*3 18.6 C 2.275 km/h
1257 29-07-2013 08:00:00 19.19167 C 14.64 g/m*3 19.19 C 3.89167 km/h
1258 29-07-2013 09:00:00 20.31667 C 14.6 g/m*3 20.32 C 8.625 km/h
1259 29-07-2013 10:00:00 21.26667 C 14.76 g/m*3 21.27 C 7.23333 km/h
1260 29-07-2013 11:00:00 23.06667 C 14.96 g/m*3 23.07 C 7.25833 km/h
1261 29-07-2013 12:00:00 24.16667 C 14.93 g/m*3 24.17 C 7.24167 km/h
1262 29-07-2013 13:00:00 23.81667 C 13.87 g/m*3 23.82 C 12.35833 km/h
1263 29-07-2013 14:00:00 18.93333 C 14.32 g/m*3 18.93 C 4.825 km/h
1264 29-07-2013 15:00:00 20.125 C 15.91 g/m*3 20.13 C 1.6 km/h
1265 29-07-2013 16:00:00 20.00833 C 15.78 g/m*3 20.01 C 0.53333 km/h
1266 29-07-2013 17:00:00 19.78333 C 16.08 g/m*3 19.78 C 0 km/h
1267 29-07-2013 18:00:00 20.29167 C 16.35 g/m*3 20.29 C 0 km/h
1268 29-07-2013 19:00:00 20.45833 C 16.4 g/m*3 20.46 C 0 km/h
1269 29-07-2013 20:00:00 19.85833 C 15.9 g/m*3 19.86 C 0 km/h
1270 29-07-2013 21:00:00 18.575 C 14.58 g/m*3 18.58 C 0.4 km/h
1271 29-07-2013 22:00:00 18.21667 C 13.91 g/m*3 18.22 C 0.93333 km/h
1272 29-07-2013 23:00:00 17.61667 C 13.35 g/m*3 17.62 C 0.53333 km/h
1273 30-07-2013 00:00:00 16.76667 C 12.9 g/m*3 16.77 C 0.8 km/h
1274 30-07-2013 01:00:00 17.20833 C 12.97 g/m*3 17.21 C 2 km/h
1275 30-07-2013 02:00:00 16.85833 C 13.06 g/m*3 16.86 C 1.06667 km/h
Sensor: Nr:Datum:Temp:Abs-Feuchte:Windchill:Wind:
Aussen-T/F 1276 30-07-2013 03:00:00 15.75 C 12.81 g/m*3 15.75 C 0.4 km/h
1277 30-07-2013 04:00:00 15.525 C 12.74 g/m*3 15.53 C 0.8 km/h
1278 30-07-2013 05:00:00 15.48333 C 12.6 g/m*3 15.48 C 2 km/h
1279 30-07-2013 06:00:00 15.33333 C 12.29 g/m*3 15.33 C 2.53333 km/h
1280 30-07-2013 07:00:00 15.90833 C 12.39 g/m*3 15.91 C 7.51667 km/h
1281 30-07-2013 08:00:00 16.48333 C 12.45 g/m*3 16.48 C 6.84167 km/h
1282 30-07-2013 09:00:00 17.19167 C 12.51 g/m*3 17.19 C 8.18333 km/h
1283 30-07-2013 10:00:00 19.14167 C 12.41 g/m*3 19.14 C 10.625 km/h
1284 30-07-2013 11:00:00 20.625 C 12.7 g/m*3 20.63 C 8.04167 km/h
1285 30-07-2013 12:00:00 21.66667 C 12.95 g/m*3 21.67 C 11.825 km/h
1286 30-07-2013 13:00:00 22.81667 C 13.31 g/m*3 22.82 C 12.1 km/h
1287 30-07-2013 14:00:00 21.8 C 13.38 g/m*3 21.8 C 15.96667 km/h
1288 30-07-2013 15:00:00 22.03333 C 13.04 g/m*3 22.03 C 15.3 km/h
1289 30-07-2013 16:00:00 22.45833 C 13.42 g/m*3 22.46 C 12.5 km/h
1290 30-07-2013 17:00:00 21.65833 C 12.7 g/m*3 21.66 C 9.41667 km/h
1291 30-07-2013 18:00:00 21.1 C 12.9 g/m*3 21.1 C 4.54167 km/h
1292 30-07-2013 19:00:00 20.99167 C 12.01 g/m*3 20.99 C 7.24167 km/h
1293 30-07-2013 20:00:00 20.675 C 11.76 g/m*3 20.68 C 7.78333 km/h
1294 30-07-2013 21:00:00 20.125 C 12.14 g/m*3 20.13 C 9.825 km/h
1295 30-07-2013 22:00:00 19.33333 C 12.8 g/m*3 19.33 C 12.89167 km/h
1296 30-07-2013 23:00:00 18.83333 C 13.12 g/m*3 18.83 C 13.03333 km/h
1297 31-07-2013 00:00:00 18.70833 C 13.44 g/m*3 18.71 C 13.43333 km/h
1298 31-07-2013 01:00:00 18.69167 C 13.6 g/m*3 18.69 C 8.875 km/h
1299 31-07-2013 02:00:00 18.95833 C 13.71 g/m*3 18.96 C 9.94167 km/h
1300 31-07-2013 03:00:00 19.20833 C 13.86 g/m*3 19.21 C 7.51667 km/h
Sensor: Nr:Datum:Temp:Abs-Feuchte:Windchill:Wind:
Aussen-T/F 1301 31-07-2013 04:00:00 19.14167 C 13.83 g/m*3 19.14 C 9.00833 km/h
1302 31-07-2013 05:00:00 18.63333 C 13.87 g/m*3 18.63 C 3.74167 km/h
1303 31-07-2013 06:00:00 19.15833 C 13.56 g/m*3 19.16 C 7.79167 km/h
1304 31-07-2013 07:00:00 19.23333 C 13.41 g/m*3 19.23 C 8.05833 km/h
1305 31-07-2013 08:00:00 19.99167 C 13.52 g/m*3 19.99 C 12.63333 km/h
1306 31-07-2013 09:00:00 20.60833 C 13.34 g/m*3 20.61 C 11.81667 km/h
1307 31-07-2013 10:00:00 21.63333 C 12.59 g/m*3 21.63 C 15.43333 km/h
1308 31-07-2013 11:00:00 22.28333 C 12.4 g/m*3 22.28 C 12.09167 km/h
1309 31-07-2013 12:00:00 23.06667 C 12.52 g/m*3 23.07 C 9.54167 km/h
1310 31-07-2013 13:00:00 23.23333 C 12.6 g/m*3 23.23 C 7.8 km/h
1311 31-07-2013 14:00:00 23.6 C 12.96 g/m*3 23.6 C 5.75833 km/h
1312 31-07-2013 15:00:00 23.48333 C 13.57 g/m*3 23.48 C 4.55833 km/h
1313 31-07-2013 16:00:00 23.73333 C 13.57 g/m*3 23.73 C 7.39167 km/h
1314 31-07-2013 17:00:00 24.025 C 14.43 g/m*3 24.03 C 5.35833 km/h
1315 31-07-2013 18:00:00 23.63333 C 14.65 g/m*3 23.63 C 3.21667 km/h
1316 31-07-2013 19:00:00 22.33333 C 14.8 g/m*3 22.33 C 1.86667 km/h
1317 31-07-2013 20:00:00 21.10833 C 14.61 g/m*3 21.11 C 0.66667 km/h
1318 31-07-2013 21:00:00 19.625 C 14.13 g/m*3 19.63 C 0.13333 km/h
1319 31-07-2013 22:00:00 18.44167 C 13.65 g/m*3 18.44 C 0.13333 km/h
1320 31-07-2013 23:00:00 17.55833 C 13.23 g/m*3 17.56 C 0 km/h
1321 01-08-2013 00:00:00 16.7 C 12.9 g/m*3 16.7 C 0 km/h
1322 01-08-2013 01:00:00 16.04167 C 12.62 g/m*3 16.04 C 0 km/h
1323 01-08-2013 02:00:00 15.54167 C 12.4 g/m*3 15.54 C 0 km/h
1324 01-08-2013 03:00:00 15.15 C 12.24 g/m*3 15.15 C 0 km/h
1325 01-08-2013 04:00:00 14.75833 C 12 g/m*3 14.76 C 0 km/h
Sensor: Nr:Datum:Temp:Abs-Feuchte:Windchill:Wind:
Aussen-T/F 1326 01-08-2013 05:00:00 14.38333 C 11.84 g/m*3 14.38 C 0 km/h
1327 01-08-2013 06:00:00 14.3 C 11.79 g/m*3 14.3 C 0 km/h
1328 01-08-2013 07:00:00 14.39167 C 11.89 g/m*3 14.39 C 0 km/h
1329 01-08-2013 08:00:00 15.9 C 12.99 g/m*3 15.9 C 0 km/h
1330 01-08-2013 09:00:00 17.64167 C 13.96 g/m*3 17.64 C 0 km/h
1331 01-08-2013 10:00:00 19.24167 C 15.04 g/m*3 19.24 C 0 km/h
1332 01-08-2013 11:00:00 22.925 C 16.66 g/m*3 22.93 C 1.2 km/h
1333 01-08-2013 12:00:00 26.025 C 16.13 g/m*3 26.03 C 5.21667 km/h
1334 01-08-2013 13:00:00 29.425 C 14.6 g/m*3 29.43 C 6.99167 km/h
1335 01-08-2013 14:00:00 31.1 C 12.76 g/m*3 31.1 C 7.36667 km/h
1336 01-08-2013 15:00:00 31.975 C 12.92 g/m*3 31.98 C 7.375 km/h
1337 01-08-2013 16:00:00 32.94167 C 13.13 g/m*3 32.94 C 7.11667 km/h
1338 01-08-2013 17:00:00 33.125 C 14.09 g/m*3 33.13 C 5.76667 km/h
1339 01-08-2013 18:00:00 30.51667 C 15.64 g/m*3 30.52 C 3.33333 km/h
1340 01-08-2013 19:00:00 27.04167 C 15.93 g/m*3 27.04 C 1.73333 km/h
1341 01-08-2013 20:00:00 22.35 C 15.74 g/m*3 22.35 C 2.13333 km/h
1342 01-08-2013 21:00:00 21.90833 C 14.42 g/m*3 21.91 C 2 km/h
1343 01-08-2013 22:00:00 21.26667 C 13.86 g/m*3 21.27 C 1.33333 km/h
1344 01-08-2013 23:00:00 20.86667 C 13.71 g/m*3 20.87 C 0.4 km/h
1345 02-08-2013 00:00:00 19.28333 C 13.24 g/m*3 19.28 C 0 km/h
1346 02-08-2013 01:00:00 18.26667 C 13.25 g/m*3 18.27 C 0 km/h
1347 02-08-2013 02:00:00 17.425 C 12.99 g/m*3 17.43 C 0 km/h
1348 02-08-2013 03:00:00 16.99167 C 12.74 g/m*3 16.99 C 0 km/h
1349 02-08-2013 04:00:00 16.41667 C 12.49 g/m*3 16.42 C 0 km/h
1350 02-08-2013 05:00:00 16.00833 C 12.34 g/m*3 16.01 C 0 km/h
Sensor: Nr:Datum:Temp:Abs-Feuchte:Windchill:Wind:
Aussen-T/F 1351 02-08-2013 06:00:00 15.71667 C 12.32 g/m*3 15.72 C 0 km/h
1352 02-08-2013 07:00:00 15.91667 C 12.61 g/m*3 15.92 C 0 km/h
1353 02-08-2013 08:00:00 17.09167 C 13.29 g/m*3 17.09 C 0 km/h
1354 02-08-2013 09:00:00 19.175 C 14.3 g/m*3 19.18 C 0 km/h
1355 02-08-2013 10:00:00 21.175 C 15.87 g/m*3 21.18 C 0 km/h
1356 02-08-2013 11:00:00 23.925 C 16.86 g/m*3 23.93 C 0 km/h
1357 02-08-2013 12:00:00 25.375 C 17.63 g/m*3 25.38 C 0 km/h
1358 02-08-2013 13:00:00 27.93333 C 18.63 g/m*3 27.93 C 1.86667 km/h
1359 02-08-2013 14:00:00 32.45 C 16.77 g/m*3 32.45 C 6.30833 km/h
1360 02-08-2013 15:00:00 34.95 C 12.95 g/m*3 34.95 C 7.51667 km/h
1361 02-08-2013 16:00:00 34.69167 C 14.72 g/m*3 34.69 C 6.3 km/h
1362 02-08-2013 17:00:00 33.5 C 15.14 g/m*3 33.5 C 4 km/h
1363 02-08-2013 18:00:00 30.20833 C 16.05 g/m*3 30.21 C 2.53333 km/h
1364 02-08-2013 19:00:00 27.08333 C 15.97 g/m*3 27.08 C 1.86667 km/h
1365 02-08-2013 20:00:00 26.03333 C 15.81 g/m*3 26.03 C 1.6 km/h
1366 02-08-2013 21:00:00 24.725 C 15.21 g/m*3 24.73 C 1.33333 km/h
1367 02-08-2013 22:00:00 23.75 C 15.03 g/m*3 23.75 C 0.13333 km/h
1368 02-08-2013 23:00:00 22.8 C 14.31 g/m*3 22.8 C 0.13333 km/h
1369 03-08-2013 00:00:00 22.19167 C 13.97 g/m*3 22.19 C 0.13333 km/h
1370 03-08-2013 01:00:00 22.25833 C 14.18 g/m*3 22.26 C 0 km/h
1371 03-08-2013 02:00:00 21.85 C 14.45 g/m*3 21.85 C 0 km/h
1372 03-08-2013 03:00:00 21.6 C 14.41 g/m*3 21.6 C 1.2 km/h
1373 03-08-2013 04:00:00 22.25833 C 14.82 g/m*3 22.26 C 7.24167 km/h
1374 03-08-2013 05:00:00 19.73333 C 15.88 g/m*3 19.73 C 2.80833 km/h
1375 03-08-2013 06:00:00 19.33333 C 15.84 g/m*3 19.33 C 0.93333 km/h
Sensor: Nr:Datum:Temp:Abs-Feuchte:Windchill:Wind:
Aussen-T/F 1376 03-08-2013 07:00:00 18.95833 C 15.61 g/m*3 18.96 C 2.95 km/h
1377 03-08-2013 08:00:00 18.78333 C 15.51 g/m*3 18.78 C 0.66667 km/h
1378 03-08-2013 09:00:00 19.21667 C 15.89 g/m*3 19.22 C 4.43333 km/h
1379 03-08-2013 10:00:00 20.43333 C 15.89 g/m*3 20.43 C 9.54167 km/h
1380 03-08-2013 11:00:00 21.93333 C 16.24 g/m*3 21.93 C 7.78333 km/h
1381 03-08-2013 12:00:00 21.38333 C 16.34 g/m*3 21.38 C 4.81667 km/h
1382 03-08-2013 13:00:00 22.50833 C 17.44 g/m*3 22.51 C 4.275 km/h
1383 03-08-2013 14:00:00 21.36667 C 16.78 g/m*3 21.37 C 1.73333 km/h
1384 03-08-2013 15:00:00 23.1 C 17.35 g/m*3 23.1 C 5.225 km/h
1385 03-08-2013 16:00:00 25.34167 C 17.54 g/m*3 25.34 C 4.825 km/h
1386 03-08-2013 17:00:00 23.66667 C 17.72 g/m*3 23.67 C 1.6 km/h
1387 03-08-2013 18:00:00 23.55833 C 17.54 g/m*3 23.56 C 2 km/h
1388 03-08-2013 19:00:00 21.325 C 16.74 g/m*3 21.33 C 2.66667 km/h
1389 03-08-2013 20:00:00 20.95 C 16.2 g/m*3 20.95 C 2.4 km/h
1390 03-08-2013 21:00:00 19.63333 C 15.07 g/m*3 19.63 C 2.66667 km/h
1391 03-08-2013 22:00:00 19.05 C 14.61 g/m*3 19.05 C 1.2 km/h
1392 03-08-2013 23:00:00 18.20833 C 13.83 g/m*3 18.21 C 0.13333 km/h
1393 04-08-2013 00:00:00 17.31667 C 13.25 g/m*3 17.32 C 0.26667 km/h
1394 04-08-2013 01:00:00 16.43333 C 12.66 g/m*3 16.43 C 0 km/h
1395 04-08-2013 02:00:00 15.85 C 12.37 g/m*3 15.85 C 0.26667 km/h
1396 04-08-2013 03:00:00 15.375 C 12.27 g/m*3 15.38 C 0.13333 km/h
1397 04-08-2013 04:00:00 15.125 C 12.1 g/m*3 15.13 C 0.26667 km/h
1398 04-08-2013 05:00:00 14.675 C 11.84 g/m*3 14.68 C 0 km/h
1399 04-08-2013 06:00:00 14.28333 C 11.67 g/m*3 14.28 C 0.26667 km/h
1400 04-08-2013 07:00:00 14.93333 C 12.07 g/m*3 14.93 C 3.89167 km/h
Sensor: Nr:Datum:Temp:Abs-Feuchte:Windchill:Wind:
Aussen-T/F 1401 04-08-2013 08:00:00 16.075 C 12.58 g/m*3 16.08 C 4.00833 km/h
1402 04-08-2013 09:00:00 17.69167 C 13.22 g/m*3 17.69 C 4.14167 km/h
1403 04-08-2013 10:00:00 19.00833 C 14.18 g/m*3 19.01 C 0.13333 km/h
1404 04-08-2013 11:00:00 21.525 C 14.95 g/m*3 21.53 C 1.86667 km/h
1405 04-08-2013 12:00:00 23.55833 C 13.47 g/m*3 23.56 C 2.8 km/h
1406 04-08-2013 13:00:00 25.16667 C 12.62 g/m*3 25.17 C 3.73333 km/h
1407 04-08-2013 14:00:00 26.9 C 12.16 g/m*3 26.9 C 6.15833 km/h
1408 04-08-2013 15:00:00 28.03333 C 11.78 g/m*3 28.03 C 7.38333 km/h
1409 04-08-2013 16:00:00 28.40833 C 11.98 g/m*3 28.41 C 6.84167 km/h
1410 04-08-2013 17:00:00 25.00833 C 14.82 g/m*3 25.01 C 1.46667 km/h
1411 04-08-2013 18:00:00 23.88333 C 14.59 g/m*3 23.88 C 1.33333 km/h
1412 04-08-2013 19:00:00 21.40833 C 14.54 g/m*3 21.41 C 0.8 km/h
1413 04-08-2013 20:00:00 20.4 C 14.17 g/m*3 20.4 C 0.93333 km/h
1414 04-08-2013 21:00:00 19.1 C 13.06 g/m*3 19.1 C 0.4 km/h
1415 04-08-2013 22:00:00 18.00833 C 12.41 g/m*3 18.01 C 0 km/h
1416 04-08-2013 23:00:00 16.925 C 11.93 g/m*3 16.93 C 0 km/h
1417 05-08-2013 00:00:00 16.45 C 11.6 g/m*3 16.45 C 0.13333 km/h
1418 05-08-2013 01:00:00 15.475 C 11.35 g/m*3 15.48 C 0.13333 km/h
1419 05-08-2013 02:00:00 14.83333 C 11.17 g/m*3 14.83 C 0 km/h
1420 05-08-2013 03:00:00 14.25 C 11.03 g/m*3 14.25 C 0.53333 km/h
1421 05-08-2013 04:00:00 13.825 C 10.91 g/m*3 13.83 C 0.53333 km/h
1422 05-08-2013 05:00:00 13.30833 C 10.63 g/m*3 13.31 C 0 km/h
1423 05-08-2013 06:00:00 13.00833 C 10.59 g/m*3 13.01 C 0 km/h
1424 05-08-2013 07:00:00 13.28333 C 10.85 g/m*3 13.28 C 0 km/h
1425 05-08-2013 08:00:00 14.06667 C 11.29 g/m*3 14.07 C 0 km/h
Sensor: Nr:Datum:Temp:Abs-Feuchte:Windchill:Wind:
Aussen-T/F 1426 05-08-2013 09:00:00 15.8 C 12.28 g/m*3 15.8 C 0 km/h
1427 05-08-2013 10:00:00 17.58333 C 13.63 g/m*3 17.58 C 0 km/h
1428 05-08-2013 11:00:00 20.38333 C 15.2 g/m*3 20.38 C 0.4 km/h
1429 05-08-2013 12:00:00 23.96667 C 15.87 g/m*3 23.97 C 4.41667 km/h
1430 05-08-2013 13:00:00 27.46667 C 14.7 g/m*3 27.47 C 6.43333 km/h
1431 05-08-2013 14:00:00 29.55 C 14.28 g/m*3 29.55 C 7.11667 km/h
1432 05-08-2013 15:00:00 29.94167 C 14.81 g/m*3 29.94 C 4.80833 km/h
1433 05-08-2013 16:00:00 29.54167 C 16.47 g/m*3 29.54 C 4.68333 km/h
1434 05-08-2013 17:00:00 29.075 C 18.39 g/m*3 29.08 C 1.33333 km/h
1435 05-08-2013 18:00:00 26.29167 C 17.96 g/m*3 26.29 C 1.2 km/h
1436 05-08-2013 19:00:00 24.15 C 17.19 g/m*3 24.15 C 2 km/h
1437 05-08-2013 20:00:00 23.475 C 16.59 g/m*3 23.48 C 2.4 km/h
1438 05-08-2013 21:00:00 21.99167 C 15.34 g/m*3 21.99 C 0.4 km/h
1439 05-08-2013 22:00:00 21.43333 C 15.03 g/m*3 21.43 C 0 km/h
1440 05-08-2013 23:00:00 21.08333 C 15.08 g/m*3 21.08 C 0.13333 km/h
1441 06-08-2013 00:00:00 20.55833 C 15 g/m*3 20.56 C 0 km/h
1442 06-08-2013 01:00:00 21.075 C 15.35 g/m*3 21.08 C 3.20833 km/h
1443 06-08-2013 02:00:00 20.03333 C 15.24 g/m*3 20.03 C 0.13333 km/h
1444 06-08-2013 03:00:00 20.19167 C 15.13 g/m*3 20.19 C 1.74167 km/h
1445 06-08-2013 04:00:00 20.05833 C 15.03 g/m*3 20.06 C 0.4 km/h
1446 06-08-2013 05:00:00 19.59167 C 15.1 g/m*3 19.59 C 1.06667 km/h
1447 06-08-2013 06:00:00 19.20833 C 14.63 g/m*3 19.21 C 2.26667 km/h
1448 06-08-2013 07:00:00 18.8 C 13.9 g/m*3 18.8 C 0.26667 km/h
1449 06-08-2013 08:00:00 19.14167 C 14.39 g/m*3 19.14 C 0.4 km/h
1450 06-08-2013 09:00:00 18.14167 C 14.62 g/m*3 18.14 C 0 km/h
Sensor: Nr:Datum:Temp:Abs-Feuchte:Windchill:Wind:
Aussen-T/F 1451 06-08-2013 10:00:00 18.66667 C 15.3 g/m*3 18.67 C 0 km/h
1452 06-08-2013 11:00:00 19.275 C 15.65 g/m*3 19.27 C 0 km/h
1453 06-08-2013 12:00:00 20.78333 C 16.43 g/m*3 20.78 C 0.8 km/h
1454 06-08-2013 13:00:00 23.4 C 16.7 g/m*3 23.4 C 1.46667 km/h
1455 06-08-2013 14:00:00 25.025 C 16.16 g/m*3 25.03 C 2.66667 km/h
1456 06-08-2013 15:00:00 22.74167 C 15.04 g/m*3 22.74 C 5.5 km/h
1457 06-08-2013 16:00:00 18.81667 C 14.15 g/m*3 18.82 C 3.75 km/h
1458 06-08-2013 17:00:00 18.55 C 15.01 g/m*3 18.55 C 0.4 km/h
1459 06-08-2013 18:00:00 21.51667 C 15.89 g/m*3 21.52 C 1.46667 km/h
1460 06-08-2013 19:00:00 22.05 C 16.51 g/m*3 22.05 C 0.66667 km/h
1461 06-08-2013 20:00:00 19.59167 C 15.59 g/m*3 19.59 C 0 km/h
1462 06-08-2013 21:00:00 18.05 C 14.55 g/m*3 18.05 C 0 km/h
1463 06-08-2013 22:00:00 17.44167 C 14.23 g/m*3 17.44 C 0 km/h
1464 06-08-2013 23:00:00 16.96667 C 13.86 g/m*3 16.97 C 0 km/h
1465 07-08-2013 00:00:00 16.53333 C 13.53 g/m*3 16.53 C 0 km/h
1466 07-08-2013 01:00:00 15.85833 C 12.99 g/m*3 15.86 C 0 km/h
1467 07-08-2013 02:00:00 15.66667 C 12.93 g/m*3 15.67 C 0 km/h
1468 07-08-2013 03:00:00 15.60833 C 12.91 g/m*3 15.61 C 0 km/h
1469 07-08-2013 04:00:00 15.675 C 12.96 g/m*3 15.68 C 0 km/h
1470 07-08-2013 05:00:00 15.625 C 12.92 g/m*3 15.63 C 0 km/h
1471 07-08-2013 06:00:00 15.7 C 13.03 g/m*3 15.7 C 0 km/h
1472 07-08-2013 07:00:00 16.21667 C 13.53 g/m*3 16.22 C 0.26667 km/h
1473 07-08-2013 08:00:00 16.525 C 13.73 g/m*3 16.52 C 0 km/h
1474 07-08-2013 09:00:00 17.25833 C 14.29 g/m*3 17.26 C 0 km/h
1475 07-08-2013 10:00:00 19.05833 C 15.04 g/m*3 19.06 C 3.21667 km/h
Sensor: Nr:Datum:Temp:Abs-Feuchte:Windchill:Wind:
Aussen-T/F 1476 07-08-2013 11:00:00 21.01667 C 15.85 g/m*3 21.02 C 5.20833 km/h
1477 07-08-2013 12:00:00 22.55 C 16.19 g/m*3 22.55 C 4.93333 km/h
1478 07-08-2013 13:00:00 23.56667 C 16.58 g/m*3 23.57 C 5.75833 km/h
1479 07-08-2013 14:00:00 25.94167 C 17.41 g/m*3 25.94 C 7.65833 km/h
1480 07-08-2013 15:00:00 24.69167 C 17.78 g/m*3 24.69 C 2.54167 km/h
1481 07-08-2013 16:00:00 23.36667 C 16.86 g/m*3 23.37 C 2.14167 km/h
1482 07-08-2013 17:00:00 20.99167 C 16.13 g/m*3 20.99 C 0.26667 km/h
1483 07-08-2013 18:00:00 19.89167 C 15.74 g/m*3 19.89 C 1.73333 km/h
1484 07-08-2013 19:00:00 19.26667 C 15.73 g/m*3 19.27 C 0.93333 km/h
1485 07-08-2013 20:00:00 18.825 C 15.4 g/m*3 18.83 C 0.93333 km/h
1486 07-08-2013 21:00:00 18.21667 C 14.94 g/m*3 18.22 C 0.8 km/h
1487 07-08-2013 22:00:00 18.05 C 14.83 g/m*3 18.05 C 0.13333 km/h
1488 07-08-2013 23:00:00 17.875 C 14.79 g/m*3 17.88 C 0.26667 km/h
1489 08-08-2013 00:00:00 18.15 C 14.33 g/m*3 18.15 C 1.6 km/h
1490 08-08-2013 01:00:00 17.575 C 14 g/m*3 17.58 C 0.13333 km/h
1491 08-08-2013 02:00:00 16.95833 C 13.75 g/m*3 16.96 C 0 km/h
1492 08-08-2013 03:00:00 17.11667 C 13.61 g/m*3 17.12 C 9 km/h
1493 08-08-2013 04:00:00 16.30833 C 12.49 g/m*3 16.31 C 7.24167 km/h
1494 08-08-2013 05:00:00 15.69167 C 12.05 g/m*3 15.69 C 2.26667 km/h
1495 08-08-2013 06:00:00 15.54167 C 11.98 g/m*3 15.54 C 1.6 km/h
1496 08-08-2013 07:00:00 15.525 C 11.76 g/m*3 15.53 C 5.49167 km/h
1497 08-08-2013 08:00:00 15.30833 C 11.63 g/m*3 15.31 C 3.075 km/h
1498 08-08-2013 09:00:00 15.58333 C 11.77 g/m*3 15.58 C 3.06667 km/h
1499 08-08-2013 10:00:00 16.325 C 11.98 g/m*3 16.33 C 4.14167 km/h
1500 08-08-2013 11:00:00 17.35 C 12.2 g/m*3 17.35 C 6.69167 km/h
Sensor: Nr:Datum:Temp:Abs-Feuchte:Windchill:Wind:
Aussen-T/F 1501 08-08-2013 12:00:00 17.80833 C 12.14 g/m*3 17.81 C 5.34167 km/h
1502 08-08-2013 13:00:00 18.11667 C 12.24 g/m*3 18.12 C 4.54167 km/h
1503 08-08-2013 14:00:00 18.39167 C 12.31 g/m*3 18.39 C 9.15 km/h
1504 08-08-2013 15:00:00 18.59167 C 12.37 g/m*3 18.59 C 8.18333 km/h
1505 08-08-2013 16:00:00 18.825 C 12.28 g/m*3 18.83 C 9.01667 km/h
1506 08-08-2013 17:00:00 18.875 C 12.33 g/m*3 18.88 C 7.51667 km/h
1507 08-08-2013 18:00:00 19.03333 C 12.33 g/m*3 19.03 C 3.075 km/h
1508 08-08-2013 19:00:00 18.31667 C 13 g/m*3 18.32 C 0.8 km/h
1509 08-08-2013 20:00:00 16.73333 C 12.58 g/m*3 16.73 C 0.13333 km/h
1510 08-08-2013 21:00:00 15.26667 C 11.9 g/m*3 15.27 C 0.13333 km/h
1511 08-08-2013 22:00:00 14.7 C 11.57 g/m*3 14.7 C 0.26667 km/h
1512 08-08-2013 23:00:00 14.01667 C 11.3 g/m*3 14.02 C 0 km/h
1513 09-08-2013 00:00:00 13.58333 C 11.07 g/m*3 13.58 C 0 km/h
1514 09-08-2013 01:00:00 13.225 C 10.93 g/m*3 13.23 C 0 km/h
1515 09-08-2013 02:00:00 12.71667 C 10.66 g/m*3 12.72 C 0 km/h
1516 09-08-2013 03:00:00 12.31667 C 10.43 g/m*3 12.32 C 0 km/h
1517 09-08-2013 04:00:00 11.98333 C 10.22 g/m*3 11.98 C 0 km/h
1518 09-08-2013 05:00:00 11.75833 C 10.13 g/m*3 11.76 C 0 km/h
1519 09-08-2013 06:00:00 11.875 C 10.26 g/m*3 11.88 C 0 km/h
1520 09-08-2013 07:00:00 12.275 C 10.52 g/m*3 12.28 C 0.13333 km/h
1521 09-08-2013 08:00:00 13.13333 C 11 g/m*3 13.13 C 0.93333 km/h
1522 09-08-2013 09:00:00 14.23333 C 11.37 g/m*3 14.23 C 0.8 km/h
1523 09-08-2013 10:00:00 15.86667 C 11.97 g/m*3 15.87 C 0.66667 km/h
1524 09-08-2013 11:00:00 18.00833 C 12.86 g/m*3 18.01 C 2.26667 km/h
1525 09-08-2013 12:00:00 20.20833 C 13.44 g/m*3 20.21 C 4.26667 km/h
Sensor: Nr:Datum:Temp:Abs-Feuchte:Windchill:Wind:
Aussen-T/F 1526 09-08-2013 13:00:00 20.78333 C 13.11 g/m*3 20.78 C 4 km/h
1527 09-08-2013 14:00:00 21.95833 C 12.92 g/m*3 21.96 C 2.93333 km/h
1528 09-08-2013 15:00:00 23.85833 C 12.27 g/m*3 23.86 C 4.94167 km/h
1529 09-08-2013 16:00:00 21 C 13.98 g/m*3 21 C 0.4 km/h
1530 09-08-2013 17:00:00 21.46667 C 13.55 g/m*3 21.47 C 2 km/h
1531 09-08-2013 18:00:00 19.29167 C 14.08 g/m*3 19.29 C 0 km/h
1532 09-08-2013 19:00:00 18.55 C 13.49 g/m*3 18.55 C 0.8 km/h
1533 09-08-2013 20:00:00 17.925 C 13.01 g/m*3 17.93 C 0 km/h
1534 09-08-2013 21:00:00 16.76667 C 12.29 g/m*3 16.77 C 0 km/h
1535 09-08-2013 22:00:00 15.675 C 11.6 g/m*3 15.68 C 0 km/h
1536 09-08-2013 23:00:00 15.525 C 11.76 g/m*3 15.53 C 0 km/h
1537 10-08-2013 00:00:00 15.55833 C 11.76 g/m*3 15.56 C 0 km/h
1538 10-08-2013 01:00:00 14.55833 C 11.38 g/m*3 14.56 C 0.66667 km/h
1539 10-08-2013 02:00:00 13.88333 C 11.16 g/m*3 13.88 C 0 km/h
1540 10-08-2013 03:00:00 13.89167 C 11.32 g/m*3 13.89 C 0.93333 km/h
1541 10-08-2013 04:00:00 14.58333 C 11.53 g/m*3 14.58 C 1.73333 km/h
1542 10-08-2013 05:00:00 14.61667 C 11.55 g/m*3 14.62 C 2 km/h
1543 10-08-2013 06:00:00 14.1 C 11.36 g/m*3 14.1 C 1.06667 km/h
1544 10-08-2013 07:00:00 13.925 C 11.38 g/m*3 13.93 C 2.825 km/h
1545 10-08-2013 08:00:00 15.03333 C 11.95 g/m*3 15.03 C 10.36667 km/h
1546 10-08-2013 09:00:00 16.35 C 12.5 g/m*3 16.35 C 8.06667 km/h
1547 10-08-2013 10:00:00 17.95833 C 12.23 g/m*3 17.96 C 9.15 km/h
1548 10-08-2013 11:00:00 20.475 C 11.85 g/m*3 20.48 C 10.89167 km/h
1549 10-08-2013 12:00:00 22.19167 C 11.25 g/m*3 22.19 C 11.425 km/h
1550 10-08-2013 13:00:00 23.65833 C 10.53 g/m*3 23.66 C 9.68333 km/h
Sensor: Nr:Datum:Temp:Abs-Feuchte:Windchill:Wind:
Aussen-T/F 1551 10-08-2013 14:00:00 24.5 C 10.37 g/m*3 24.5 C 10.075 km/h
1552 10-08-2013 15:00:00 22.65833 C 11.54 g/m*3 22.66 C 5.23333 km/h
1553 10-08-2013 16:00:00 22.70833 C 11.47 g/m*3 22.71 C 9.15 km/h
1554 10-08-2013 17:00:00 21.60833 C 11.32 g/m*3 21.61 C 11.83333 km/h
1555 10-08-2013 18:00:00 21.28333 C 10.54 g/m*3 21.28 C 9 km/h
1556 10-08-2013 19:00:00 20.85833 C 10.61 g/m*3 20.86 C 12.9 km/h
1557 10-08-2013 20:00:00 19.90833 C 10.11 g/m*3 19.91 C 8.20833 km/h
1558 10-08-2013 21:00:00 18.39167 C 10 g/m*3 18.39 C 5.76667 km/h
1559 10-08-2013 22:00:00 16.45 C 10.18 g/m*3 16.45 C 0.8 km/h
1560 10-08-2013 23:00:00 15.43333 C 10.1 g/m*3 15.43 C 0.26667 km/h
1561 11-08-2013 00:00:00 14.68333 C 9.95 g/m*3 14.68 C 0 km/h
1562 11-08-2013 01:00:00 14.13333 C 9.75 g/m*3 14.13 C 0 km/h
1563 11-08-2013 02:00:00 13.375 C 9.32 g/m*3 13.38 C 0 km/h
1564 11-08-2013 03:00:00 12.15833 C 8.81 g/m*3 12.16 C 0 km/h
1565 11-08-2013 04:00:00 11.86667 C 8.94 g/m*3 11.87 C 0 km/h
1566 11-08-2013 05:00:00 12.025 C 9.1 g/m*3 12.03 C 0.13333 km/h
1567 11-08-2013 06:00:00 11.3 C 8.98 g/m*3 11.3 C 0 km/h
1568 11-08-2013 07:00:00 11.875 C 9.39 g/m*3 11.88 C 0 km/h
1569 11-08-2013 08:00:00 12.56667 C 9.73 g/m*3 12.57 C 0.4 km/h
1570 11-08-2013 09:00:00 13.73333 C 9.94 g/m*3 13.73 C 0 km/h
1571 11-08-2013 10:00:00 15.29167 C 9.54 g/m*3 15.29 C 2 km/h
1572 11-08-2013 11:00:00 18.45833 C 8.84 g/m*3 18.46 C 4.94167 km/h
1573 11-08-2013 12:00:00 20.28333 C 8.49 g/m*3 20.28 C 5.75833 km/h
1574 11-08-2013 13:00:00 21.94167 C 8.4 g/m*3 21.94 C 8.45 km/h
1575 11-08-2013 14:00:00 22.59167 C 8.9 g/m*3 22.59 C 5.21667 km/h
Sensor: Nr:Datum:Temp:Abs-Feuchte:Windchill:Wind:
Aussen-T/F 1576 11-08-2013 15:00:00 22.70833 C 9.2 g/m*3 22.71 C 5.225 km/h
1577 11-08-2013 16:00:00 23.2 C 9.63 g/m*3 23.2 C 4.15 km/h
1578 11-08-2013 17:00:00 22.03333 C 10.65 g/m*3 22.03 C 2.54167 km/h
1579 11-08-2013 18:00:00 20.55 C 11.73 g/m*3 20.55 C 0.93333 km/h
1580 11-08-2013 19:00:00 20.325 C 10.88 g/m*3 20.33 C 2.26667 km/h
1581 11-08-2013 20:00:00 19.125 C 10.45 g/m*3 19.13 C 1.73333 km/h
1582 11-08-2013 21:00:00 17.48333 C 10.12 g/m*3 17.48 C 2.66667 km/h
1583 11-08-2013 22:00:00 16.175 C 10.18 g/m*3 16.18 C 0.4 km/h
1584 11-08-2013 23:00:00 15.38333 C 9.91 g/m*3 15.38 C 0 km/h
1585 12-08-2013 00:00:00 15.25 C 9.97 g/m*3 15.25 C 0 km/h
1586 12-08-2013 01:00:00 14.98333 C 9.86 g/m*3 14.98 C 2 km/h
1587 12-08-2013 02:00:00 14.51667 C 9.88 g/m*3 14.52 C 3.88333 km/h
1588 12-08-2013 03:00:00 14 C 9.79 g/m*3 14 C 1.06667 km/h
1589 12-08-2013 04:00:00 12.625 C 9.59 g/m*3 12.63 C 0.93333 km/h
1590 12-08-2013 05:00:00 12.51667 C 9.58 g/m*3 12.52 C 1.46667 km/h
1591 12-08-2013 06:00:00 11.95 C 9.5 g/m*3 11.95 C 0.8 km/h
1592 12-08-2013 07:00:00 12.54167 C 9.85 g/m*3 12.54 C 1.33333 km/h
1593 12-08-2013 08:00:00 13.3 C 10.23 g/m*3 13.3 C 1.2 km/h
1594 12-08-2013 09:00:00 15.8 C 11.08 g/m*3 15.8 C 1.34167 km/h
1595 12-08-2013 10:00:00 18.53333 C 11.08 g/m*3 18.53 C 6.30833 km/h
1596 12-08-2013 11:00:00 18.98333 C 11.02 g/m*3 18.98 C 7.25 km/h
1597 12-08-2013 12:00:00 18.95 C 11.48 g/m*3 18.95 C 3.20833 km/h
1598 12-08-2013 13:00:00 21.28333 C 11.76 g/m*3 21.28 C 7.79167 km/h
1599 12-08-2013 14:00:00 22.81667 C 11.46 g/m*3 22.82 C 7.65 km/h
1600 12-08-2013 15:00:00 18.63333 C 13.5 g/m*3 18.63 C 2.40833 km/h
Sensor: Nr:Datum:Temp:Abs-Feuchte:Windchill:Wind:
Aussen-T/F 1601 12-08-2013 16:00:00 18.525 C 14.05 g/m*3 18.52 C 3.49167 km/h
1602 12-08-2013 17:00:00 16.54167 C 13.1 g/m*3 16.54 C 0.53333 km/h
1603 12-08-2013 18:00:00 16.025 C 12.93 g/m*3 16.02 C 0 km/h
1604 12-08-2013 19:00:00 15.49167 C 12.63 g/m*3 15.49 C 0 km/h
1605 12-08-2013 20:00:00 15.55 C 12.7 g/m*3 15.55 C 1.06667 km/h
1606 12-08-2013 21:00:00 14.775 C 12.14 g/m*3 14.78 C 0.53333 km/h
1607 12-08-2013 22:00:00 14.00833 C 11.59 g/m*3 14.01 C 0.13333 km/h
1608 12-08-2013 23:00:00 13.575 C 11.38 g/m*3 13.58 C 0.53333 km/h
1609 13-08-2013 00:00:00 14.03333 C 11.72 g/m*3 14.03 C 2 km/h
1610 13-08-2013 01:00:00 14.125 C 11.79 g/m*3 14.13 C 0.93333 km/h
1611 13-08-2013 02:00:00 13.69167 C 11.48 g/m*3 13.69 C 0 km/h
1612 13-08-2013 03:00:00 13.06667 C 11.05 g/m*3 13.07 C 0.4 km/h
1613 13-08-2013 04:00:00 12.75833 C 10.84 g/m*3 12.76 C 0.13333 km/h
1614 13-08-2013 05:00:00 12.35 C 10.57 g/m*3 12.35 C 0 km/h
1615 13-08-2013 06:00:00 11.85833 C 10.25 g/m*3 11.86 C 0.26667 km/h
1616 13-08-2013 07:00:00 11.875 C 10.29 g/m*3 11.88 C 0.4 km/h
1617 13-08-2013 08:00:00 12.95 C 11.01 g/m*3 12.95 C 0.53333 km/h
1618 13-08-2013 09:00:00 14.08333 C 11.43 g/m*3 14.08 C 3.76667 km/h
1619 13-08-2013 10:00:00 15.325 C 11.48 g/m*3 15.33 C 2 km/h
1620 13-08-2013 11:00:00 16.71667 C 11.62 g/m*3 16.72 C 4.55 km/h
1621 13-08-2013 12:00:00 17.225 C 11.44 g/m*3 17.23 C 4.29167 km/h
1622 13-08-2013 13:00:00 18.65 C 10.74 g/m*3 18.65 C 6.7 km/h
1623 13-08-2013 14:00:00 19.55833 C 9.8 g/m*3 19.56 C 9.675 km/h
1624 13-08-2013 15:00:00 19.79167 C 9.35 g/m*3 19.79 C 10.75833 km/h
1625 13-08-2013 16:00:00 20.43333 C 9.19 g/m*3 20.43 C 10.21667 km/h
Sensor: Nr:Datum:Temp:Abs-Feuchte:Windchill:Wind:
Aussen-T/F 1626 13-08-2013 17:00:00 20.51667 C 9.04 g/m*3 20.52 C 11.55833 km/h
1627 13-08-2013 18:00:00 19.44167 C 9.55 g/m*3 19.44 C 8.06667 km/h
1628 13-08-2013 19:00:00 18.075 C 10.72 g/m*3 18.08 C 2.80833 km/h
1629 13-08-2013 20:00:00 16.20833 C 10.59 g/m*3 16.21 C 2.14167 km/h
1630 13-08-2013 21:00:00 14.65 C 10.49 g/m*3 14.65 C 0.53333 km/h
1631 13-08-2013 22:00:00 14.05 C 10.64 g/m*3 14.05 C 0 km/h
1632 13-08-2013 23:00:00 13.28333 C 10.22 g/m*3 13.28 C 0 km/h
1633 14-08-2013 00:00:00 12.23333 C 9.86 g/m*3 12.23 C 0.13333 km/h
1634 14-08-2013 01:00:00 11.78333 C 9.7 g/m*3 11.78 C 0.26667 km/h
1635 14-08-2013 02:00:00 11.24167 C 9.49 g/m*3 11.24 C 0.26667 km/h
1636 14-08-2013 03:00:00 10.60833 C 9.15 g/m*3 10.61 C 0.66667 km/h
1637 14-08-2013 04:00:00 10.04167 C 8.86 g/m*3 10.04 C 1.2 km/h
1638 14-08-2013 05:00:00 9.425 C 8.59 g/m*3 9.43 C 1.73333 km/h
1639 14-08-2013 06:00:00 8.875 C 8.32 g/m*3 8.88 C 1.06667 km/h
1640 14-08-2013 07:00:00 8.70833 C 8.31 g/m*3 8.71 C 1.33333 km/h
1641 14-08-2013 08:00:00 9.425 C 8.71 g/m*3 9.43 C 2.13333 km/h
1642 14-08-2013 09:00:00 10.71667 C 9.44 g/m*3 10.72 C 0.26667 km/h
1643 14-08-2013 10:00:00 12.91667 C 10.27 g/m*3 12.92 C 1.33333 km/h
1644 14-08-2013 11:00:00 16.35 C 10.29 g/m*3 16.35 C 3.20833 km/h
1645 14-08-2013 12:00:00 19.05 C 9.9 g/m*3 19.05 C 6.30833 km/h
1646 14-08-2013 13:00:00 20.15833 C 10.28 g/m*3 20.16 C 4.4 km/h
1647 14-08-2013 14:00:00 20.90833 C 9.44 g/m*3 20.91 C 5.34167 km/h
1648 14-08-2013 15:00:00 20.3 C 10.3 g/m*3 20.3 C 3.88333 km/h
1649 14-08-2013 16:00:00 20.85 C 10.61 g/m*3 20.85 C 2.66667 km/h
1650 14-08-2013 17:00:00 18.825 C 11.42 g/m*3 18.83 C 1.46667 km/h
Sensor: Nr:Datum:Temp:Abs-Feuchte:Windchill:Wind:
Aussen-T/F 1651 14-08-2013 18:00:00 16.49167 C 11.34 g/m*3 16.49 C 1.06667 km/h
1652 14-08-2013 19:00:00 16.36667 C 11.18 g/m*3 16.37 C 0.4 km/h
1653 14-08-2013 20:00:00 16.025 C 10.93 g/m*3 16.02 C 0.93333 km/h
1654 14-08-2013 21:00:00 16.15833 C 10.83 g/m*3 16.16 C 2.13333 km/h
1655 14-08-2013 22:00:00 15.125 C 10.92 g/m*3 15.13 C 0 km/h
1656 14-08-2013 23:00:00 14.35833 C 10.66 g/m*3 14.36 C 0 km/h
1657 15-08-2013 00:00:00 13.13333 C 10.06 g/m*3 13.13 C 0.13333 km/h
1658 15-08-2013 01:00:00 12.43333 C 9.76 g/m*3 12.43 C 0.13333 km/h
1659 15-08-2013 02:00:00 11.66667 C 9.57 g/m*3 11.67 C 0 km/h
1660 15-08-2013 03:00:00 11.11667 C 9.36 g/m*3 11.12 C 0 km/h
1661 15-08-2013 04:00:00 10.60833 C 9.17 g/m*3 10.61 C 0 km/h
1662 15-08-2013 05:00:00 10.25 C 9.05 g/m*3 10.25 C 0 km/h
1663 15-08-2013 06:00:00 10.05833 C 8.96 g/m*3 10.06 C 0 km/h
1664 15-08-2013 07:00:00 10.16667 C 9.09 g/m*3 10.17 C 0.53333 km/h
1665 15-08-2013 08:00:00 10.74167 C 9.38 g/m*3 10.74 C 0 km/h
1666 15-08-2013 09:00:00 12.15 C 10.16 g/m*3 12.15 C 0 km/h
1667 15-08-2013 10:00:00 13.90833 C 11.19 g/m*3 13.91 C 0 km/h
1668 15-08-2013 11:00:00 17.16667 C 11.66 g/m*3 17.17 C 3.08333 km/h
1669 15-08-2013 12:00:00 20.81667 C 10.5 g/m*3 20.82 C 9.26667 km/h
1670 15-08-2013 13:00:00 22.63333 C 9.81 g/m*3 22.63 C 9.69167 km/h
1671 15-08-2013 14:00:00 23.96667 C 9.81 g/m*3 23.97 C 10.48333 km/h
1672 15-08-2013 15:00:00 24.68333 C 9.57 g/m*3 24.68 C 7.51667 km/h
1673 15-08-2013 16:00:00 24.75 C 10.38 g/m*3 24.75 C 6.31667 km/h
1674 15-08-2013 17:00:00 23.21667 C 11.51 g/m*3 23.22 C 4 km/h
1675 15-08-2013 18:00:00 22.53333 C 12.81 g/m*3 22.53 C 1.33333 km/h
Sensor: Nr:Datum:Temp:Abs-Feuchte:Windchill:Wind:
Aussen-T/F 1676 15-08-2013 19:00:00 19.45833 C 12.26 g/m*3 19.46 C 1.73333 km/h
1677 15-08-2013 20:00:00 17.8 C 11.94 g/m*3 17.8 C 1.2 km/h
1678 15-08-2013 21:00:00 16.83333 C 11.85 g/m*3 16.83 C 0 km/h
1679 15-08-2013 22:00:00 15.96667 C 11.6 g/m*3 15.97 C 0 km/h
1680 15-08-2013 23:00:00 15.15 C 11.2 g/m*3 15.15 C 0.13333 km/h
1681 16-08-2013 00:00:00 14.125 C 10.39 g/m*3 14.13 C 0 km/h
1682 16-08-2013 01:00:00 13.26667 C 9.88 g/m*3 13.27 C 0 km/h
1683 16-08-2013 02:00:00 12.59167 C 9.58 g/m*3 12.59 C 0 km/h
1684 16-08-2013 03:00:00 12.04167 C 9.36 g/m*3 12.04 C 0 km/h
1685 16-08-2013 04:00:00 11.56667 C 9.27 g/m*3 11.57 C 0 km/h
1686 16-08-2013 05:00:00 11.15833 C 9.14 g/m*3 11.16 C 0 km/h
1687 16-08-2013 06:00:00 10.85 C 9.12 g/m*3 10.85 C 0 km/h
1688 16-08-2013 07:00:00 11.08333 C 9.46 g/m*3 11.08 C 0 km/h
1689 16-08-2013 08:00:00 11.75 C 9.87 g/m*3 11.75 C 0 km/h
1690 16-08-2013 09:00:00 13.4 C 10.66 g/m*3 13.4 C 0 km/h
1691 16-08-2013 10:00:00 15.4 C 11.8 g/m*3 15.4 C 0 km/h
1692 16-08-2013 11:00:00 17.56667 C 12.87 g/m*3 17.57 C 0.13333 km/h
1693 16-08-2013 12:00:00 20.46667 C 13.25 g/m*3 20.47 C 2.95 km/h
1694 16-08-2013 13:00:00 23.55 C 13.08 g/m*3 23.55 C 4.15833 km/h
1695 16-08-2013 14:00:00 26.81667 C 11.34 g/m*3 26.82 C 6.44167 km/h
1696 16-08-2013 15:00:00 27.51667 C 11.34 g/m*3 27.52 C 6.16667 km/h
1697 16-08-2013 16:00:00 27.60833 C 11.69 g/m*3 27.61 C 4.95 km/h
1698 16-08-2013 17:00:00 26.475 C 13.33 g/m*3 26.48 C 2.53333 km/h
1699 16-08-2013 18:00:00 24.575 C 13.92 g/m*3 24.58 C 1.86667 km/h
1700 16-08-2013 19:00:00 23.43333 C 13.64 g/m*3 23.43 C 1.46667 km/h
Sensor: Nr:Datum:Temp:Abs-Feuchte:Windchill:Wind:
Aussen-T/F 1701 16-08-2013 20:00:00 21.30833 C 12.32 g/m*3 21.31 C 1.46667 km/h
1702 16-08-2013 21:00:00 19.34167 C 11.78 g/m*3 19.34 C 0.13333 km/h
1703 16-08-2013 22:00:00 18.18333 C 11.61 g/m*3 18.18 C 0 km/h
1704 16-08-2013 23:00:00 17.04167 C 11.18 g/m*3 17.04 C 0.26667 km/h
1705 17-08-2013 00:00:00 16.06667 C 11.07 g/m*3 16.07 C 0.53333 km/h
1706 17-08-2013 01:00:00 15.84167 C 10.98 g/m*3 15.84 C 1.73333 km/h
1707 17-08-2013 02:00:00 15.81667 C 11.35 g/m*3 15.82 C 0.93333 km/h
1708 17-08-2013 03:00:00 16.05 C 11.55 g/m*3 16.05 C 0.13333 km/h
1709 17-08-2013 04:00:00 15.76667 C 11.64 g/m*3 15.77 C 0 km/h
1710 17-08-2013 05:00:00 15.51667 C 11.64 g/m*3 15.52 C 1.2 km/h
1711 17-08-2013 06:00:00 15.31667 C 11.66 g/m*3 15.32 C 1.075 km/h
1712 17-08-2013 07:00:00 15.525 C 11.62 g/m*3 15.53 C 2.8 km/h
1713 17-08-2013 08:00:00 16.29167 C 11.89 g/m*3 16.29 C 3.20833 km/h
1714 17-08-2013 09:00:00 17.11111 C 12.24 g/m*3 17.11 C 1.77778 km/h
1715 17-08-2013 10:00:00 18.80833 C 12.86 g/m*3 18.81 C 2.93333 km/h
1716 17-08-2013 11:00:00 19.8 C 13.62 g/m*3 19.8 C 1.6 km/h
1717 17-08-2013 12:00:00 22.625 C 13.66 g/m*3 22.63 C 4.275 km/h
1718 17-08-2013 13:00:00 26.16667 C 12.82 g/m*3 26.17 C 6.85833 km/h
1719 17-08-2013 14:00:00 27.55833 C 12.01 g/m*3 27.56 C 11.54167 km/h
1720 17-08-2013 15:00:00 28.40833 C 11.17 g/m*3 28.41 C 14.225 km/h
1721 17-08-2013 16:00:00 28.025 C 11.32 g/m*3 28.03 C 13.425 km/h
1722 17-08-2013 17:00:00 27.525 C 11.55 g/m*3 27.53 C 11.01667 km/h
1723 17-08-2013 18:00:00 27.10833 C 11.91 g/m*3 27.11 C 8.60833 km/h
1724 17-08-2013 19:00:00 25.775 C 11.74 g/m*3 25.78 C 9.39167 km/h
1725 17-08-2013 20:00:00 22.33333 C 12.86 g/m*3 22.33 C 2.66667 km/h
Sensor: Nr:Datum:Temp:Abs-Feuchte:Windchill:Wind:
Aussen-T/F 1726 17-08-2013 21:00:00 20.775 C 12.81 g/m*3 20.78 C 1.2 km/h
1727 17-08-2013 22:00:00 18.70833 C 12.69 g/m*3 18.71 C 0 km/h
1728 17-08-2013 23:00:00 17.75 C 12.6 g/m*3 17.75 C 0.13333 km/h
1729 18-08-2013 00:00:00 17.475 C 12.6 g/m*3 17.48 C 0 km/h
1730 18-08-2013 01:00:00 17.46667 C 12.56 g/m*3 17.47 C 0 km/h
1731 18-08-2013 02:00:00 17.3 C 12.64 g/m*3 17.3 C 0 km/h
1732 18-08-2013 03:00:00 17.2 C 12.73 g/m*3 17.2 C 0 km/h
1733 18-08-2013 04:00:00 17.13333 C 12.75 g/m*3 17.13 C 0 km/h
1734 18-08-2013 05:00:00 17.15 C 12.85 g/m*3 17.15 C 0 km/h
1735 18-08-2013 06:00:00 17.25 C 12.85 g/m*3 17.25 C 0 km/h
1736 18-08-2013 07:00:00 17.36667 C 13.14 g/m*3 17.37 C 0 km/h
1737 18-08-2013 08:00:00 17.88333 C 13.7 g/m*3 17.88 C 0 km/h
1738 18-08-2013 09:00:00 18.15833 C 14.29 g/m*3 18.16 C 0 km/h
1739 18-08-2013 10:00:00 18.7 C 14.82 g/m*3 18.7 C 0.17778 km/h
1740 18-08-2013 11:00:00 18.71667 C 14.06 g/m*3 18.72 C 4.28333 km/h
1741 18-08-2013 12:00:00 18.425 C 13.99 g/m*3 18.43 C 1.2 km/h
1742 18-08-2013 13:00:00 18.83333 C 14.46 g/m*3 18.83 C 1.06667 km/h
1743 18-08-2013 14:00:00 20.69167 C 14.75 g/m*3 20.69 C 3.61667 km/h
1744 18-08-2013 15:00:00 22.025 C 14.93 g/m*3 22.03 C 4.41667 km/h
1745 18-08-2013 16:00:00 23 C 14.28 g/m*3 23 C 10.48333 km/h
1746 18-08-2013 17:00:00 24.40833 C 13.84 g/m*3 24.41 C 12.09167 km/h
1747 18-08-2013 18:00:00 23.16667 C 13.4 g/m*3 23.17 C 11.55 km/h
1748 18-08-2013 19:00:00 22.825 C 13.63 g/m*3 22.83 C 12.5 km/h
1749 18-08-2013 20:00:00 21.725 C 13.63 g/m*3 21.73 C 9.125 km/h
1750 18-08-2013 21:00:00 20.025 C 13.85 g/m*3 20.02 C 1.875 km/h
Sensor: Nr:Datum:Temp:Abs-Feuchte:Windchill:Wind:
Aussen-T/F 1751 18-08-2013 22:00:00 19.05 C 13.65 g/m*3 19.05 C 0.26667 km/h
1752 18-08-2013 23:00:00 16.98333 C 13.06 g/m*3 16.98 C 0 km/h
1753 19-08-2013 00:00:00 16.74167 C 13.07 g/m*3 16.74 C 0 km/h
1754 19-08-2013 01:00:00 16.30833 C 12.85 g/m*3 16.31 C 0 km/h
1755 19-08-2013 02:00:00 15.91667 C 12.66 g/m*3 15.92 C 0 km/h
1756 19-08-2013 03:00:00 16.25 C 13.17 g/m*3 16.25 C 0.26667 km/h
1757 19-08-2013 04:00:00 16.71667 C 13.67 g/m*3 16.72 C 1.2 km/h
1758 19-08-2013 05:00:00 16.875 C 13.69 g/m*3 16.88 C 4.7 km/h
1759 19-08-2013 06:00:00 15.50833 C 12.54 g/m*3 15.51 C 1.46667 km/h
1760 19-08-2013 07:00:00 14.94167 C 12.27 g/m*3 14.94 C 0 km/h
1761 19-08-2013 08:00:00 15.21667 C 12.6 g/m*3 15.22 C 0.53333 km/h
1762 19-08-2013 09:00:00 15.45 C 12.76 g/m*3 15.45 C 0.26667 km/h
1763 19-08-2013 10:00:00 16.325 C 13.22 g/m*3 16.33 C 0.93333 km/h
1764 19-08-2013 11:00:00 18.40833 C 12.84 g/m*3 18.41 C 8.06667 km/h
1765 19-08-2013 12:00:00 20.09167 C 11.84 g/m*3 20.09 C 14.1 km/h
1766 19-08-2013 13:00:00 21.65 C 11.49 g/m*3 21.65 C 9.95833 km/h
1767 19-08-2013 14:00:00 22.11667 C 11.04 g/m*3 22.12 C 11.15833 km/h
1768 19-08-2013 15:00:00 20.75 C 11.39 g/m*3 20.75 C 8.19167 km/h
1769 19-08-2013 16:00:00 21.825 C 10.66 g/m*3 21.83 C 11.28333 km/h
1770 19-08-2013 17:00:00 21.13333 C 11.32 g/m*3 21.13 C 19.30833 km/h
1771 19-08-2013 18:00:00 21.21667 C 10.77 g/m*3 21.22 C 12.36667 km/h
1772 19-08-2013 19:00:00 19.95 C 10.48 g/m*3 19.95 C 8.45 km/h
1773 19-08-2013 20:00:00 17.725 C 10.22 g/m*3 17.73 C 6.56667 km/h
1774 19-08-2013 21:00:00 15.85 C 10.7 g/m*3 15.85 C 1.46667 km/h
1775 19-08-2013 22:00:00 14.75 C 10.55 g/m*3 14.75 C 1.2 km/h
Sensor: Nr:Datum:Temp:Abs-Feuchte:Windchill:Wind:
Aussen-T/F 1776 19-08-2013 23:00:00 14.46667 C 10.64 g/m*3 14.47 C 0 km/h
1777 20-08-2013 00:00:00 13.16667 C 10.19 g/m*3 13.17 C 0 km/h
1778 20-08-2013 01:00:00 12.475 C 10.05 g/m*3 12.48 C 0 km/h
1779 20-08-2013 02:00:00 11.95833 C 9.88 g/m*3 11.96 C 0.26667 km/h
1780 20-08-2013 03:00:00 11.41667 C 9.62 g/m*3 11.42 C 0 km/h
1781 20-08-2013 04:00:00 10.98333 C 9.43 g/m*3 10.98 C 0.26667 km/h
1782 20-08-2013 05:00:00 10.88333 C 9.38 g/m*3 10.88 C 0.93333 km/h
1783 20-08-2013 06:00:00 10.44167 C 9.09 g/m*3 10.44 C 0 km/h
1784 20-08-2013 07:00:00 10.24167 C 9.1 g/m*3 10.24 C 0 km/h
1785 20-08-2013 08:00:00 11.26667 C 9.67 g/m*3 11.27 C 3.21667 km/h
1786 20-08-2013 09:00:00 13.13333 C 10.4 g/m*3 13.13 C 1.73333 km/h
1787 20-08-2013 10:00:00 15.05833 C 10.92 g/m*3 15.06 C 2.4 km/h
1788 20-08-2013 11:00:00 16.96667 C 10.77 g/m*3 16.97 C 2.93333 km/h
1789 20-08-2013 12:00:00 18.94167 C 10.85 g/m*3 18.94 C 6.425 km/h
1790 20-08-2013 13:00:00 20.04167 C 10.28 g/m*3 20.04 C 5.74167 km/h
1791 20-08-2013 14:00:00 19.95833 C 9.91 g/m*3 19.96 C 7.925 km/h
1792 20-08-2013 15:00:00 20.64167 C 9.75 g/m*3 20.64 C 6.3 km/h
1793 20-08-2013 16:00:00 20.475 C 9.17 g/m*3 20.48 C 6.84167 km/h
1794 20-08-2013 17:00:00 20.2 C 9.4 g/m*3 20.2 C 5.63333 km/h
1795 20-08-2013 18:00:00 18.53333 C 10.49 g/m*3 18.53 C 1.86667 km/h
1796 20-08-2013 19:00:00 18.01667 C 10.89 g/m*3 18.02 C 1.875 km/h
1797 20-08-2013 20:00:00 15.56667 C 10.62 g/m*3 15.57 C 0.53333 km/h
1798 20-08-2013 21:00:00 13.93333 C 10.24 g/m*3 13.93 C 0.13333 km/h
1799 20-08-2013 22:00:00 12.925 C 9.71 g/m*3 12.93 C 0 km/h
1800 20-08-2013 23:00:00 11.925 C 9.4 g/m*3 11.93 C 0 km/h
Sensor: Nr:Datum:Temp:Abs-Feuchte:Windchill:Wind:
Aussen-T/F 1801 21-08-2013 00:00:00 11.175 C 9.21 g/m*3 11.18 C 0 km/h
1802 21-08-2013 01:00:00 10.69167 C 9.06 g/m*3 10.69 C 0 km/h
1803 21-08-2013 02:00:00 10.26667 C 8.94 g/m*3 10.27 C 0 km/h
1804 21-08-2013 03:00:00 9.85833 C 8.8 g/m*3 9.86 C 0 km/h
1805 21-08-2013 04:00:00 9.55 C 8.67 g/m*3 9.55 C 0 km/h
1806 21-08-2013 05:00:00 9.14167 C 8.48 g/m*3 9.14 C 0.26667 km/h
1807 21-08-2013 06:00:00 8.73333 C 8.32 g/m*3 8.73 C 0.4 km/h
1808 21-08-2013 07:00:00 8.9 C 8.43 g/m*3 8.9 C 0.4 km/h
1809 21-08-2013 08:00:00 9.48333 C 8.76 g/m*3 9.48 C 1.06667 km/h
1810 21-08-2013 09:00:00 10.41667 C 9.29 g/m*3 10.42 C 0.8 km/h
1811 21-08-2013 10:00:00 12.53333 C 10.28 g/m*3 12.53 C 0.53333 km/h
1812 21-08-2013 11:00:00 15.31667 C 11.41 g/m*3 15.32 C 0.4 km/h
1813 21-08-2013 12:00:00 17.29167 C 11.63 g/m*3 17.29 C 2.13333 km/h
1814 21-08-2013 13:00:00 20.40833 C 11.5 g/m*3 20.41 C 3.74167 km/h
1815 21-08-2013 14:00:00 22.51667 C 11.4 g/m*3 22.52 C 4.55 km/h
1816 21-08-2013 15:00:00 23.66667 C 11.14 g/m*3 23.67 C 5.20833 km/h
1817 21-08-2013 16:00:00 24.23333 C 11.5 g/m*3 24.23 C 4.94167 km/h
1818 21-08-2013 17:00:00 24.25 C 11.49 g/m*3 24.25 C 4.675 km/h
1819 21-08-2013 18:00:00 22.04167 C 12.94 g/m*3 22.04 C 1.6 km/h
1820 21-08-2013 19:00:00 19.825 C 12.91 g/m*3 19.83 C 0.4 km/h
1821 21-08-2013 20:00:00 17.58333 C 12.11 g/m*3 17.58 C 0.4 km/h
1822 21-08-2013 21:00:00 16.44167 C 11.65 g/m*3 16.44 C 0 km/h
1823 21-08-2013 22:00:00 15.38333 C 11.12 g/m*3 15.38 C 0 km/h
1824 21-08-2013 23:00:00 14.2 C 10.65 g/m*3 14.2 C 0 km/h
1825 22-08-2013 00:00:00 13.46667 C 10.42 g/m*3 13.47 C 0 km/h
Sensor: Nr:Datum:Temp:Abs-Feuchte:Windchill:Wind:
Aussen-T/F 1826 22-08-2013 01:00:00 12.825 C 10.21 g/m*3 12.83 C 0 km/h
1827 22-08-2013 02:00:00 12.125 C 9.85 g/m*3 12.13 C 0 km/h
1828 22-08-2013 03:00:00 11.75 C 9.79 g/m*3 11.75 C 0 km/h
1829 22-08-2013 04:00:00 11.41667 C 9.66 g/m*3 11.42 C 0.26667 km/h
1830 22-08-2013 05:00:00 11.03333 C 9.53 g/m*3 11.03 C 0 km/h
1831 22-08-2013 06:00:00 10.78333 C 9.41 g/m*3 10.78 C 0 km/h
1832 22-08-2013 07:00:00 11.04167 C 9.63 g/m*3 11.04 C 0 km/h
1833 22-08-2013 08:00:00 11.85 C 10.08 g/m*3 11.85 C 0 km/h
1834 22-08-2013 09:00:00 13.3 C 10.71 g/m*3 13.3 C 0.4 km/h
1835 22-08-2013 10:00:00 14.65833 C 11.45 g/m*3 14.66 C 0.13333 km/h
1836 22-08-2013 11:00:00 16.575 C 12.54 g/m*3 16.58 C 0.4 km/h
1837 22-08-2013 12:00:00 18.575 C 13.14 g/m*3 18.58 C 0.93333 km/h
1838 22-08-2013 13:00:00 20.98333 C 13.07 g/m*3 20.98 C 2.13333 km/h
1839 22-08-2013 14:00:00 23.65833 C 12.32 g/m*3 23.66 C 3.875 km/h
1840 22-08-2013 15:00:00 24.38333 C 11.47 g/m*3 24.38 C 5.9 km/h
1841 22-08-2013 16:00:00 22.075 C 12.98 g/m*3 22.08 C 0.13333 km/h
1842 22-08-2013 17:00:00 20.975 C 14.12 g/m*3 20.98 C 0 km/h
1843 22-08-2013 18:00:00 21.3 C 14.21 g/m*3 21.3 C 0.53333 km/h
1844 22-08-2013 19:00:00 19.65833 C 13.31 g/m*3 19.66 C 0.66667 km/h
1845 22-08-2013 20:00:00 18.20833 C 12.56 g/m*3 18.21 C 0.26667 km/h
1846 22-08-2013 21:00:00 17.49167 C 12.33 g/m*3 17.49 C 0 km/h
1847 22-08-2013 22:00:00 17.25 C 12.2 g/m*3 17.25 C 0 km/h
1848 22-08-2013 23:00:00 16.675 C 11.94 g/m*3 16.68 C 0 km/h
1849 23-08-2013 00:00:00 16.125 C 11.79 g/m*3 16.13 C 0.13333 km/h
1850 23-08-2013 01:00:00 15.65833 C 11.58 g/m*3 15.66 C 0 km/h
Sensor: Nr:Datum:Temp:Abs-Feuchte:Windchill:Wind:
Aussen-T/F 1851 23-08-2013 02:00:00 15.19167 C 11.48 g/m*3 15.19 C 0 km/h
1852 23-08-2013 03:00:00 14.69167 C 11.24 g/m*3 14.69 C 0 km/h
1853 23-08-2013 04:00:00 14.59167 C 11.35 g/m*3 14.59 C 0 km/h
1854 23-08-2013 05:00:00 14.16667 C 11.14 g/m*3 14.17 C 0 km/h
1855 23-08-2013 06:00:00 13.55 C 10.95 g/m*3 13.55 C 0 km/h
1856 23-08-2013 07:00:00 13.2 C 10.75 g/m*3 13.2 C 0 km/h
1857 23-08-2013 08:00:00 14.71667 C 11.68 g/m*3 14.72 C 0 km/h
1858 23-08-2013 09:00:00 16.6 C 12.4 g/m*3 16.6 C 0.66667 km/h
1859 23-08-2013 10:00:00 17.95833 C 12.77 g/m*3 17.96 C 0.26667 km/h
1860 23-08-2013 11:00:00 19.00833 C 13.11 g/m*3 19.01 C 1.33333 km/h
1861 23-08-2013 12:00:00 21 C 13.13 g/m*3 21 C 3.20833 km/h
1862 23-08-2013 13:00:00 21.975 C 13.4 g/m*3 21.98 C 3.60833 km/h
1863 23-08-2013 14:00:00 24.925 C 12.61 g/m*3 24.93 C 8.60833 km/h
1864 23-08-2013 15:00:00 25.93333 C 11.91 g/m*3 25.93 C 6.83333 km/h
1865 23-08-2013 16:00:00 26.25833 C 11.32 g/m*3 26.26 C 6.7 km/h
1866 23-08-2013 17:00:00 24.6 C 12.55 g/m*3 24.6 C 4.94167 km/h
1867 23-08-2013 18:00:00 25.08333 C 12.14 g/m*3 25.08 C 5.49167 km/h
1868 23-08-2013 19:00:00 22.25833 C 13.12 g/m*3 22.26 C 1.73333 km/h
1869 23-08-2013 20:00:00 18.725 C 11.96 g/m*3 18.73 C 0.66667 km/h
1870 23-08-2013 21:00:00 17.5 C 11.39 g/m*3 17.5 C 0.66667 km/h
1871 23-08-2013 22:00:00 16.84167 C 11.5 g/m*3 16.84 C 0.26667 km/h
1872 23-08-2013 23:00:00 16.24167 C 11.31 g/m*3 16.24 C 0.13333 km/h
1873 24-08-2013 00:00:00 15.625 C 11.03 g/m*3 15.63 C 0 km/h
1874 24-08-2013 01:00:00 15.03333 C 10.95 g/m*3 15.03 C 0 km/h
1875 24-08-2013 02:00:00 14.575 C 10.88 g/m*3 14.58 C 0 km/h
Sensor: Nr:Datum:Temp:Abs-Feuchte:Windchill:Wind:
Aussen-T/F 1876 24-08-2013 03:00:00 13.68333 C 10.58 g/m*3 13.68 C 0 km/h
1877 24-08-2013 04:00:00 12.98333 C 10.38 g/m*3 12.98 C 0 km/h
1878 24-08-2013 05:00:00 12.50833 C 10.22 g/m*3 12.51 C 0 km/h
1879 24-08-2013 06:00:00 12.3 C 10.18 g/m*3 12.3 C 0 km/h
1880 24-08-2013 07:00:00 12.71667 C 10.55 g/m*3 12.72 C 0 km/h
1881 24-08-2013 08:00:00 14.075 C 11.27 g/m*3 14.08 C 0 km/h
1882 24-08-2013 09:00:00 15.825 C 11.73 g/m*3 15.83 C 0.13333 km/h
1883 24-08-2013 10:00:00 18.33333 C 12.08 g/m*3 18.33 C 5.75 km/h
1884 24-08-2013 11:00:00 20.075 C 12.44 g/m*3 20.08 C 4.93333 km/h
1885 24-08-2013 12:00:00 20.075 C 13.41 g/m*3 20.08 C 1.86667 km/h
1886 24-08-2013 13:00:00 20.65833 C 14.04 g/m*3 20.66 C 2.00833 km/h
1887 24-08-2013 14:00:00 18.175 C 14.16 g/m*3 18.18 C 0.13333 km/h
1888 24-08-2013 15:00:00 17.275 C 14.01 g/m*3 17.27 C 0 km/h
1889 24-08-2013 16:00:00 17.25 C 14.04 g/m*3 17.25 C 0.53333 km/h
1890 24-08-2013 17:00:00 17.13333 C 14 g/m*3 17.13 C 0.8 km/h
1891 24-08-2013 18:00:00 17.99167 C 14.47 g/m*3 17.99 C 2.13333 km/h
1892 24-08-2013 19:00:00 17.50833 C 14 g/m*3 17.51 C 0 km/h
1893 24-08-2013 20:00:00 16.15833 C 13.09 g/m*3 16.16 C 0 km/h
1894 24-08-2013 21:00:00 15.425 C 12.69 g/m*3 15.43 C 0 km/h
1895 24-08-2013 22:00:00 15.38333 C 12.73 g/m*3 15.38 C 0 km/h
1896 24-08-2013 23:00:00 15.68333 C 13.01 g/m*3 15.68 C 0 km/h
1897 25-08-2013 00:00:00 15.775 C 13.15 g/m*3 15.78 C 0.26667 km/h
1898 25-08-2013 01:00:00 15.33333 C 12.71 g/m*3 15.33 C 0 km/h
1899 25-08-2013 02:00:00 15.23333 C 12.75 g/m*3 15.23 C 0.13333 km/h
1900 25-08-2013 03:00:00 15.48333 C 12.94 g/m*3 15.48 C 0 km/h
Sensor: Nr:Datum:Temp:Abs-Feuchte:Windchill:Wind:
Aussen-T/F 1901 25-08-2013 04:00:00 15.46667 C 12.93 g/m*3 15.47 C 0 km/h
1902 25-08-2013 05:00:00 15.3 C 12.8 g/m*3 15.3 C 0 km/h
1903 25-08-2013 06:00:00 14.78333 C 12.4 g/m*3 14.78 C 0 km/h
1904 25-08-2013 07:00:00 14.6 C 12.26 g/m*3 14.6 C 0 km/h
1905 25-08-2013 08:00:00 14.625 C 12.28 g/m*3 14.63 C 3.2 km/h
1906 25-08-2013 09:00:00 15.16667 C 12.54 g/m*3 15.17 C 5.76667 km/h
1907 25-08-2013 10:00:00 16.09167 C 12.73 g/m*3 16.09 C 4.26667 km/h
1908 25-08-2013 11:00:00 17.08333 C 12.94 g/m*3 17.08 C 4.26667 km/h
1909 25-08-2013 12:00:00 17.01667 C 13.35 g/m*3 17.02 C 0.66667 km/h
1910 25-08-2013 13:00:00 17.55 C 13.27 g/m*3 17.55 C 6.56667 km/h
1911 25-08-2013 14:00:00 17.85 C 13.46 g/m*3 17.85 C 4.53333 km/h
1912 25-08-2013 15:00:00 17.41667 C 13.39 g/m*3 17.42 C 2.93333 km/h
1913 25-08-2013 16:00:00 16.875 C 13.5 g/m*3 16.88 C 2.26667 km/h
1914 25-08-2013 17:00:00 17.05833 C 13.65 g/m*3 17.06 C 1.86667 km/h
1915 25-08-2013 18:00:00 16.76667 C 13.56 g/m*3 16.77 C 1.6 km/h
1916 25-08-2013 19:00:00 16.36667 C 13.37 g/m*3 16.37 C 0.4 km/h
1917 25-08-2013 20:00:00 16.075 C 13.25 g/m*3 16.08 C 0.13333 km/h
1918 25-08-2013 21:00:00 15.91667 C 13.15 g/m*3 15.92 C 0 km/h
1919 25-08-2013 22:00:00 15.9 C 13.14 g/m*3 15.9 C 0.66667 km/h
1920 25-08-2013 23:00:00 15.9 C 13.18 g/m*3 15.9 C 0.13333 km/h
1921 26-08-2013 00:00:00 15.9 C 13.27 g/m*3 15.9 C 0 km/h
1922 26-08-2013 01:00:00 15.9 C 13.27 g/m*3 15.9 C 0.26667 km/h
1923 26-08-2013 02:00:00 15.875 C 13.25 g/m*3 15.88 C 0 km/h
1924 26-08-2013 03:00:00 15.85 C 13.23 g/m*3 15.85 C 1.06667 km/h
1925 26-08-2013 04:00:00 15.60833 C 13.04 g/m*3 15.61 C 0.66667 km/h
Sensor: Nr:Datum:Temp:Abs-Feuchte:Windchill:Wind:
Aussen-T/F 1926 26-08-2013 05:00:00 15.31667 C 12.81 g/m*3 15.32 C 0.53333 km/h
1927 26-08-2013 06:00:00 14.925 C 12.5 g/m*3 14.93 C 0.4 km/h
1928 26-08-2013 07:00:00 14.51667 C 12.18 g/m*3 14.52 C 0 km/h
1929 26-08-2013 08:00:00 14.35833 C 12.08 g/m*3 14.36 C 0 km/h
1930 26-08-2013 09:00:00 14.36667 C 12.09 g/m*3 14.37 C 0.4 km/h
1931 26-08-2013 10:00:00 14.6 C 12.16 g/m*3 14.6 C 0.66667 km/h
1932 26-08-2013 11:00:00 14.69167 C 12.21 g/m*3 14.69 C 0 km/h
1933 26-08-2013 12:00:00 15.16667 C 12.61 g/m*3 15.17 C 0.13333 km/h
1934 26-08-2013 13:00:00 14.875 C 12.14 g/m*3 14.88 C 0.4 km/h
1935 26-08-2013 14:00:00 14.6 C 12.01 g/m*3 14.6 C 1.475 km/h
1936 26-08-2013 15:00:00 15.3 C 12.57 g/m*3 15.3 C 1.34167 km/h
1937 26-08-2013 16:00:00 16.975 C 12.83 g/m*3 16.98 C 4.56667 km/h
1938 26-08-2013 17:00:00 15.68333 C 12.66 g/m*3 15.68 C 0 km/h
1939 26-08-2013 18:00:00 15.76667 C 12.84 g/m*3 15.77 C 0 km/h
1940 26-08-2013 19:00:00 15.30833 C 12.49 g/m*3 15.31 C 0 km/h
1941 26-08-2013 20:00:00 14.93333 C 12.26 g/m*3 14.93 C 0 km/h
1942 26-08-2013 21:00:00 14.68333 C 12.07 g/m*3 14.68 C 0 km/h
1943 26-08-2013 22:00:00 14.45833 C 11.84 g/m*3 14.46 C 0 km/h
1944 26-08-2013 23:00:00 14.375 C 11.85 g/m*3 14.38 C 0 km/h
1945 27-08-2013 00:00:00 14.15 C 11.7 g/m*3 14.15 C 0 km/h
1946 27-08-2013 01:00:00 13.925 C 11.58 g/m*3 13.93 C 0 km/h
1947 27-08-2013 02:00:00 13.43333 C 11.28 g/m*3 13.43 C 0 km/h
1948 27-08-2013 03:00:00 13.09167 C 11.06 g/m*3 13.09 C 0 km/h
1949 27-08-2013 04:00:00 13.29167 C 11.2 g/m*3 13.29 C 0 km/h
1950 27-08-2013 05:00:00 13.34167 C 11.24 g/m*3 13.34 C 0 km/h
Sensor: Nr:Datum:Temp:Abs-Feuchte:Windchill:Wind:
Aussen-T/F 1951 27-08-2013 06:00:00 13.15 C 11.1 g/m*3 13.15 C 0 km/h
1952 27-08-2013 07:00:00 13.46667 C 11.4 g/m*3 13.47 C 0 km/h
1953 27-08-2013 08:00:00 14.31667 C 11.96 g/m*3 14.32 C 0 km/h
1954 27-08-2013 09:00:00 14.96667 C 11.98 g/m*3 14.97 C 0.4 km/h
1955 27-08-2013 10:00:00 15.99167 C 11.94 g/m*3 15.99 C 0.13333 km/h
1956 27-08-2013 11:00:00 16.44167 C 12.45 g/m*3 16.44 C 0 km/h
1957 27-08-2013 12:00:00 15.95833 C 12.64 g/m*3 15.96 C 0 km/h
1958 27-08-2013 13:00:00 17.25 C 12.79 g/m*3 17.25 C 0.53333 km/h
1959 27-08-2013 14:00:00 19.04167 C 12.33 g/m*3 19.04 C 1.33333 km/h
1960 27-08-2013 15:00:00 20.325 C 12.78 g/m*3 20.33 C 3.21667 km/h
1961 27-08-2013 16:00:00 21.69167 C 12.2 g/m*3 21.69 C 4.54167 km/h
1962 27-08-2013 17:00:00 20.31667 C 13.36 g/m*3 20.32 C 2.26667 km/h
1963 27-08-2013 18:00:00 17.63333 C 13.35 g/m*3 17.63 C 0 km/h
1964 27-08-2013 19:00:00 16.64167 C 12.91 g/m*3 16.64 C 0.13333 km/h
1965 27-08-2013 20:00:00 16.05 C 12.52 g/m*3 16.05 C 0 km/h
1966 27-08-2013 21:00:00 15.825 C 12.35 g/m*3 15.83 C 0 km/h
1967 27-08-2013 22:00:00 15.70833 C 12.34 g/m*3 15.71 C 0 km/h
1968 27-08-2013 23:00:00 15.225 C 12.17 g/m*3 15.23 C 0 km/h
1969 28-08-2013 00:00:00 15.16667 C 12.26 g/m*3 15.17 C 0 km/h
1970 28-08-2013 01:00:00 14.28333 C 11.41 g/m*3 14.28 C 0 km/h
1971 28-08-2013 02:00:00 14.10833 C 11.36 g/m*3 14.11 C 0 km/h
1972 28-08-2013 03:00:00 13.475 C 10.88 g/m*3 13.48 C 0 km/h
1973 28-08-2013 04:00:00 12.80833 C 10.69 g/m*3 12.81 C 0 km/h
1974 28-08-2013 05:00:00 12.50833 C 10.58 g/m*3 12.51 C 0 km/h
1975 28-08-2013 06:00:00 12.01667 C 10.26 g/m*3 12.02 C 0 km/h
Sensor: Nr:Datum:Temp:Abs-Feuchte:Windchill:Wind:
Aussen-T/F 1976 28-08-2013 07:00:00 11.85833 C 10.25 g/m*3 11.86 C 0 km/h
1977 28-08-2013 08:00:00 12.275 C 10.52 g/m*3 12.28 C 0 km/h
1978 28-08-2013 09:00:00 13.225 C 11.06 g/m*3 13.23 C 0 km/h
1979 28-08-2013 10:00:00 14.59167 C 11.65 g/m*3 14.59 C 1.46667 km/h
1980 28-08-2013 11:00:00 16.55 C 11.95 g/m*3 16.55 C 3.46667 km/h
1981 28-08-2013 12:00:00 18.20833 C 12.22 g/m*3 18.21 C 2 km/h
1982 28-08-2013 13:00:00 19.23333 C 12.6 g/m*3 19.23 C 1.06667 km/h
1983 28-08-2013 14:00:00 20.65833 C 12.65 g/m*3 20.66 C 2.53333 km/h
1984 28-08-2013 15:00:00 22.00833 C 11.99 g/m*3 22.01 C 3.2 km/h
1985 28-08-2013 16:00:00 21.5 C 11.46 g/m*3 21.5 C 4.825 km/h
1986 28-08-2013 17:00:00 18.68333 C 13.18 g/m*3 18.68 C 0 km/h
1987 28-08-2013 18:00:00 17.75 C 12.77 g/m*3 17.75 C 0.13333 km/h
1988 28-08-2013 19:00:00 16.9 C 12.59 g/m*3 16.9 C 0.13333 km/h
1989 28-08-2013 20:00:00 15.70833 C 12.04 g/m*3 15.71 C 0.4 km/h
1990 28-08-2013 21:00:00 14.75833 C 11.53 g/m*3 14.76 C 0 km/h
1991 28-08-2013 22:00:00 14.03333 C 11.22 g/m*3 14.03 C 0 km/h
1992 28-08-2013 23:00:00 13.36667 C 10.87 g/m*3 13.37 C 0 km/h
1993 29-08-2013 00:00:00 12.725 C 10.54 g/m*3 12.73 C 0 km/h
1994 29-08-2013 01:00:00 12.275 C 10.35 g/m*3 12.28 C 0 km/h
1995 29-08-2013 02:00:00 11.84167 C 10.13 g/m*3 11.84 C 0 km/h
1996 29-08-2013 03:00:00 11.49167 C 9.93 g/m*3 11.49 C 0 km/h
1997 29-08-2013 04:00:00 11.06667 C 9.67 g/m*3 11.07 C 0.13333 km/h
1998 29-08-2013 05:00:00 10.625 C 9.47 g/m*3 10.63 C 0 km/h
1999 29-08-2013 06:00:00 10.15833 C 9.21 g/m*3 10.16 C 0 km/h
2000 29-08-2013 07:00:00 10.13333 C 9.19 g/m*3 10.13 C 1.06667 km/h
Sensor: Nr:Datum:Temp:Abs-Feuchte:Windchill:Wind:
Aussen-T/F 2001 29-08-2013 08:00:00 10.59167 C 9.49 g/m*3 10.59 C 1.06667 km/h
2002 29-08-2013 09:00:00 11.325 C 9.98 g/m*3 11.33 C 1.86667 km/h
2003 29-08-2013 10:00:00 12.24167 C 10.53 g/m*3 12.24 C 1.46667 km/h
2004 29-08-2013 11:00:00 14.35833 C 11.68 g/m*3 14.36 C 0.66667 km/h
2005 29-08-2013 12:00:00 16.54167 C 12.88 g/m*3 16.54 C 0.13333 km/h
2006 29-08-2013 13:00:00 18.225 C 13.43 g/m*3 18.23 C 0.4 km/h
2007 29-08-2013 14:00:00 18.75 C 12.9 g/m*3 18.75 C 0 km/h
2008 29-08-2013 15:00:00 21.76667 C 12.59 g/m*3 21.77 C 4.025 km/h
2009 29-08-2013 16:00:00 21.06667 C 13.67 g/m*3 21.07 C 1.86667 km/h
2010 29-08-2013 17:00:00 19.88333 C 14.06 g/m*3 19.88 C 0.26667 km/h
2011 29-08-2013 18:00:00 18.61667 C 13.83 g/m*3 18.62 C 0.13333 km/h
2012 29-08-2013 19:00:00 17.53333 C 12.96 g/m*3 17.53 C 0.26667 km/h
2013 29-08-2013 20:00:00 16.625 C 12.28 g/m*3 16.63 C 0 km/h
2014 29-08-2013 21:00:00 15.9 C 11.75 g/m*3 15.9 C 0 km/h
2015 29-08-2013 22:00:00 15.3 C 11.67 g/m*3 15.3 C 0 km/h
2016 29-08-2013 23:00:00 14.73333 C 11.64 g/m*3 14.73 C 0 km/h
2017 30-08-2013 00:00:00 14.01667 C 11.22 g/m*3 14.02 C 0 km/h
2018 30-08-2013 01:00:00 13.29167 C 10.81 g/m*3 13.29 C 0 km/h
2019 30-08-2013 02:00:00 12.725 C 10.55 g/m*3 12.73 C 0 km/h
2020 30-08-2013 03:00:00 12.28333 C 10.31 g/m*3 12.28 C 0 km/h
2021 30-08-2013 04:00:00 11.825 C 10.12 g/m*3 11.83 C 0.26667 km/h
2022 30-08-2013 05:00:00 11.44167 C 9.88 g/m*3 11.44 C 0 km/h
2023 30-08-2013 06:00:00 11.025 C 9.63 g/m*3 11.03 C 0 km/h
2024 30-08-2013 07:00:00 10.875 C 9.63 g/m*3 10.88 C 0 km/h
2025 30-08-2013 08:00:00 11.36667 C 9.94 g/m*3 11.37 C 0.13333 km/h
Sensor: Nr:Datum:Temp:Abs-Feuchte:Windchill:Wind:
Aussen-T/F 2026 30-08-2013 09:00:00 12.44167 C 10.62 g/m*3 12.44 C 0 km/h
2027 30-08-2013 10:00:00 13.78333 C 11.4 g/m*3 13.78 C 0 km/h
2028 30-08-2013 11:00:00 15.20833 C 12.13 g/m*3 15.21 C 0 km/h
2029 30-08-2013 12:00:00 16.71667 C 12.71 g/m*3 16.72 C 0 km/h
2030 30-08-2013 13:00:00 18.61667 C 13.33 g/m*3 18.62 C 0.4 km/h
2031 30-08-2013 14:00:00 20.975 C 13.78 g/m*3 20.98 C 1.6 km/h
2032 30-08-2013 15:00:00 23.15 C 12.56 g/m*3 23.15 C 5.10833 km/h
2033 30-08-2013 16:00:00 20.88333 C 13.48 g/m*3 20.88 C 1.06667 km/h
2034 30-08-2013 17:00:00 20.13333 C 13.31 g/m*3 20.13 C 2.26667 km/h
2035 30-08-2013 18:00:00 19.6 C 13.11 g/m*3 19.6 C 2.4 km/h
2036 30-08-2013 19:00:00 19.01667 C 13.43 g/m*3 19.02 C 1.2 km/h
2037 30-08-2013 20:00:00 17.98333 C 13.03 g/m*3 17.98 C 0.4 km/h
2038 30-08-2013 21:00:00 17.31667 C 12.6 g/m*3 17.32 C 0 km/h
2039 30-08-2013 22:00:00 16.9 C 12.45 g/m*3 16.9 C 0 km/h
2040 30-08-2013 23:00:00 16.16667 C 12.05 g/m*3 16.17 C 0 km/h
2041 31-08-2013 00:00:00 15.30833 C 11.56 g/m*3 15.31 C 0 km/h
2042 31-08-2013 01:00:00 14.28333 C 11.13 g/m*3 14.28 C 0 km/h
2043 31-08-2013 02:00:00 14.375 C 11.13 g/m*3 14.38 C 0.53333 km/h
2044 31-08-2013 03:00:00 13.975 C 10.91 g/m*3 13.98 C 1.33333 km/h
2045 31-08-2013 04:00:00 13.35 C 10.65 g/m*3 13.35 C 0 km/h
2046 31-08-2013 05:00:00 12.88333 C 10.47 g/m*3 12.88 C 0.26667 km/h
2047 31-08-2013 06:00:00 12.5 C 10.29 g/m*3 12.5 C 1.46667 km/h
2048 31-08-2013 07:00:00 12.68333 C 10.41 g/m*3 12.68 C 2.53333 km/h
2049 31-08-2013 08:00:00 13.725 C 10.75 g/m*3 13.73 C 2.13333 km/h
2050 31-08-2013 09:00:00 15.225 C 11.28 g/m*3 15.23 C 5.08333 km/h
Sensor: Nr:Datum:Temp:Abs-Feuchte:Windchill:Wind:
Aussen-T/F 2051 31-08-2013 10:00:00 16.95833 C 11.76 g/m*3 16.96 C 7.125 km/h
2052 31-08-2013 11:00:00 18.69167 C 12.31 g/m*3 18.69 C 8.74167 km/h
2053 31-08-2013 12:00:00 19.5 C 12.53 g/m*3 19.5 C 6.16667 km/h
2054 31-08-2013 13:00:00 19.45833 C 13.02 g/m*3 19.46 C 2.4 km/h
2055 31-08-2013 14:00:00 19.5 C 13.05 g/m*3 19.5 C 4.825 km/h
2056 31-08-2013 15:00:00 19.05 C 13.84 g/m*3 19.05 C 0.66667 km/h
2057 31-08-2013 16:00:00 17.93333 C 14.11 g/m*3 17.93 C 2 km/h
2058 31-08-2013 17:00:00 18.44167 C 14.74 g/m*3 18.44 C 0 km/h
2059 31-08-2013 18:00:00 18.85833 C 13.88 g/m*3 18.86 C 4.96667 km/h
2060 31-08-2013 19:00:00 18.825 C 13.37 g/m*3 18.83 C 2.00833 km/h
2061 31-08-2013 20:00:00 16.8 C 13.09 g/m*3 16.8 C 0.13333 km/h
2062 31-08-2013 21:00:00 16.80833 C 12.78 g/m*3 16.81 C 2.28333 km/h
2063 31-08-2013 22:00:00 16.94167 C 11.45 g/m*3 16.94 C 4.425 km/h
2064 31-08-2013 23:00:00 15.9 C 9.97 g/m*3 15.9 C 4.40833 km/h
2065 01-09-2013 00:00:00 14.8 C 9.86 g/m*3 14.8 C 4.28333 km/h
2066 01-09-2013 01:00:00 14.41667 C 9.67 g/m*3 14.42 C 4.13333 km/h
2067 01-09-2013 02:00:00 13.025 C 9.51 g/m*3 13.03 C 1.475 km/h
2068 01-09-2013 03:00:00 11.66667 C 9.13 g/m*3 11.67 C 0.26667 km/h
2069 01-09-2013 04:00:00 10.94167 C 8.91 g/m*3 10.94 C 0 km/h
2070 01-09-2013 05:00:00 10.6 C 8.75 g/m*3 10.6 C 0.66667 km/h
2071 01-09-2013 06:00:00 10.68333 C 8.74 g/m*3 10.68 C 0 km/h
2072 01-09-2013 07:00:00 10.825 C 8.92 g/m*3 10.83 C 0 km/h
2073 01-09-2013 08:00:00 11.99167 C 9.11 g/m*3 11.99 C 1.2 km/h
2074 01-09-2013 09:00:00 13.20833 C 9.25 g/m*3 13.21 C 3.86667 km/h
2075 01-09-2013 10:00:00 13.93333 C 9.03 g/m*3 13.93 C 6.3 km/h
Sensor: Nr:Datum:Temp:Abs-Feuchte:Windchill:Wind:
Aussen-T/F 2076 01-09-2013 11:00:00 15.35 C 8.7 g/m*3 15.35 C 8.6 km/h
2077 01-09-2013 12:00:00 16.3 C 8.51 g/m*3 16.3 C 9.00833 km/h
2078 01-09-2013 13:00:00 17.15833 C 8.45 g/m*3 17.16 C 9.95 km/h
2079 01-09-2013 14:00:00 17.99167 C 8.51 g/m*3 17.99 C 9.68333 km/h
2080 01-09-2013 15:00:00 18.45 C 8.12 g/m*3 18.45 C 9.95833 km/h
2081 01-09-2013 16:00:00 18.56667 C 8 g/m*3 18.57 C 8.60833 km/h
2082 01-09-2013 17:00:00 18.55833 C 8.37 g/m*3 18.56 C 5.75833 km/h
2083 01-09-2013 18:00:00 17.81667 C 9.28 g/m*3 17.82 C 4.55 km/h
2084 01-09-2013 19:00:00 16.31667 C 9.51 g/m*3 16.32 C 2.93333 km/h
2085 01-09-2013 20:00:00 14.225 C 9.48 g/m*3 14.23 C 0.4 km/h
2086 01-09-2013 21:00:00 13.84167 C 9.35 g/m*3 13.84 C 0.13333 km/h
2087 01-09-2013 22:00:00 13.575 C 9.32 g/m*3 13.58 C 0 km/h
2088 01-09-2013 23:00:00 13.98333 C 9.31 g/m*3 13.98 C 1.6 km/h
2089 02-09-2013 00:00:00 13.65 C 9.43 g/m*3 13.65 C 0.26667 km/h
2090 02-09-2013 01:00:00 13.35 C 9.18 g/m*3 13.35 C 0.26667 km/h
2091 02-09-2013 02:00:00 13.26667 C 9.17 g/m*3 13.27 C 1.2 km/h
2092 02-09-2013 03:00:00 12.9 C 9.2 g/m*3 12.9 C 1.2 km/h
2093 02-09-2013 04:00:00 12.65833 C 9.1 g/m*3 12.66 C 0.8 km/h
2094 02-09-2013 05:00:00 12.8 C 9.09 g/m*3 12.8 C 1.73333 km/h
2095 02-09-2013 06:00:00 13.25833 C 8.93 g/m*3 13.26 C 8.475 km/h
2096 02-09-2013 07:00:00 13.53333 C 8.92 g/m*3 13.53 C 9.01667 km/h
2097 02-09-2013 08:00:00 13.53333 C 9.03 g/m*3 13.53 C 9.00833 km/h
2098 02-09-2013 09:00:00 14.24167 C 9.31 g/m*3 14.24 C 9.54167 km/h
2099 02-09-2013 10:00:00 15.45 C 9.91 g/m*3 15.45 C 7.93333 km/h
2100 02-09-2013 11:00:00 16.66667 C 10.2 g/m*3 16.67 C 8.19167 km/h
Sensor: Nr:Datum:Temp:Abs-Feuchte:Windchill:Wind:
Aussen-T/F 2101 02-09-2013 12:00:00 18.85 C 10.39 g/m*3 18.85 C 8.86667 km/h
2102 02-09-2013 13:00:00 21.51667 C 10.4 g/m*3 21.52 C 10.34167 km/h
2103 02-09-2013 14:00:00 22.28333 C 10.72 g/m*3 22.28 C 10.09167 km/h
2104 02-09-2013 15:00:00 23.21667 C 10.7 g/m*3 23.22 C 8.19167 km/h
2105 02-09-2013 16:00:00 23.90833 C 10.88 g/m*3 23.91 C 9.00833 km/h
2106 02-09-2013 17:00:00 23.96667 C 11.36 g/m*3 23.97 C 10.76667 km/h
2107 02-09-2013 18:00:00 23.4 C 11.25 g/m*3 23.4 C 10.35833 km/h
2108 02-09-2013 19:00:00 21.775 C 11.38 g/m*3 21.78 C 7.65 km/h
2109 02-09-2013 20:00:00 20.64167 C 11.53 g/m*3 20.64 C 6.58333 km/h
2110 02-09-2013 21:00:00 18.625 C 12.18 g/m*3 18.63 C 0.53333 km/h
2111 02-09-2013 22:00:00 18.19167 C 12.36 g/m*3 18.19 C 0.13333 km/h
2112 02-09-2013 23:00:00 18.05833 C 12.38 g/m*3 18.06 C 0.13333 km/h
2113 03-09-2013 00:00:00 17.65833 C 12.3 g/m*3 17.66 C 0.26667 km/h
2114 03-09-2013 01:00:00 16.925 C 12.12 g/m*3 16.93 C 1.46667 km/h
2115 03-09-2013 02:00:00 16.35833 C 11.94 g/m*3 16.36 C 0.8 km/h
2116 03-09-2013 03:00:00 15.59167 C 11.65 g/m*3 15.59 C 0.66667 km/h
2117 03-09-2013 04:00:00 14.775 C 11.44 g/m*3 14.78 C 0 km/h
2118 03-09-2013 05:00:00 14.01667 C 11.1 g/m*3 14.02 C 0 km/h
2119 03-09-2013 06:00:00 13.58333 C 10.88 g/m*3 13.58 C 0 km/h
2120 03-09-2013 07:00:00 13.2 C 10.75 g/m*3 13.2 C 1.60833 km/h
2121 03-09-2013 08:00:00 13.41667 C 10.88 g/m*3 13.42 C 1.46667 km/h
2122 03-09-2013 09:00:00 15.05 C 11.6 g/m*3 15.05 C 3.61667 km/h
2123 03-09-2013 10:00:00 17.69167 C 12.32 g/m*3 17.69 C 0.4 km/h
2124 03-09-2013 11:00:00 19.33333 C 12.51 g/m*3 19.33 C 2.66667 km/h
2125 03-09-2013 12:00:00 20.35 C 12.94 g/m*3 20.35 C 3.46667 km/h
Sensor: Nr:Datum:Temp:Abs-Feuchte:Windchill:Wind:
Aussen-T/F 2126 03-09-2013 13:00:00 21.75833 C 13.06 g/m*3 21.76 C 5.475 km/h
2127 03-09-2013 14:00:00 22.85833 C 13.12 g/m*3 22.86 C 6.025 km/h
2128 03-09-2013 15:00:00 23.48333 C 13.42 g/m*3 23.48 C 8.18333 km/h
2129 03-09-2013 16:00:00 23.66667 C 13.65 g/m*3 23.67 C 9.41667 km/h
2130 03-09-2013 17:00:00 23.925 C 13.52 g/m*3 23.93 C 8.60833 km/h
2131 03-09-2013 18:00:00 23.65833 C 13.43 g/m*3 23.66 C 8.34167 km/h
2132 03-09-2013 19:00:00 20.91667 C 13.69 g/m*3 20.92 C 0.66667 km/h
2133 03-09-2013 20:00:00 17.86667 C 12.89 g/m*3 17.87 C 0 km/h
2134 03-09-2013 21:00:00 16.75833 C 12.44 g/m*3 16.76 C 0 km/h
2135 03-09-2013 22:00:00 16.01667 C 12.18 g/m*3 16.02 C 0 km/h
2136 03-09-2013 23:00:00 15.13333 C 11.86 g/m*3 15.13 C 0 km/h
2137 04-09-2013 00:00:00 14.49167 C 11.55 g/m*3 14.49 C 0 km/h
2138 04-09-2013 01:00:00 14.00833 C 11.38 g/m*3 14.01 C 0 km/h
2139 04-09-2013 02:00:00 13.475 C 11.09 g/m*3 13.48 C 0 km/h
2140 04-09-2013 03:00:00 13.05833 C 10.9 g/m*3 13.06 C 0 km/h
2141 04-09-2013 04:00:00 12.78333 C 10.74 g/m*3 12.78 C 0 km/h
2142 04-09-2013 05:00:00 12.45833 C 10.53 g/m*3 12.46 C 0 km/h
2143 04-09-2013 06:00:00 12.10833 C 10.32 g/m*3 12.11 C 0 km/h
2144 04-09-2013 07:00:00 12.30833 C 10.54 g/m*3 12.31 C 0 km/h
2145 04-09-2013 08:00:00 12.68333 C 10.79 g/m*3 12.68 C 0.8 km/h
2146 04-09-2013 09:00:00 13.3 C 11.22 g/m*3 13.3 C 0.93333 km/h
2147 04-09-2013 10:00:00 14.30833 C 11.92 g/m*3 14.31 C 0 km/h
2148 04-09-2013 11:00:00 16.19167 C 13.31 g/m*3 16.19 C 0 km/h
2149 04-09-2013 12:00:00 18.61667 C 14.64 g/m*3 18.62 C 0.26667 km/h
2150 04-09-2013 13:00:00 23.81667 C 14.91 g/m*3 23.82 C 4.28333 km/h
Sensor: Nr:Datum:Temp:Abs-Feuchte:Windchill:Wind:
Aussen-T/F 2151 04-09-2013 14:00:00 25.275 C 14.49 g/m*3 25.28 C 5.61667 km/h
2152 04-09-2013 15:00:00 26.675 C 14.47 g/m*3 26.68 C 4.81667 km/h
2153 04-09-2013 16:00:00 27.21667 C 14.54 g/m*3 27.22 C 5.89167 km/h
2154 04-09-2013 17:00:00 24.63333 C 15.65 g/m*3 24.63 C 2.8 km/h
2155 04-09-2013 18:00:00 23.93333 C 15.46 g/m*3 23.93 C 1.73333 km/h
2156 04-09-2013 19:00:00 21.875 C 14.76 g/m*3 21.88 C 0.53333 km/h
2157 04-09-2013 20:00:00 19.66667 C 13.73 g/m*3 19.67 C 0.4 km/h
2158 04-09-2013 21:00:00 18.68333 C 13.4 g/m*3 18.68 C 0 km/h
2159 04-09-2013 22:00:00 17.63333 C 13 g/m*3 17.63 C 0 km/h
2160 04-09-2013 23:00:00 16.7 C 12.57 g/m*3 16.7 C 0 km/h
2161 05-09-2013 00:00:00 15.8 C 12.31 g/m*3 15.8 C 0 km/h
2162 05-09-2013 01:00:00 15.175 C 11.99 g/m*3 15.18 C 0 km/h
2163 05-09-2013 02:00:00 14.6 C 11.77 g/m*3 14.6 C 0 km/h
2164 05-09-2013 03:00:00 14.14167 C 11.56 g/m*3 14.14 C 0 km/h
2165 05-09-2013 04:00:00 13.65833 C 11.29 g/m*3 13.66 C 0 km/h
2166 05-09-2013 05:00:00 13.18333 C 11.01 g/m*3 13.18 C 0 km/h
2167 05-09-2013 06:00:00 12.79167 C 10.75 g/m*3 12.79 C 0 km/h
2168 05-09-2013 07:00:00 12.70833 C 10.78 g/m*3 12.71 C 0 km/h
2169 05-09-2013 08:00:00 13.15 C 11.1 g/m*3 13.15 C 0 km/h
2170 05-09-2013 09:00:00 14.4 C 12.05 g/m*3 14.4 C 0 km/h
2171 05-09-2013 10:00:00 16.125 C 13.38 g/m*3 16.13 C 0 km/h
2172 05-09-2013 11:00:00 18.63333 C 14.7 g/m*3 18.63 C 1.6 km/h
2173 05-09-2013 12:00:00 21.30833 C 15.59 g/m*3 21.31 C 3.075 km/h
2174 05-09-2013 13:00:00 25.84167 C 16.03 g/m*3 25.84 C 5.75833 km/h
2175 05-09-2013 14:00:00 27.24167 C 15.71 g/m*3 27.24 C 5.61667 km/h
Sensor: Nr:Datum:Temp:Abs-Feuchte:Windchill:Wind:
Aussen-T/F 2176 05-09-2013 15:00:00 28.56667 C 15.71 g/m*3 28.57 C 5.9 km/h
2177 05-09-2013 16:00:00 29.38889 C 15.06 g/m*3 29.39 C 6.07778 km/h
2178 05-09-2013 18:00:00 21.325 C 12.79 g/m*3 21.33 C 32.2 km/h
2179 05-09-2013 19:00:00 22.68333 C 14.87 g/m*3 22.68 C 7.1 km/h
2180 05-09-2013 20:00:00 21.23333 C 14.33 g/m*3 21.23 C 1.6 km/h
2181 05-09-2013 21:00:00 20.58333 C 13.98 g/m*3 20.58 C 0.8 km/h
2182 05-09-2013 22:00:00 19.65 C 13.59 g/m*3 19.65 C 1.2 km/h
2183 05-09-2013 23:00:00 19.31 C 13.53 g/m*3 19.31 C 0.96 km/h
2184 06-09-2013 00:00:00 18.2 C 12.75 g/m*3 18.2 C 0 km/h
2185 06-09-2013 07:00:00 14.4 C 11.74 g/m*3 14.4 C 0 km/h
2186 06-09-2013 08:00:00 14.825 C 12.06 g/m*3 14.83 C 0 km/h
2187 06-09-2013 09:00:00 16.00833 C 12.88 g/m*3 16.01 C 0 km/h
2188 06-09-2013 10:00:00 17.90833 C 13.81 g/m*3 17.91 C 0 km/h
2189 06-09-2013 11:00:00 19.59167 C 15.03 g/m*3 19.59 C 0 km/h
2190 06-09-2013 12:00:00 21.55833 C 16.11 g/m*3 21.56 C 0.53333 km/h
2191 06-09-2013 13:00:00 24.31667 C 16.82 g/m*3 24.32 C 4.29167 km/h
2192 06-09-2013 14:00:00 27.48333 C 16.15 g/m*3 27.48 C 5.1 km/h
2193 06-09-2013 15:00:00 28.88333 C 15.25 g/m*3 28.88 C 4.81667 km/h
2194 06-09-2013 16:00:00 29.73636 C 15.6 g/m*3 29.74 C 5.7 km/h
2195 06-09-2013 17:00:00 29.28333 C 15.8 g/m*3 29.28 C 3.88333 km/h
2196 06-09-2013 18:00:00 25.74167 C 15.68 g/m*3 25.74 C 2.26667 km/h
2197 06-09-2013 19:00:00 25.1 C 14.41 g/m*3 25.1 C 2.13333 km/h
2198 06-09-2013 20:00:00 22.625 C 14.25 g/m*3 22.63 C 0.93333 km/h
2199 06-09-2013 21:00:00 21.83333 C 14.37 g/m*3 21.83 C 0.26667 km/h
2200 06-09-2013 22:00:00 20.80833 C 14.04 g/m*3 20.81 C 0.4 km/h
Sensor: Nr:Datum:Temp:Abs-Feuchte:Windchill:Wind:
Aussen-T/F 2201 06-09-2013 23:00:00 19.99167 C 13.85 g/m*3 19.99 C 0.26667 km/h
2202 07-09-2013 00:00:00 18.825 C 13.7 g/m*3 18.83 C 0.53333 km/h
2203 07-09-2013 01:00:00 17.91667 C 13.48 g/m*3 17.92 C 0 km/h
2204 07-09-2013 02:00:00 17.39167 C 13.18 g/m*3 17.39 C 1.35 km/h
2205 07-09-2013 03:00:00 17.36667 C 12.99 g/m*3 17.37 C 5.50833 km/h
2206 07-09-2013 04:00:00 17.10833 C 12.93 g/m*3 17.11 C 0.8 km/h
2207 07-09-2013 05:00:00 17.16667 C 12.89 g/m*3 17.17 C 2.54167 km/h
2208 07-09-2013 06:00:00 16.75833 C 12.85 g/m*3 16.76 C 1.86667 km/h
2209 07-09-2013 07:00:00 17.125 C 13.44 g/m*3 17.13 C 1.46667 km/h
2210 07-09-2013 08:00:00 16.88333 C 13.59 g/m*3 16.88 C 0.26667 km/h
2211 07-09-2013 09:00:00 16.93333 C 13.84 g/m*3 16.93 C 0 km/h
2212 07-09-2013 10:00:00 17.625 C 14.52 g/m*3 17.63 C 0 km/h
2213 07-09-2013 11:00:00 18.80833 C 15.2 g/m*3 18.81 C 1.73333 km/h
2214 07-09-2013 12:00:00 20.15 C 15.65 g/m*3 20.15 C 1.2 km/h
2215 07-09-2013 13:00:00 21.18333 C 16.23 g/m*3 21.18 C 0.93333 km/h
2216 07-09-2013 14:00:00 22.11667 C 16.67 g/m*3 22.12 C 2 km/h
2217 07-09-2013 15:00:00 20.90833 C 16.82 g/m*3 20.91 C 0 km/h
2218 07-09-2013 16:00:00 21.09167 C 16.82 g/m*3 21.09 C 0.93333 km/h
2219 07-09-2013 17:00:00 20.01667 C 16.15 g/m*3 20.02 C 2.54167 km/h
2220 07-09-2013 18:00:00 18.84167 C 15.04 g/m*3 18.84 C 4.55833 km/h
2221 07-09-2013 19:00:00 18.11667 C 14.72 g/m*3 18.12 C 0.26667 km/h
2222 07-09-2013 20:00:00 17.68333 C 14.36 g/m*3 17.68 C 2.95 km/h
2223 07-09-2013 21:00:00 17.46667 C 13.84 g/m*3 17.47 C 2.13333 km/h
2224 07-09-2013 22:00:00 16.94167 C 13.57 g/m*3 16.94 C 1.06667 km/h
2225 07-09-2013 23:00:00 16.3 C 13.24 g/m*3 16.3 C 0.13333 km/h
Sensor: Nr:Datum:Temp:Abs-Feuchte:Windchill:Wind:
Aussen-T/F 2226 08-09-2013 00:00:00 16.075 C 13.1 g/m*3 16.08 C 0.13333 km/h
2227 08-09-2013 01:00:00 15.89167 C 12.99 g/m*3 15.89 C 0.13333 km/h
2228 08-09-2013 02:00:00 15.93333 C 12.85 g/m*3 15.93 C 4.275 km/h
2229 08-09-2013 03:00:00 16.03333 C 12.8 g/m*3 16.03 C 1.475 km/h
2230 08-09-2013 04:00:00 15.825 C 12.82 g/m*3 15.83 C 3.475 km/h
2231 08-09-2013 05:00:00 15.55 C 12.75 g/m*3 15.55 C 6.70833 km/h
2232 08-09-2013 06:00:00 14.7 C 11.99 g/m*3 14.7 C 5.1 km/h
2233 08-09-2013 07:00:00 13.78333 C 11.34 g/m*3 13.78 C 3.075 km/h
2234 08-09-2013 08:00:00 13.53333 C 11.18 g/m*3 13.53 C 2.66667 km/h
2235 08-09-2013 09:00:00 13.64167 C 11.36 g/m*3 13.64 C 0.4 km/h
2236 08-09-2013 10:00:00 14.33333 C 11.77 g/m*3 14.33 C 4.00833 km/h
2237 08-09-2013 11:00:00 14.76667 C 11.64 g/m*3 14.77 C 7.38333 km/h
2238 08-09-2013 12:00:00 15.075 C 11.59 g/m*3 15.08 C 9.7 km/h
2239 08-09-2013 13:00:00 14.9 C 11.5 g/m*3 14.9 C 6.425 km/h
2240 08-09-2013 14:00:00 14.96667 C 11.84 g/m*3 14.97 C 4.01667 km/h
2241 08-09-2013 15:00:00 15.375 C 11.89 g/m*3 15.38 C 4.26667 km/h
2242 08-09-2013 16:00:00 15.5 C 11.9 g/m*3 15.5 C 5.36667 km/h
2243 08-09-2013 17:00:00 15.11667 C 11.6 g/m*3 15.12 C 5.35833 km/h
2244 08-09-2013 18:00:00 14.8 C 11.42 g/m*3 14.8 C 3.08333 km/h
2245 08-09-2013 19:00:00 14.49167 C 11.67 g/m*3 14.49 C 0 km/h
2246 08-09-2013 20:00:00 13.875 C 11.4 g/m*3 13.88 C 0 km/h
2247 08-09-2013 21:00:00 13.625 C 11.32 g/m*3 13.63 C 0 km/h
2248 08-09-2013 22:00:00 13.5 C 11.35 g/m*3 13.5 C 0 km/h
2249 08-09-2013 23:00:00 13.55833 C 11.39 g/m*3 13.56 C 0.66667 km/h
2250 09-09-2013 00:00:00 13.6 C 11.42 g/m*3 13.6 C 0 km/h
Sensor: Nr:Datum:Temp:Abs-Feuchte:Windchill:Wind:
Aussen-T/F 2251 09-09-2013 01:00:00 13.325 C 11.21 g/m*3 13.33 C 0 km/h
2252 09-09-2013 02:00:00 13.15833 C 11.11 g/m*3 13.16 C 0 km/h
2253 09-09-2013 03:00:00 13.14167 C 11.1 g/m*3 13.14 C 0 km/h
2254 09-09-2013 04:00:00 13.28333 C 11.19 g/m*3 13.28 C 0.4 km/h
2255 09-09-2013 05:00:00 13.10833 C 11.04 g/m*3 13.11 C 1.2 km/h
2256 09-09-2013 06:00:00 12.45 C 10.35 g/m*3 12.45 C 4.81667 km/h
2257 09-09-2013 07:00:00 11.41667 C 9.83 g/m*3 11.42 C 0.8 km/h
2258 09-09-2013 08:00:00 11.65833 C 9.97 g/m*3 11.66 C 1.6 km/h
2259 09-09-2013 09:00:00 11.91667 C 9.97 g/m*3 11.92 C 3.075 km/h
2260 09-09-2013 10:00:00 12.95833 C 10.28 g/m*3 12.96 C 8.2 km/h
2261 09-09-2013 11:00:00 14.35 C 10.49 g/m*3 14.35 C 10.1 km/h
2262 09-09-2013 12:00:00 16.20833 C 10.5 g/m*3 16.21 C 11.28333 km/h
2263 09-09-2013 13:00:00 17.6 C 10.12 g/m*3 17.6 C 12.48333 km/h
2264 09-09-2013 14:00:00 16.94167 C 10.06 g/m*3 16.94 C 6.025 km/h
2265 09-09-2013 15:00:00 16.99167 C 9.93 g/m*3 16.99 C 5.76667 km/h
2266 09-09-2013 16:00:00 18.49167 C 9.49 g/m*3 18.49 C 11.15833 km/h
2267 09-09-2013 17:00:00 16.99167 C 10.5 g/m*3 16.99 C 3.75 km/h
2268 09-09-2013 18:00:00 15.325 C 11.24 g/m*3 15.33 C 0.26667 km/h
2269 09-09-2013 19:00:00 14.59167 C 10.43 g/m*3 14.59 C 1.6 km/h
2270 09-09-2013 20:00:00 13.84167 C 10.53 g/m*3 13.84 C 0.13333 km/h
2271 09-09-2013 21:00:00 13.21667 C 10.32 g/m*3 13.22 C 0 km/h
2272 09-09-2013 22:00:00 12.86667 C 10.46 g/m*3 12.87 C 0.26667 km/h
2273 09-09-2013 23:00:00 12.63333 C 10.61 g/m*3 12.63 C 0.93333 km/h
2274 10-09-2013 00:00:00 12.59167 C 10.61 g/m*3 12.59 C 0.66667 km/h
2275 10-09-2013 01:00:00 12.6875 C 10.76 g/m*3 12.69 C 1.4 km/h
Sensor: Nr:Datum:Temp:Abs-Feuchte:Windchill:Wind:
Aussen-T/F 2276 10-09-2013 02:00:00 12.95714 C 10.97 g/m*3 12.96 C 0.45714 km/h
2277 10-09-2013 03:00:00 13.22857 C 11.16 g/m*3 13.23 C 1.37143 km/h
2278 10-09-2013 04:00:00 12.46667 C 10.17 g/m*3 12.47 C 6.43333 km/h
2279 10-09-2013 05:00:00 11.16667 C 9.19 g/m*3 11.17 C 4.29167 km/h
2280 10-09-2013 06:00:00 10.49167 C 9.04 g/m*3 10.49 C 0.8 km/h
2281 10-09-2013 07:00:00 9.70833 C 8.84 g/m*3 9.71 C 0 km/h
2282 10-09-2013 08:00:00 9.99167 C 8.79 g/m*3 9.56 C 5.63333 km/h
2283 10-09-2013 09:00:00 11.525 C 8.97 g/m*3 11.53 C 11.56667 km/h
2284 10-09-2013 10:00:00 12.59167 C 9.39 g/m*3 12.59 C 10.08333 km/h
2285 10-09-2013 11:00:00 13.45833 C 9.64 g/m*3 13.46 C 9.275 km/h
2286 10-09-2013 12:00:00 14.26667 C 9.48 g/m*3 14.27 C 10.625 km/h
2287 10-09-2013 13:00:00 15.64167 C 9.25 g/m*3 15.64 C 14.23333 km/h
2288 10-09-2013 14:00:00 15.89167 C 9.25 g/m*3 15.89 C 15.29167 km/h
2289 10-09-2013 15:00:00 15.84167 C 9.36 g/m*3 15.84 C 15.15833 km/h
2290 10-09-2013 16:00:00 15.86667 C 9.42 g/m*3 15.87 C 13.55833 km/h
2291 10-09-2013 17:00:00 15.76667 C 9.65 g/m*3 15.77 C 11.025 km/h
2292 10-09-2013 18:00:00 15.3 C 9.75 g/m*3 15.3 C 9.15 km/h
2293 10-09-2013 19:00:00 14.84167 C 9.44 g/m*3 14.84 C 8.2 km/h
2294 10-09-2013 20:00:00 14.06667 C 9.3 g/m*3 14.07 C 4.825 km/h
2295 10-09-2013 21:00:00 13.56667 C 9.3 g/m*3 13.57 C 8.88333 km/h
2296 10-09-2013 22:00:00 13.26667 C 9.04 g/m*3 13.27 C 8.325 km/h
2297 10-09-2013 23:00:00 12.8 C 8.98 g/m*3 12.8 C 6.3 km/h
2298 11-09-2013 00:00:00 12.78333 C 8.8 g/m*3 12.78 C 11.95833 km/h
2299 11-09-2013 01:00:00 12.6 C 8.7 g/m*3 12.6 C 12.5 km/h
2300 11-09-2013 02:00:00 12.25833 C 8.87 g/m*3 12.26 C 11.96667 km/h
Sensor: Nr:Datum:Temp:Abs-Feuchte:Windchill:Wind:
Aussen-T/F 2301 11-09-2013 03:00:00 12.175 C 8.97 g/m*3 12.18 C 15.84167 km/h
2302 11-09-2013 04:00:00 11.89167 C 9.1 g/m*3 11.89 C 12.36667 km/h
2303 11-09-2013 05:00:00 12.18333 C 9.11 g/m*3 12.18 C 15.025 km/h
2304 11-09-2013 06:00:00 11.575 C 9.4 g/m*3 11.58 C 11.3 km/h
2305 11-09-2013 07:00:00 11.45833 C 9.52 g/m*3 11.46 C 9.79167 km/h
2306 11-09-2013 08:00:00 11.45833 C 9.75 g/m*3 11.46 C 5.23333 km/h
2307 11-09-2013 09:00:00 11.78333 C 9.98 g/m*3 11.78 C 5.225 km/h
2308 11-09-2013 10:00:00 12.475 C 10.14 g/m*3 12.48 C 6.45 km/h
2309 11-09-2013 11:00:00 13.69167 C 10.41 g/m*3 13.69 C 8.33333 km/h
2310 11-09-2013 12:00:00 14.86667 C 10.29 g/m*3 14.87 C 8.75 km/h
2311 11-09-2013 13:00:00 15.31 C 10.7 g/m*3 15.31 C 5.63 km/h
2312 11-09-2013 14:00:00 16.17143 C 11.35 g/m*3 16.17 C 5.52857 km/h
2313 11-09-2013 15:00:00 17.41667 C 10.76 g/m*3 17.42 C 8.875 km/h
2314 11-09-2013 16:00:00 17.18 C 11.03 g/m*3 17.18 C 5.16 km/h
2315 11-09-2013 17:00:00 15.98333 C 11.49 g/m*3 15.98 C 9.675 km/h
2316 11-09-2013 18:00:00 13.00833 C 10.55 g/m*3 13.01 C 2.81667 km/h
2317 11-09-2013 19:00:00 12.50833 C 10.51 g/m*3 12.51 C 1.6 km/h
2318 11-09-2013 20:00:00 12.075 C 10.18 g/m*3 12.08 C 2.275 km/h
2319 11-09-2013 21:00:00 11.8 C 10.1 g/m*3 11.8 C 0.26667 km/h
2320 11-09-2013 22:00:00 11.8 C 10.19 g/m*3 11.8 C 0.66667 km/h
2321 11-09-2013 23:00:00 11.9 C 10.26 g/m*3 11.9 C 2 km/h
2322 12-09-2013 00:00:00 12.26667 C 10.4 g/m*3 12.27 C 2.26667 km/h
2323 12-09-2013 01:00:00 12.4 C 10.38 g/m*3 12.4 C 1.33333 km/h
2324 12-09-2013 02:00:00 12.39167 C 10.38 g/m*3 12.39 C 2.26667 km/h
2325 12-09-2013 03:00:00 12.325 C 10.37 g/m*3 12.33 C 1.2 km/h
Sensor: Nr:Datum:Temp:Abs-Feuchte:Windchill:Wind:
Aussen-T/F 2326 12-09-2013 04:00:00 12.275 C 10.41 g/m*3 12.28 C 1.06667 km/h
2327 12-09-2013 05:00:00 12.34167 C 10.4 g/m*3 12.34 C 0.8 km/h
2328 12-09-2013 06:00:00 12.25 C 10.4 g/m*3 12.25 C 0 km/h
2329 12-09-2013 07:00:00 12.05 C 10.37 g/m*3 12.05 C 0.13333 km/h
2330 12-09-2013 08:00:00 12.21667 C 10.48 g/m*3 12.22 C 0.26667 km/h
2331 12-09-2013 09:00:00 13.05 C 10.83 g/m*3 13.05 C 5.08333 km/h
2332 12-09-2013 10:00:00 14.175 C 10.83 g/m*3 14.18 C 5.48333 km/h
2333 12-09-2013 11:00:00 13.83333 C 11.08 g/m*3 13.83 C 3.33333 km/h
2334 12-09-2013 12:00:00 14.84167 C 11.36 g/m*3 14.84 C 3.33333 km/h
2335 12-09-2013 13:00:00 14.8 C 11.68 g/m*3 14.8 C 0.93333 km/h
2336 12-09-2013 14:00:00 15.125 C 11.49 g/m*3 15.13 C 5.89167 km/h
2337 12-09-2013 15:00:00 16.45 C 12.14 g/m*3 16.45 C 3.475 km/h
2338 12-09-2013 16:00:00 17.00833 C 11.15 g/m*3 17.01 C 9.80833 km/h
2339 12-09-2013 17:00:00 15.91667 C 11.09 g/m*3 15.92 C 9.125 km/h
2340 12-09-2013 18:00:00 14.23333 C 11.2 g/m*3 14.23 C 1.6 km/h
2341 12-09-2013 19:00:00 13.68333 C 11.23 g/m*3 13.68 C 0 km/h
2342 12-09-2013 20:00:00 12.99167 C 10.82 g/m*3 12.99 C 0 km/h
2343 12-09-2013 21:00:00 12.68333 C 10.68 g/m*3 12.68 C 0.26667 km/h
2344 12-09-2013 22:00:00 12.75833 C 10.75 g/m*3 12.76 C 0.4 km/h
2345 12-09-2013 23:00:00 12.76667 C 10.73 g/m*3 12.77 C 0 km/h
2346 13-09-2013 00:00:00 12.58333 C 10.69 g/m*3 12.58 C 0.13333 km/h
2347 13-09-2013 01:00:00 12.86667 C 10.81 g/m*3 12.87 C 0 km/h
2348 13-09-2013 02:00:00 12.58333 C 10.61 g/m*3 12.58 C 0 km/h
2349 13-09-2013 03:00:00 12.41667 C 10.52 g/m*3 12.42 C 1.46667 km/h
2350 13-09-2013 04:00:00 12.875 C 10.54 g/m*3 12.88 C 3.475 km/h
Sensor: Nr:Datum:Temp:Abs-Feuchte:Windchill:Wind:
Aussen-T/F 2351 13-09-2013 05:00:00 12.44167 C 10.24 g/m*3 12.44 C 0.8 km/h
2352 13-09-2013 06:00:00 12.03333 C 10.09 g/m*3 12.03 C 2.93333 km/h
2353 13-09-2013 07:00:00 12.15833 C 10.16 g/m*3 12.16 C 4.14167 km/h
2354 13-09-2013 08:00:00 12.43333 C 10.29 g/m*3 12.43 C 3.34167 km/h
2355 13-09-2013 09:00:00 13.325 C 10.69 g/m*3 13.33 C 4.55 km/h
2356 13-09-2013 10:00:00 14.50833 C 11.02 g/m*3 14.51 C 6.55 km/h
2357 13-09-2013 11:00:00 15.43333 C 11.4 g/m*3 15.43 C 7.38333 km/h
2358 13-09-2013 12:00:00 16.16667 C 11.69 g/m*3 16.17 C 6.43333 km/h
2359 13-09-2013 13:00:00 17.06667 C 11.71 g/m*3 17.07 C 6.84167 km/h
2360 13-09-2013 14:00:00 17.85 C 11.56 g/m*3 17.85 C 7.25 km/h
2361 13-09-2013 15:00:00 18.25 C 11.57 g/m*3 18.25 C 6.43333 km/h
2362 13-09-2013 16:00:00 18.36667 C 11.63 g/m*3 18.37 C 6.18333 km/h
2363 13-09-2013 17:00:00 18.60833 C 11.74 g/m*3 18.61 C 4.41667 km/h
2364 13-09-2013 18:00:00 17.725 C 11.91 g/m*3 17.73 C 3.225 km/h
2365 13-09-2013 19:00:00 15.40833 C 11.62 g/m*3 15.41 C 1.06667 km/h
2366 13-09-2013 20:00:00 14.1375 C 11.12 g/m*3 14.14 C 0.8 km/h
2367 13-09-2013 21:00:00 13.74 C 11.3 g/m*3 13.74 C 0.32 km/h
2368 13-09-2013 22:00:00 14.3125 C 11.36 g/m*3 14.31 C 1 km/h
2369 13-09-2013 23:00:00 14.03333 C 11.42 g/m*3 14.03 C 0 km/h
2370 14-09-2013 00:00:00 14.01667 C 11.44 g/m*3 14.02 C 0.13333 km/h
2371 14-09-2013 01:00:00 14.29167 C 11.54 g/m*3 14.29 C 0.53333 km/h
2372 14-09-2013 02:00:00 14.525 C 11.65 g/m*3 14.53 C 2.4 km/h
2373 14-09-2013 03:00:00 14.81667 C 11.76 g/m*3 14.82 C 2 km/h
2374 14-09-2013 04:00:00 14.575 C 11.84 g/m*3 14.58 C 0.8 km/h
2375 14-09-2013 05:00:00 14.425 C 11.87 g/m*3 14.43 C 0.13333 km/h
Sensor: Nr:Datum:Temp:Abs-Feuchte:Windchill:Wind:
Aussen-T/F 2376 14-09-2013 06:00:00 14.55 C 12.09 g/m*3 14.55 C 0.13333 km/h
2377 14-09-2013 07:00:00 14.63333 C 12.16 g/m*3 14.63 C 0 km/h
2378 14-09-2013 08:00:00 15.14167 C 12.57 g/m*3 15.14 C 0 km/h
2379 14-09-2013 09:00:00 15.825 C 13.09 g/m*3 15.83 C 0.13333 km/h
2380 14-09-2013 10:00:00 16.45 C 13.58 g/m*3 16.45 C 0.13333 km/h
2381 14-09-2013 11:00:00 17.125 C 13.89 g/m*3 17.13 C 2.15 km/h
2382 14-09-2013 12:00:00 17.78333 C 14.44 g/m*3 17.78 C 1.2 km/h
2383 14-09-2013 13:00:00 18.85 C 14.81 g/m*3 18.85 C 2.8 km/h
2384 14-09-2013 14:00:00 19.05 C 13.87 g/m*3 19.05 C 13.13333 km/h
2385 14-09-2013 15:00:00 18.025 C 12.72 g/m*3 18.02 C 13.03333 km/h
2386 14-09-2013 16:00:00 17.79167 C 12.62 g/m*3 17.79 C 6.30833 km/h
2387 14-09-2013 17:00:00 17.33333 C 12.58 g/m*3 17.33 C 3.61667 km/h
2388 14-09-2013 18:00:00 16.51667 C 12.64 g/m*3 16.52 C 3.74167 km/h
2389 14-09-2013 19:00:00 15.69167 C 12.57 g/m*3 15.69 C 1.73333 km/h
2390 14-09-2013 20:00:00 15.21667 C 12.29 g/m*3 15.22 C 2.275 km/h
2391 14-09-2013 21:00:00 14.60833 C 11.76 g/m*3 14.61 C 2.01667 km/h
2392 14-09-2013 22:00:00 14.24167 C 11.76 g/m*3 14.24 C 0 km/h
2393 14-09-2013 23:00:00 14.175 C 11.83 g/m*3 14.18 C 0 km/h
2394 15-09-2013 00:00:00 13.94167 C 11.66 g/m*3 13.94 C 0 km/h
2395 15-09-2013 01:00:00 13.975 C 11.68 g/m*3 13.98 C 0 km/h
2396 15-09-2013 02:00:00 13.9 C 11.62 g/m*3 13.9 C 0.94167 km/h
2397 15-09-2013 03:00:00 13.625 C 11.31 g/m*3 13.63 C 0 km/h
2398 15-09-2013 04:00:00 13.43333 C 10.94 g/m*3 13.43 C 2.54167 km/h
2399 15-09-2013 05:00:00 13.48333 C 10.81 g/m*3 13.48 C 0.93333 km/h
2400 15-09-2013 06:00:00 13.025 C 10.81 g/m*3 13.03 C 0.13333 km/h
Sensor: Nr:Datum:Temp:Abs-Feuchte:Windchill:Wind:
Aussen-T/F 2401 15-09-2013 07:00:00 12.7 C 10.68 g/m*3 12.7 C 0.93333 km/h
2402 15-09-2013 08:00:00 12.8 C 10.66 g/m*3 12.8 C 0.66667 km/h
2403 15-09-2013 09:00:00 13.2 C 10.51 g/m*3 13.2 C 4.80833 km/h
2404 15-09-2013 10:00:00 13.89167 C 10.43 g/m*3 13.89 C 5.35 km/h
2405 15-09-2013 11:00:00 14.48333 C 10.15 g/m*3 14.48 C 2.13333 km/h
2406 15-09-2013 12:00:00 15.475 C 10.46 g/m*3 15.48 C 4.95833 km/h
2407 15-09-2013 13:00:00 16.41667 C 10.25 g/m*3 16.42 C 3.73333 km/h
2408 15-09-2013 14:00:00 16.95833 C 10.32 g/m*3 16.96 C 3.33333 km/h
2409 15-09-2013 15:00:00 17.40833 C 10.03 g/m*3 17.41 C 3.75 km/h
2410 15-09-2013 16:00:00 16.975 C 10.64 g/m*3 16.98 C 1.2 km/h
2411 15-09-2013 17:00:00 16.275 C 11.54 g/m*3 16.27 C 0.4 km/h
2412 15-09-2013 18:00:00 14.98333 C 11.45 g/m*3 14.98 C 0 km/h
2413 15-09-2013 19:00:00 14.00833 C 11.06 g/m*3 14.01 C 0.13333 km/h
2414 15-09-2013 20:00:00 13.53333 C 10.84 g/m*3 13.53 C 0 km/h
2415 15-09-2013 21:00:00 13.25833 C 10.66 g/m*3 13.26 C 0 km/h
2416 15-09-2013 22:00:00 13.925 C 10.12 g/m*3 13.93 C 5.23333 km/h
2417 15-09-2013 23:00:00 14.325 C 9.25 g/m*3 14.33 C 7.925 km/h
2418 16-09-2013 00:00:00 13.625 C 9.51 g/m*3 13.63 C 6.44167 km/h
2419 16-09-2013 01:00:00 12.33333 C 9.87 g/m*3 12.33 C 2.93333 km/h
2420 16-09-2013 02:00:00 12.35833 C 10.05 g/m*3 12.36 C 5.36667 km/h
2421 16-09-2013 03:00:00 12.725 C 10.17 g/m*3 12.73 C 9.4 km/h
2422 16-09-2013 04:00:00 12.91667 C 10.04 g/m*3 12.92 C 18.64167 km/h
2423 16-09-2013 05:00:00 13.05 C 9.96 g/m*3 13.05 C 18.76667 km/h
2424 16-09-2013 06:00:00 12.625 C 10.06 g/m*3 12.63 C 16.36667 km/h
2425 16-09-2013 07:00:00 12.7 C 9.99 g/m*3 12.7 C 15.16667 km/h
Sensor: Nr:Datum:Temp:Abs-Feuchte:Windchill:Wind:
Aussen-T/F 2426 16-09-2013 08:00:00 13.15 C 10.2 g/m*3 13.15 C 11.41667 km/h
2427 16-09-2013 09:00:00 13.73333 C 10.43 g/m*3 13.73 C 11.025 km/h
2428 16-09-2013 10:00:00 12.54167 C 9.83 g/m*3 12.54 C 6.84167 km/h
2429 16-09-2013 11:00:00 13.23333 C 9.91 g/m*3 13.23 C 3.475 km/h
2430 16-09-2013 12:00:00 14.73333 C 9.91 g/m*3 14.73 C 7.1 km/h
2431 16-09-2013 13:00:00 14.36667 C 9.46 g/m*3 14.37 C 7.65833 km/h
2432 16-09-2013 14:00:00 14.85 C 9.02 g/m*3 14.85 C 10.49167 km/h
2433 16-09-2013 15:00:00 15.7 C 9.28 g/m*3 15.7 C 6.98333 km/h
2434 16-09-2013 16:00:00 15.95833 C 8.97 g/m*3 15.96 C 6.56667 km/h
2435 16-09-2013 17:00:00 15.73333 C 8.9 g/m*3 15.73 C 5.9 km/h
2436 16-09-2013 18:00:00 13.84167 C 9.22 g/m*3 13.84 C 2.94167 km/h
2437 16-09-2013 19:00:00 12.2 C 8.41 g/m*3 12.2 C 2.66667 km/h
2438 16-09-2013 20:00:00 11.75833 C 8.48 g/m*3 11.76 C 2.8 km/h
2439 16-09-2013 21:00:00 11.59167 C 8.06 g/m*3 11.59 C 4.95 km/h
2440 16-09-2013 22:00:00 11.15833 C 7.33 g/m*3 11.16 C 5.35 km/h
2441 16-09-2013 23:00:00 10.71667 C 7.24 g/m*3 10.29 C 6.025 km/h
2442 17-09-2013 00:00:00 10.275 C 7.29 g/m*3 9.78 C 6.025 km/h
2443 17-09-2013 01:00:00 9.49167 C 7.6 g/m*3 8.95 C 5.75833 km/h
2444 17-09-2013 02:00:00 9.48333 C 7.79 g/m*3 8.76 C 6.44167 km/h
2445 17-09-2013 03:00:00 8.86667 C 7.59 g/m*3 8.87 C 4.81667 km/h
2446 17-09-2013 04:00:00 8.75833 C 7.52 g/m*3 8 C 6.15833 km/h
2447 17-09-2013 05:00:00 8.43333 C 7.34 g/m*3 6.87 C 9.4 km/h
2448 17-09-2013 06:00:00 8.14167 C 7.27 g/m*3 8.14 C 4.81667 km/h
2449 17-09-2013 07:00:00 8.225 C 7.27 g/m*3 7.35 C 6.3 km/h
2450 17-09-2013 08:00:00 8.58333 C 7.42 g/m*3 7.91 C 5.75 km/h
Sensor: Nr:Datum:Temp:Abs-Feuchte:Windchill:Wind:
Aussen-T/F 2451 17-09-2013 09:00:00 9.46667 C 7.61 g/m*3 7.56 C 12.74167 km/h
2452 17-09-2013 10:00:00 10.00833 C 7.62 g/m*3 8.05 C 13.96667 km/h
2453 17-09-2013 11:00:00 11.15 C 7.76 g/m*3 11.15 C 17.96667 km/h
2454 17-09-2013 12:00:00 12.30833 C 7.99 g/m*3 12.31 C 17.16667 km/h
2455 17-09-2013 13:00:00 12.69167 C 8.16 g/m*3 12.69 C 13.43333 km/h
2456 17-09-2013 14:00:00 13.575 C 8.25 g/m*3 13.58 C 18.23333 km/h
2457 17-09-2013 15:00:00 12.76667 C 8.45 g/m*3 12.77 C 17.16667 km/h
2458 17-09-2013 16:00:00 13.06667 C 8.46 g/m*3 13.07 C 15.16667 km/h
2459 17-09-2013 17:00:00 12.65 C 8.26 g/m*3 12.65 C 9.675 km/h
2460 17-09-2013 18:00:00 12.24167 C 8.63 g/m*3 12.24 C 4.15833 km/h
2461 17-09-2013 19:00:00 11.7 C 8.77 g/m*3 11.7 C 4.41667 km/h
2462 17-09-2013 20:00:00 10.94167 C 8.95 g/m*3 10.94 C 2.66667 km/h
2463 17-09-2013 21:00:00 10.41667 C 8.94 g/m*3 10.42 C 1.6 km/h
2464 17-09-2013 22:00:00 10.325 C 8.97 g/m*3 10.33 C 2.26667 km/h
2465 17-09-2013 23:00:00 10.58333 C 9.16 g/m*3 10.58 C 3.46667 km/h
2466 18-09-2013 00:00:00 11.08333 C 9.42 g/m*3 11.08 C 1.86667 km/h
2467 18-09-2013 01:00:00 11.1 C 9.61 g/m*3 11.1 C 0.13333 km/h
2468 18-09-2013 02:00:00 11.51667 C 9.93 g/m*3 11.52 C 3.35 km/h
2469 18-09-2013 03:00:00 12.59167 C 10.41 g/m*3 12.59 C 3.88333 km/h
2470 18-09-2013 04:00:00 13.18333 C 10.72 g/m*3 13.18 C 3.6 km/h
2471 18-09-2013 05:00:00 13.95833 C 11.06 g/m*3 13.96 C 8.325 km/h
2472 18-09-2013 06:00:00 13.825 C 11.19 g/m*3 13.83 C 2 km/h
2473 18-09-2013 07:00:00 13.725 C 11.32 g/m*3 13.73 C 0.13333 km/h
2474 18-09-2013 08:00:00 13.39167 C 11.05 g/m*3 13.39 C 5.625 km/h
2475 18-09-2013 09:00:00 12.89167 C 10.6 g/m*3 12.89 C 5.75833 km/h
Sensor: Nr:Datum:Temp:Abs-Feuchte:Windchill:Wind:
Aussen-T/F 2476 18-09-2013 10:00:00 12.40833 C 10.34 g/m*3 12.41 C 1.86667 km/h
2477 18-09-2013 11:00:00 12.33333 C 10.27 g/m*3 12.33 C 4.00833 km/h
2478 18-09-2013 12:00:00 12.51667 C 10.36 g/m*3 12.52 C 2.93333 km/h
2479 18-09-2013 13:00:00 13.35833 C 10.55 g/m*3 13.36 C 5.63333 km/h
2480 18-09-2013 14:00:00 13.7 C 10.54 g/m*3 13.7 C 5.89167 km/h
2481 18-09-2013 15:00:00 13.6 C 10.37 g/m*3 13.6 C 6.29167 km/h
2482 18-09-2013 16:00:00 13.74167 C 10.24 g/m*3 13.74 C 5.625 km/h
2483 18-09-2013 17:00:00 13.86667 C 10.17 g/m*3 13.87 C 5.75833 km/h
2484 18-09-2013 18:00:00 12.675 C 9.94 g/m*3 12.68 C 4.4 km/h
2485 18-09-2013 19:00:00 11.81667 C 9.96 g/m*3 11.82 C 0 km/h
2486 18-09-2013 20:00:00 11.36667 C 9.83 g/m*3 11.37 C 0.8 km/h
2487 18-09-2013 21:00:00 11.20833 C 9.74 g/m*3 11.21 C 0.66667 km/h
2488 18-09-2013 22:00:00 11 C 9.57 g/m*3 11 C 2.675 km/h
2489 18-09-2013 23:00:00 11.05 C 9.25 g/m*3 11.05 C 5.23333 km/h
2490 19-09-2013 00:00:00 10.2 C 8.88 g/m*3 10.2 C 2.66667 km/h
2491 19-09-2013 01:00:00 9.74167 C 8.74 g/m*3 9.74 C 1.73333 km/h
2492 19-09-2013 02:00:00 9.35833 C 8.57 g/m*3 9.36 C 1.33333 km/h
2493 19-09-2013 03:00:00 9.55 C 8.67 g/m*3 9.55 C 0.4 km/h
2494 19-09-2013 04:00:00 9.56667 C 8.71 g/m*3 9.57 C 0.66667 km/h
2495 19-09-2013 05:00:00 10.025 C 8.85 g/m*3 10.03 C 0.53333 km/h
2496 19-09-2013 06:00:00 9.56667 C 8.66 g/m*3 9.57 C 0 km/h
2497 19-09-2013 07:00:00 9.44167 C 8.68 g/m*3 9.44 C 2.13333 km/h
2498 19-09-2013 08:00:00 10.65 C 8.84 g/m*3 10.11 C 6.425 km/h
2499 19-09-2013 09:00:00 11.21667 C 8.98 g/m*3 11.22 C 8.2 km/h
2500 19-09-2013 10:00:00 11.95 C 9.34 g/m*3 11.95 C 9.14167 km/h
Sensor: Nr:Datum:Temp:Abs-Feuchte:Windchill:Wind:
Aussen-T/F 2501 19-09-2013 11:00:00 12.85 C 9.51 g/m*3 12.85 C 9.81667 km/h
2502 19-09-2013 12:00:00 14.01667 C 9.65 g/m*3 14.02 C 8.325 km/h
2503 19-09-2013 13:00:00 15.03333 C 9.2 g/m*3 15.03 C 11.00833 km/h
2504 19-09-2013 14:00:00 14.54167 C 9.22 g/m*3 14.54 C 9.54167 km/h
2505 19-09-2013 15:00:00 13.99167 C 9.19 g/m*3 13.99 C 5.36667 km/h
2506 19-09-2013 16:00:00 14.93333 C 9.1 g/m*3 14.93 C 7.8 km/h
2507 19-09-2013 17:00:00 14.6 C 9.44 g/m*3 14.6 C 3.34167 km/h
2508 19-09-2013 18:00:00 13.30833 C 9.66 g/m*3 13.31 C 1.6 km/h
2509 19-09-2013 19:00:00 12.50833 C 9.51 g/m*3 12.51 C 2.13333 km/h
2510 19-09-2013 20:00:00 12.2 C 9.33 g/m*3 12.2 C 1.2 km/h
2511 19-09-2013 21:00:00 11.74167 C 9.54 g/m*3 11.74 C 0.13333 km/h
2512 19-09-2013 22:00:00 11.76667 C 9.57 g/m*3 11.77 C 1.20833 km/h
2513 19-09-2013 23:00:00 12.70833 C 9.22 g/m*3 12.71 C 5.625 km/h
2514 20-09-2013 00:00:00 11.78333 C 9.46 g/m*3 11.78 C 4.14167 km/h
2515 20-09-2013 01:00:00 11.625 C 9.53 g/m*3 11.63 C 8.58333 km/h
2516 20-09-2013 02:00:00 11.74167 C 9.55 g/m*3 11.74 C 11.40833 km/h
2517 20-09-2013 03:00:00 11.76667 C 9.55 g/m*3 11.77 C 10.88333 km/h
2518 20-09-2013 04:00:00 11.88333 C 9.58 g/m*3 11.88 C 11.025 km/h
2519 20-09-2013 05:00:00 12.15833 C 9.67 g/m*3 12.16 C 9.55 km/h
2520 20-09-2013 06:00:00 12.26667 C 9.77 g/m*3 12.27 C 9.13333 km/h
2521 20-09-2013 07:00:00 12.5 C 9.98 g/m*3 12.5 C 9.55 km/h
2522 20-09-2013 08:00:00 12.76667 C 10.21 g/m*3 12.77 C 6.96667 km/h
2523 20-09-2013 09:00:00 13.64167 C 10.61 g/m*3 13.64 C 9.025 km/h
2524 20-09-2013 10:00:00 14.78333 C 10.97 g/m*3 14.78 C 6.05 km/h
2525 20-09-2013 11:00:00 15.46667 C 10.95 g/m*3 15.47 C 6.99167 km/h
Sensor: Nr:Datum:Temp:Abs-Feuchte:Windchill:Wind:
Aussen-T/F 2526 20-09-2013 12:00:00 15.625 C 10.7 g/m*3 15.63 C 8.325 km/h
2527 20-09-2013 13:00:00 15.51667 C 10.79 g/m*3 15.52 C 5.625 km/h
2528 20-09-2013 14:00:00 16.04167 C 10.8 g/m*3 16.04 C 5.48333 km/h
2529 20-09-2013 15:00:00 16.275 C 10.81 g/m*3 16.27 C 5.225 km/h
2530 20-09-2013 16:00:00 17.29167 C 9.91 g/m*3 17.29 C 10.88333 km/h
2531 20-09-2013 17:00:00 16.925 C 10.24 g/m*3 16.93 C 6.05 km/h
2532 20-09-2013 18:00:00 15.35833 C 10.9 g/m*3 15.36 C 0.66667 km/h
2533 20-09-2013 19:00:00 14.5 C 10.67 g/m*3 14.5 C 2.26667 km/h
2534 20-09-2013 20:00:00 13.90833 C 10.62 g/m*3 13.91 C 0.26667 km/h
2535 20-09-2013 21:00:00 13.69167 C 10.46 g/m*3 13.69 C 1.06667 km/h
2536 20-09-2013 22:00:00 13.65833 C 10.5 g/m*3 13.66 C 0.4 km/h
2537 20-09-2013 23:00:00 12.85833 C 10.19 g/m*3 12.86 C 0.13333 km/h
2538 21-09-2013 00:00:00 11.93333 C 9.85 g/m*3 11.93 C 0.13333 km/h
2539 21-09-2013 01:00:00 11.24167 C 9.58 g/m*3 11.24 C 0 km/h
2540 21-09-2013 02:00:00 10.65 C 9.3 g/m*3 10.65 C 0 km/h
2541 21-09-2013 03:00:00 10.20833 C 9.12 g/m*3 10.21 C 0.26667 km/h
2542 21-09-2013 04:00:00 9.86667 C 8.94 g/m*3 9.87 C 0.66667 km/h
2543 21-09-2013 05:00:00 9.025 C 8.48 g/m*3 9.03 C 1.33333 km/h
2544 21-09-2013 06:00:00 8.81667 C 8.43 g/m*3 8.82 C 2.53333 km/h
2545 21-09-2013 07:00:00 8.65 C 8.36 g/m*3 7.87 C 6.16667 km/h
2546 21-09-2013 08:00:00 8.63333 C 8.35 g/m*3 7.25 C 8.73333 km/h
2547 21-09-2013 09:00:00 9.16667 C 8.73 g/m*3 8.1 C 7.65833 km/h
2548 21-09-2013 10:00:00 10.08333 C 9.26 g/m*3 9.33 C 6.975 km/h
2549 21-09-2013 11:00:00 11.49167 C 10.02 g/m*3 11.49 C 1.2 km/h
2550 21-09-2013 12:00:00 13.475 C 10.74 g/m*3 13.48 C 0.4 km/h
Sensor: Nr:Datum:Temp:Abs-Feuchte:Windchill:Wind:
Aussen-T/F 2551 21-09-2013 13:00:00 15.55 C 11.05 g/m*3 15.55 C 1.73333 km/h
2552 21-09-2013 14:00:00 16.925 C 10.76 g/m*3 16.93 C 3.2 km/h
2553 21-09-2013 15:00:00 17.48333 C 10.69 g/m*3 17.48 C 2.675 km/h
2554 21-09-2013 16:00:00 17.90833 C 10.95 g/m*3 17.91 C 4.55833 km/h
2555 21-09-2013 17:00:00 16.60833 C 11.61 g/m*3 16.61 C 0.66667 km/h
2556 21-09-2013 18:00:00 15.14167 C 11.39 g/m*3 15.14 C 0.53333 km/h
2557 21-09-2013 19:00:00 13.7 C 10.76 g/m*3 13.7 C 0.53333 km/h
2558 21-09-2013 20:00:00 12.68333 C 10.29 g/m*3 12.68 C 0 km/h
2559 21-09-2013 21:00:00 11.85 C 9.9 g/m*3 11.85 C 0 km/h
2560 21-09-2013 22:00:00 11.2 C 9.58 g/m*3 11.2 C 0 km/h
2561 21-09-2013 23:00:00 10.71667 C 9.34 g/m*3 10.72 C 0.53333 km/h
2562 22-09-2013 00:00:00 10.29167 C 9.19 g/m*3 10.29 C 0 km/h
2563 22-09-2013 01:00:00 9.99167 C 9.02 g/m*3 9.99 C 0 km/h
2564 22-09-2013 02:00:00 9.63333 C 8.85 g/m*3 9.63 C 0 km/h
2565 22-09-2013 03:00:00 9.375 C 8.76 g/m*3 9.38 C 0 km/h
2566 22-09-2013 04:00:00 9.06667 C 8.59 g/m*3 9.07 C 0 km/h
2567 22-09-2013 05:00:00 9.25833 C 8.69 g/m*3 9.26 C 0.13333 km/h
2568 22-09-2013 06:00:00 9.325 C 8.74 g/m*3 9.32 C 0 km/h
2569 22-09-2013 07:00:00 9.70833 C 9 g/m*3 9.71 C 0 km/h
2570 22-09-2013 08:00:00 10.43704 C 9.45 g/m*3 10.44 C 0 km/h
2571 22-09-2013 09:00:00 10.78148 C 9.62 g/m*3 10.78 C 0.05926 km/h
2572 22-09-2013 10:00:00 12.5 C 10.22 g/m*3 12.5 C 1.2 km/h
2573 22-09-2013 11:00:00 14.45833 C 10.82 g/m*3 14.46 C 1.86667 km/h
2574 22-09-2013 12:00:00 15.95 C 11.34 g/m*3 15.95 C 2.93333 km/h
2575 22-09-2013 13:00:00 17.18333 C 11.61 g/m*3 17.18 C 2.66667 km/h
Sensor: Nr:Datum:Temp:Abs-Feuchte:Windchill:Wind:
Aussen-T/F 2576 22-09-2013 14:00:00 18.58571 C 12.11 g/m*3 18.59 C 3.88571 km/h
2577 22-09-2013 15:00:00 18.35 C 12.56 g/m*3 18.35 C 1.06667 km/h
2578 22-09-2013 16:00:00 17.91667 C 12.69 g/m*3 17.92 C 2.28333 km/h
2579 22-09-2013 17:00:00 19.48333 C 12.09 g/m*3 19.48 C 6.40833 km/h
2580 22-09-2013 18:00:00 18.45833 C 12.11 g/m*3 18.46 C 4.275 km/h
2581 22-09-2013 19:00:00 16.14167 C 12.22 g/m*3 16.14 C 0.13333 km/h
2582 22-09-2013 20:00:00 15.39167 C 12.16 g/m*3 15.39 C 0 km/h
2583 22-09-2013 21:00:00 15.08333 C 12.04 g/m*3 15.08 C 0 km/h
2584 22-09-2013 22:00:00 14.89167 C 11.97 g/m*3 14.89 C 0 km/h
2585 22-09-2013 23:00:00 14.26667 C 11.59 g/m*3 14.27 C 0 km/h
2586 23-09-2013 00:00:00 14.41667 C 11.79 g/m*3 14.42 C 0 km/h
2587 23-09-2013 01:00:00 14.55833 C 11.85 g/m*3 14.56 C 0.4 km/h
2588 23-09-2013 02:00:00 14.64167 C 11.9 g/m*3 14.64 C 0.26667 km/h
2589 23-09-2013 03:00:00 14.68333 C 11.94 g/m*3 14.68 C 0.13333 km/h
2590 23-09-2013 04:00:00 14.7 C 11.96 g/m*3 14.7 C 0.26667 km/h
2591 23-09-2013 05:00:00 14.68333 C 11.98 g/m*3 14.68 C 1.33333 km/h
2592 23-09-2013 06:00:00 14.725 C 12.09 g/m*3 14.73 C 0.26667 km/h
2593 23-09-2013 07:00:00 14.73333 C 12.11 g/m*3 14.73 C 0.13333 km/h
2594 23-09-2013 08:00:00 14.83333 C 12.13 g/m*3 14.83 C 0.66667 km/h
2595 23-09-2013 09:00:00 15.36667 C 12.3 g/m*3 15.37 C 0.53333 km/h
2596 23-09-2013 10:00:00 16.15 C 12.52 g/m*3 16.15 C 2.66667 km/h
2597 23-09-2013 11:00:00 17.26667 C 12.33 g/m*3 17.27 C 3.73333 km/h
2598 23-09-2013 12:00:00 17.83333 C 12.03 g/m*3 17.83 C 4.4 km/h
2599 23-09-2013 13:00:00 18.25 C 11.91 g/m*3 18.25 C 5.74167 km/h
2600 23-09-2013 14:00:00 18.29167 C 11.84 g/m*3 18.29 C 4.80833 km/h
Sensor: Nr:Datum:Temp:Abs-Feuchte:Windchill:Wind:
Aussen-T/F 2601 23-09-2013 15:00:00 18.75 C 11.72 g/m*3 18.75 C 5.34167 km/h
2602 23-09-2013 16:00:00 18.8 C 11.64 g/m*3 18.8 C 3.73333 km/h
2603 23-09-2013 17:00:00 17.61667 C 12.27 g/m*3 17.62 C 0.26667 km/h
2604 23-09-2013 18:00:00 16.50833 C 12.32 g/m*3 16.51 C 0 km/h
2605 23-09-2013 19:00:00 14.83333 C 11.47 g/m*3 14.83 C 0 km/h
2606 23-09-2013 20:00:00 13.63333 C 10.87 g/m*3 13.63 C 0.13333 km/h
2607 23-09-2013 21:00:00 12.74167 C 10.43 g/m*3 12.74 C 0 km/h
2608 23-09-2013 22:00:00 11.90833 C 10.06 g/m*3 11.91 C 0 km/h
2609 23-09-2013 23:00:00 11.23333 C 9.69 g/m*3 11.23 C 0 km/h
2610 24-09-2013 00:00:00 10.69167 C 9.42 g/m*3 10.69 C 0 km/h
2611 24-09-2013 01:00:00 10.15 C 9.11 g/m*3 10.15 C 0 km/h
2612 24-09-2013 02:00:00 9.85833 C 9.02 g/m*3 9.86 C 0 km/h
2613 24-09-2013 03:00:00 9.88333 C 9.05 g/m*3 9.88 C 0.53333 km/h
2614 24-09-2013 04:00:00 9.63333 C 8.9 g/m*3 9.63 C 1.2 km/h
2615 24-09-2013 05:00:00 9.225 C 8.68 g/m*3 9.23 C 0.8 km/h
2616 24-09-2013 06:00:00 9.15 C 8.7 g/m*3 9.15 C 0 km/h
2617 24-09-2013 07:00:00 9.05833 C 8.67 g/m*3 9.06 C 0 km/h
2618 24-09-2013 08:00:00 9.11667 C 8.7 g/m*3 9.12 C 2.53333 km/h
2619 24-09-2013 09:00:00 9.2 C 8.75 g/m*3 9.2 C 3.06667 km/h
2620 24-09-2013 10:00:00 9.86667 C 9.13 g/m*3 9.87 C 1.86667 km/h
2621 24-09-2013 11:00:00 10.90833 C 9.75 g/m*3 10.91 C 1.46667 km/h
2622 24-09-2013 12:00:00 12.36667 C 10.69 g/m*3 12.37 C 2 km/h
2623 24-09-2013 13:00:00 15.1 C 12.04 g/m*3 15.1 C 0.66667 km/h
2624 24-09-2013 14:00:00 16.79167 C 12.63 g/m*3 16.79 C 1.2 km/h
2625 24-09-2013 15:00:00 17.54167 C 12.8 g/m*3 17.54 C 2.26667 km/h
Sensor: Nr:Datum:Temp:Abs-Feuchte:Windchill:Wind:
Aussen-T/F 2626 24-09-2013 16:00:00 17.53333 C 12.88 g/m*3 17.53 C 0.13333 km/h
2627 24-09-2013 17:00:00 16.66667 C 12.76 g/m*3 16.67 C 0.13333 km/h
2628 24-09-2013 18:00:00 16.30833 C 12.63 g/m*3 16.31 C 0.13333 km/h
2629 24-09-2013 19:00:00 15.225 C 12.01 g/m*3 15.23 C 0 km/h
2630 24-09-2013 20:00:00 14.125 C 11.38 g/m*3 14.13 C 0 km/h
2631 24-09-2013 21:00:00 13.43333 C 11.06 g/m*3 13.43 C 0 km/h
2632 24-09-2013 22:00:00 12.55 C 10.53 g/m*3 12.55 C 0 km/h
2633 24-09-2013 23:00:00 11.96667 C 10.21 g/m*3 11.97 C 0 km/h
2634 25-09-2013 00:00:00 11.55 C 10.03 g/m*3 11.55 C 0 km/h
2635 25-09-2013 01:00:00 11.05 C 9.73 g/m*3 11.05 C 0 km/h
2636 25-09-2013 02:00:00 10.7 C 9.53 g/m*3 10.7 C 0 km/h
2637 25-09-2013 03:00:00 10.65833 C 9.54 g/m*3 10.66 C 0 km/h
2638 25-09-2013 04:00:00 10.7 C 9.61 g/m*3 10.7 C 0.13333 km/h
2639 25-09-2013 05:00:00 10.35 C 9.42 g/m*3 10.35 C 0 km/h
2640 25-09-2013 06:00:00 10.2 C 9.33 g/m*3 10.2 C 1.6 km/h
2641 25-09-2013 07:00:00 10.09167 C 9.26 g/m*3 10.09 C 0.26667 km/h
2642 25-09-2013 08:00:00 10.21667 C 9.34 g/m*3 10.22 C 1.6 km/h
2643 25-09-2013 09:00:00 10.6 C 9.57 g/m*3 10.6 C 0.66667 km/h
2644 25-09-2013 10:00:00 11.35833 C 10.03 g/m*3 11.36 C 0.26667 km/h
2645 25-09-2013 11:00:00 12.74167 C 10.96 g/m*3 12.74 C 0 km/h
2646 25-09-2013 12:00:00 14.99167 C 12.36 g/m*3 14.99 C 0.66667 km/h
2647 25-09-2013 13:00:00 16.95833 C 13.3 g/m*3 16.96 C 0 km/h
2648 25-09-2013 14:00:00 17.74167 C 13.85 g/m*3 17.74 C 0 km/h
2649 25-09-2013 15:00:00 18.21667 C 14.17 g/m*3 18.22 C 0.13333 km/h
2650 25-09-2013 16:00:00 18.84167 C 14.69 g/m*3 18.84 C 0 km/h
Sensor: Nr:Datum:Temp:Abs-Feuchte:Windchill:Wind:
Aussen-T/F 2651 25-09-2013 17:00:00 19.66667 C 14.72 g/m*3 19.67 C 0.66667 km/h
2652 25-09-2013 18:00:00 18.875 C 14.05 g/m*3 18.88 C 1.60833 km/h
2653 25-09-2013 19:00:00 17.21667 C 13.42 g/m*3 17.22 C 1.46667 km/h
2654 25-09-2013 20:00:00 17.375 C 13.21 g/m*3 17.38 C 2.80833 km/h
2655 25-09-2013 21:00:00 16.775 C 13 g/m*3 16.77 C 0.66667 km/h
2656 25-09-2013 22:00:00 16.05833 C 12.85 g/m*3 16.06 C 0 km/h
2657 25-09-2013 23:00:00 15.14167 C 12.28 g/m*3 15.14 C 0.13333 km/h
2658 26-09-2013 00:00:00 14.75 C 12.12 g/m*3 14.75 C 0 km/h
2659 26-09-2013 01:00:00 14.65 C 12.05 g/m*3 14.65 C 0 km/h
2660 26-09-2013 02:00:00 14.06667 C 11.65 g/m*3 14.07 C 0 km/h
2661 26-09-2013 03:00:00 13.78333 C 11.54 g/m*3 13.78 C 0.4 km/h
2662 26-09-2013 04:00:00 13.9 C 11.63 g/m*3 13.9 C 2.66667 km/h
2663 26-09-2013 05:00:00 14.14167 C 11.8 g/m*3 14.14 C 2.93333 km/h
2664 26-09-2013 06:00:00 14.2 C 11.77 g/m*3 14.2 C 1.2 km/h
2665 26-09-2013 07:00:00 14.26667 C 11.79 g/m*3 14.27 C 1.46667 km/h
2666 26-09-2013 08:00:00 14.6 C 12.04 g/m*3 14.6 C 1.06667 km/h
2667 26-09-2013 09:00:00 15.10833 C 12.23 g/m*3 15.11 C 4.55 km/h
2668 26-09-2013 10:00:00 15.875 C 11.9 g/m*3 15.88 C 6.025 km/h
2669 26-09-2013 11:00:00 16.475 C 11.75 g/m*3 16.48 C 7.64167 km/h
2670 26-09-2013 12:00:00 16.64167 C 11.51 g/m*3 16.64 C 7.8 km/h
2671 26-09-2013 13:00:00 16.025 C 11.43 g/m*3 16.02 C 5.89167 km/h
2672 26-09-2013 14:00:00 15.79167 C 11.6 g/m*3 15.79 C 6.45 km/h
2673 26-09-2013 15:00:00 16.11667 C 11.62 g/m*3 16.12 C 3.06667 km/h
2674 26-09-2013 16:00:00 16.68333 C 11.61 g/m*3 16.68 C 3.46667 km/h
2675 26-09-2013 17:00:00 16.425 C 11.7 g/m*3 16.43 C 2.26667 km/h
Sensor: Nr:Datum:Temp:Abs-Feuchte:Windchill:Wind:
Aussen-T/F 2676 26-09-2013 18:00:00 15.38333 C 11.39 g/m*3 15.38 C 2.26667 km/h
2677 26-09-2013 19:00:00 13.825 C 10.8 g/m*3 13.83 C 0.93333 km/h
2678 26-09-2013 20:00:00 12.55 C 10.26 g/m*3 12.55 C 0.13333 km/h
2679 26-09-2013 21:00:00 11.91667 C 9.87 g/m*3 11.92 C 0 km/h
2680 26-09-2013 22:00:00 11.53333 C 9.73 g/m*3 11.53 C 0.13333 km/h
2681 26-09-2013 23:00:00 11.43333 C 9.69 g/m*3 11.43 C 0.53333 km/h
2682 27-09-2013 00:00:00 10.7 C 9.25 g/m*3 10.7 C 0.93333 km/h
2683 27-09-2013 01:00:00 9.95833 C 8.88 g/m*3 9.96 C 0.13333 km/h
2684 27-09-2013 02:00:00 9.30833 C 8.54 g/m*3 9.31 C 0 km/h
2685 27-09-2013 03:00:00 8.85833 C 8.33 g/m*3 8.86 C 0 km/h
2686 27-09-2013 04:00:00 8.56667 C 8.23 g/m*3 8.57 C 0 km/h
2687 27-09-2013 05:00:00 8.26667 C 8.07 g/m*3 8.27 C 0 km/h
2688 27-09-2013 06:00:00 7.825 C 7.85 g/m*3 7.83 C 0 km/h
2689 27-09-2013 07:00:00 7.39167 C 7.68 g/m*3 7.39 C 0 km/h
2690 27-09-2013 08:00:00 7.94167 C 7.99 g/m*3 7.94 C 0 km/h
2691 27-09-2013 09:00:00 9.11667 C 8.59 g/m*3 9.12 C 1.73333 km/h
2692 27-09-2013 10:00:00 10.26667 C 8.79 g/m*3 10.27 C 2.4 km/h
2693 27-09-2013 11:00:00 11.36667 C 9.03 g/m*3 11.37 C 3.33333 km/h
2694 27-09-2013 12:00:00 12.84167 C 9.38 g/m*3 12.84 C 6.15833 km/h
2695 27-09-2013 13:00:00 15.45 C 10.14 g/m*3 15.45 C 6.29167 km/h
2696 27-09-2013 14:00:00 16.44167 C 10.52 g/m*3 16.44 C 4 km/h
2697 27-09-2013 15:00:00 17.14167 C 10.36 g/m*3 17.14 C 4.13333 km/h
2698 27-09-2013 16:00:00 16.8 C 10.7 g/m*3 16.8 C 1.6 km/h
2699 27-09-2013 17:00:00 15.09167 C 10.66 g/m*3 15.09 C 1.6 km/h
2700 27-09-2013 18:00:00 13.69167 C 10.34 g/m*3 13.69 C 0.26667 km/h
Sensor: Nr:Datum:Temp:Abs-Feuchte:Windchill:Wind:
Aussen-T/F 2701 27-09-2013 19:00:00 12.21667 C 9.54 g/m*3 12.22 C 0.26667 km/h
2702 27-09-2013 20:00:00 11.16667 C 9.06 g/m*3 11.17 C 0.66667 km/h
2703 27-09-2013 21:00:00 10.45 C 8.69 g/m*3 10.45 C 0.26667 km/h
2704 27-09-2013 22:00:00 9.85 C 8.41 g/m*3 9.85 C 0.13333 km/h
2705 27-09-2013 23:00:00 9.36667 C 8.15 g/m*3 9.37 C 0.13333 km/h
2706 28-09-2013 00:00:00 8.7 C 7.86 g/m*3 8.7 C 0 km/h
2707 28-09-2013 01:00:00 8.16667 C 7.74 g/m*3 8.17 C 0 km/h
2708 28-09-2013 02:00:00 7.55833 C 7.45 g/m*3 7.56 C 0 km/h
2709 28-09-2013 03:00:00 6.96667 C 7.25 g/m*3 6.97 C 0 km/h
2710 28-09-2013 04:00:00 6.45 C 7.07 g/m*3 6.45 C 0 km/h
2711 28-09-2013 05:00:00 6.11667 C 6.95 g/m*3 6.12 C 0 km/h
2712 28-09-2013 06:00:00 5.93333 C 6.94 g/m*3 5.93 C 0 km/h
2713 28-09-2013 07:00:00 5.7 C 6.83 g/m*3 5.7 C 0 km/h
2714 28-09-2013 08:00:00 5.825 C 6.89 g/m*3 5.83 C 0 km/h
2715 28-09-2013 09:00:00 6.55833 C 7.23 g/m*3 6.56 C 0 km/h
2716 28-09-2013 10:00:00 7.81667 C 7.82 g/m*3 7.82 C 0.26667 km/h
2717 28-09-2013 11:00:00 9.74167 C 8.57 g/m*3 9.74 C 1.33333 km/h
2718 28-09-2013 12:00:00 12.48333 C 9.38 g/m*3 12.48 C 4 km/h
2719 28-09-2013 13:00:00 15.56667 C 10.23 g/m*3 15.57 C 5.35 km/h
2720 28-09-2013 14:00:00 16.86667 C 10.78 g/m*3 16.87 C 5.75833 km/h
2721 28-09-2013 15:00:00 17.4 C 11.02 g/m*3 17.4 C 5.225 km/h
2722 28-09-2013 16:00:00 16.275 C 11.23 g/m*3 16.27 C 1.86667 km/h
2723 28-09-2013 17:00:00 16.2 C 10.58 g/m*3 16.2 C 3.6 km/h
2724 28-09-2013 18:00:00 13.92 C 10.49 g/m*3 13.92 C 0.32 km/h
2725 28-09-2013 19:00:00 12.85 C 9.96 g/m*3 12.85 C 0 km/h
Sensor: Nr:Datum:Temp:Abs-Feuchte:Windchill:Wind:
Aussen-T/F 2726 28-09-2013 20:00:00 12.16667 C 9.67 g/m*3 12.17 C 0.26667 km/h
2727 28-09-2013 21:00:00 12.16667 C 9.32 g/m*3 12.17 C 1.06667 km/h
2728 28-09-2013 22:00:00 12.21818 C 9.1 g/m*3 12.22 C 2.61818 km/h
2729 28-09-2013 23:00:00 12.24167 C 8.97 g/m*3 12.24 C 1.6 km/h
2730 29-09-2013 00:00:00 12.03333 C 8.85 g/m*3 12.03 C 0.93333 km/h
2731 29-09-2013 01:00:00 11.60833 C 8.78 g/m*3 11.61 C 0.93333 km/h
2732 29-09-2013 02:00:00 10.81667 C 8.97 g/m*3 10.82 C 1.2 km/h
2733 29-09-2013 03:00:00 10.08333 C 8.94 g/m*3 10.08 C 0 km/h
2734 29-09-2013 04:00:00 9.71667 C 8.78 g/m*3 9.72 C 1.86667 km/h
2735 29-09-2013 05:00:00 9.425 C 8.68 g/m*3 9.43 C 0 km/h
2736 29-09-2013 06:00:00 8.93333 C 8.43 g/m*3 8.93 C 1.2 km/h
2737 29-09-2013 07:00:00 8.95 C 8.44 g/m*3 8.95 C 1.06667 km/h
2738 29-09-2013 08:00:00 9.15 C 8.53 g/m*3 9.15 C 1.06667 km/h
2739 29-09-2013 09:00:00 9.74167 C 8.74 g/m*3 9.74 C 0.8 km/h
2740 29-09-2013 10:00:00 10.76667 C 8.98 g/m*3 10.77 C 2.54167 km/h
2741 29-09-2013 11:00:00 11.95833 C 8.88 g/m*3 11.96 C 4.28333 km/h
2742 29-09-2013 12:00:00 13.86667 C 9.16 g/m*3 13.87 C 6.85 km/h
2743 29-09-2013 13:00:00 14.23333 C 9.97 g/m*3 14.23 C 4.29167 km/h
2744 29-09-2013 14:00:00 16.3 C 9.9 g/m*3 16.3 C 6.96667 km/h
2745 29-09-2013 15:00:00 16.48333 C 9.87 g/m*3 16.48 C 5.75833 km/h
2746 29-09-2013 16:00:00 17.56667 C 9.27 g/m*3 17.57 C 6.43333 km/h
2747 29-09-2013 17:00:00 16.74167 C 9.45 g/m*3 16.74 C 6.43333 km/h
2748 29-09-2013 18:00:00 13.88333 C 9.85 g/m*3 13.88 C 1.46667 km/h
2749 29-09-2013 19:00:00 12.03333 C 9.07 g/m*3 12.03 C 0.53333 km/h
2750 29-09-2013 20:00:00 11.33333 C 8.89 g/m*3 11.33 C 0.13333 km/h
Sensor: Nr:Datum:Temp:Abs-Feuchte:Windchill:Wind:
Aussen-T/F 2751 29-09-2013 21:00:00 10.66667 C 8.54 g/m*3 10.67 C 0.13333 km/h
2752 29-09-2013 22:00:00 9.93333 C 8.13 g/m*3 9.93 C 0 km/h
2753 29-09-2013 23:00:00 9.14167 C 7.77 g/m*3 9.14 C 0 km/h
2754 30-09-2013 00:00:00 8.60833 C 7.49 g/m*3 8.61 C 0.26667 km/h
2755 30-09-2013 01:00:00 8.01667 C 7.25 g/m*3 8.02 C 0 km/h
2756 30-09-2013 02:00:00 7.525 C 7.16 g/m*3 7.53 C 0.26667 km/h
2757 30-09-2013 03:00:00 7.03333 C 7.11 g/m*3 7.03 C 0 km/h
2758 30-09-2013 04:00:00 6.74167 C 7.05 g/m*3 6.74 C 0 km/h
2759 30-09-2013 05:00:00 6.33333 C 6.96 g/m*3 6.33 C 0 km/h
2760 30-09-2013 06:00:00 6.125 C 6.88 g/m*3 6.13 C 0 km/h
2761 30-09-2013 07:00:00 5.76667 C 6.78 g/m*3 5.77 C 0 km/h
2762 30-09-2013 08:00:00 5.90833 C 6.85 g/m*3 5.91 C 0 km/h
2763 30-09-2013 09:00:00 6.425 C 7.09 g/m*3 6.43 C 0 km/h
2764 30-09-2013 10:00:00 7.64167 C 7.53 g/m*3 7.64 C 2.26667 km/h
2765 30-09-2013 11:00:00 9.68333 C 7.93 g/m*3 9.29 C 5.35 km/h
2766 30-09-2013 12:00:00 11.5 C 8.38 g/m*3 11.5 C 4.41667 km/h
2767 30-09-2013 13:00:00 13.70833 C 8.73 g/m*3 13.71 C 6.3 km/h
2768 30-09-2013 14:00:00 14.725 C 8.74 g/m*3 14.73 C 7.51667 km/h
2769 30-09-2013 15:00:00 15.10833 C 8.84 g/m*3 15.11 C 5.1 km/h
2770 30-09-2013 16:00:00 14.225 C 9.33 g/m*3 14.23 C 1.6 km/h
2771 30-09-2013 17:00:00 13.08333 C 9.78 g/m*3 13.08 C 0 km/h
2772 30-09-2013 18:00:00 12.15 C 9.5 g/m*3 12.15 C 0 km/h
2773 30-09-2013 19:00:00 11.59167 C 9.3 g/m*3 11.59 C 0 km/h
2774 30-09-2013 20:00:00 11.325 C 9.15 g/m*3 11.33 C 0 km/h
2775 30-09-2013 21:00:00 11.175 C 9.14 g/m*3 11.18 C 0 km/h
Sensor: Nr:Datum:Temp:Abs-Feuchte:Windchill:Wind:
Aussen-T/F 2776 30-09-2013 22:00:00 10.80833 C 8.98 g/m*3 10.81 C 0 km/h
2777 30-09-2013 23:00:00 10.19167 C 8.49 g/m*3 10.19 C 0 km/h
2778 01-10-2013 00:00:00 9.36667 C 8.2 g/m*3 9.37 C 0 km/h
2779 01-10-2013 01:00:00 9.49167 C 8.35 g/m*3 9.49 C 0 km/h
2780 01-10-2013 02:00:00 9.70833 C 8.43 g/m*3 9.71 C 0.13333 km/h
2781 01-10-2013 03:00:00 9.8 C 8.33 g/m*3 9.8 C 0 km/h
2782 01-10-2013 04:00:00 9.83333 C 8.17 g/m*3 9.83 C 0.26667 km/h
2783 01-10-2013 05:00:00 10.19167 C 8.01 g/m*3 10.19 C 1.2 km/h
2784 01-10-2013 06:00:00 9.875 C 8.09 g/m*3 9.88 C 0 km/h
2785 01-10-2013 07:00:00 9.7 C 8.13 g/m*3 9.7 C 0 km/h
2786 01-10-2013 08:00:00 10.1 C 7.86 g/m*3 10.1 C 2.93333 km/h
2787 01-10-2013 09:00:00 10.71667 C 7.74 g/m*3 10.72 C 4.275 km/h
2788 01-10-2013 10:00:00 11.30833 C 7.78 g/m*3 11.31 C 8.34167 km/h
2789 01-10-2013 11:00:00 12.34167 C 8.07 g/m*3 12.34 C 9.69167 km/h
2790 01-10-2013 12:00:00 13.05 C 8.29 g/m*3 13.05 C 9.825 km/h
2791 01-10-2013 13:00:00 14.65833 C 8.78 g/m*3 14.66 C 8.45833 km/h
2792 01-10-2013 14:00:00 15.5 C 8.97 g/m*3 15.5 C 6.15833 km/h
2793 01-10-2013 15:00:00 15.975 C 9 g/m*3 15.98 C 8.19167 km/h
2794 01-10-2013 16:00:00 16.525 C 9.09 g/m*3 16.52 C 6.98333 km/h
2795 01-10-2013 17:00:00 14.91667 C 9.73 g/m*3 14.92 C 1.2 km/h
2796 01-10-2013 18:00:00 13.01667 C 9.51 g/m*3 13.02 C 0.53333 km/h
2797 01-10-2013 19:00:00 11.08333 C 8.53 g/m*3 11.08 C 1.33333 km/h
2798 01-10-2013 20:00:00 10.46667 C 7.63 g/m*3 10.47 C 2 km/h
2799 01-10-2013 21:00:00 9.7 C 7.19 g/m*3 9.7 C 1.06667 km/h
2800 01-10-2013 22:00:00 8.31667 C 7.01 g/m*3 8.32 C 0.4 km/h
Sensor: Nr:Datum:Temp:Abs-Feuchte:Windchill:Wind:
Aussen-T/F 2801 01-10-2013 23:00:00 7.54167 C 6.8 g/m*3 7.54 C 0.8 km/h
2802 02-10-2013 00:00:00 8.35833 C 6.76 g/m*3 8.36 C 4.7 km/h
2803 02-10-2013 01:00:00 6.85 C 6.62 g/m*3 6.85 C 0 km/h
2804 02-10-2013 02:00:00 6.09167 C 6.46 g/m*3 6.09 C 0 km/h
2805 02-10-2013 03:00:00 5.41667 C 6.32 g/m*3 5.42 C 0 km/h
2806 02-10-2013 04:00:00 5.08333 C 6.25 g/m*3 5.08 C 0 km/h
2807 02-10-2013 05:00:00 4.73333 C 6.15 g/m*3 4.73 C 0 km/h
2808 02-10-2013 06:00:00 4.35833 C 6.07 g/m*3 4.36 C 0 km/h
2809 02-10-2013 07:00:00 4.26667 C 6.08 g/m*3 4.27 C 0 km/h
2810 02-10-2013 08:00:00 4.68333 C 6.27 g/m*3 4.68 C 0 km/h
2811 02-10-2013 09:00:00 5.96667 C 6.8 g/m*3 5.97 C 0 km/h
2812 02-10-2013 10:00:00 7.45833 C 7.3 g/m*3 7.46 C 1.33333 km/h
2813 02-10-2013 11:00:00 9.475 C 7.69 g/m*3 9.48 C 2.93333 km/h
2814 02-10-2013 12:00:00 11.60833 C 8.19 g/m*3 11.61 C 3.60833 km/h
2815 02-10-2013 13:00:00 15.10833 C 8.34 g/m*3 15.11 C 7.24167 km/h
2816 02-10-2013 14:00:00 16.20833 C 7.94 g/m*3 16.21 C 7.50833 km/h
2817 02-10-2013 15:00:00 16.175 C 7.89 g/m*3 16.18 C 7.625 km/h
2818 02-10-2013 16:00:00 16.21667 C 8.21 g/m*3 16.22 C 6.425 km/h
2819 02-10-2013 17:00:00 14.01667 C 8.39 g/m*3 14.02 C 2.26667 km/h
2820 02-10-2013 18:00:00 11.85833 C 8.47 g/m*3 11.86 C 1.46667 km/h
2821 02-10-2013 19:00:00 10 C 7.78 g/m*3 10 C 0.93333 km/h
2822 02-10-2013 20:00:00 8.99167 C 7.45 g/m*3 8.99 C 0.93333 km/h
2823 02-10-2013 21:00:00 8.375 C 7.16 g/m*3 8.38 C 0 km/h
2824 02-10-2013 22:00:00 7.79167 C 6.96 g/m*3 7.79 C 0.13333 km/h
2825 02-10-2013 23:00:00 7.26667 C 6.77 g/m*3 7.27 C 0 km/h
Sensor: Nr:Datum:Temp:Abs-Feuchte:Windchill:Wind:
Aussen-T/F 2826 03-10-2013 00:00:00 6.69167 C 6.57 g/m*3 6.69 C 0.13333 km/h
2827 03-10-2013 01:00:00 6.24167 C 6.39 g/m*3 6.24 C 0 km/h
2828 03-10-2013 02:00:00 5.74167 C 6.27 g/m*3 5.74 C 0 km/h
2829 03-10-2013 03:00:00 5.05833 C 6.11 g/m*3 5.06 C 0 km/h
2830 03-10-2013 04:00:00 4.50833 C 5.97 g/m*3 4.51 C 0 km/h
2831 03-10-2013 05:00:00 4.19167 C 5.92 g/m*3 4.19 C 0 km/h
2832 03-10-2013 06:00:00 4.01667 C 5.8 g/m*3 4.02 C 0 km/h
2833 03-10-2013 07:00:00 3.675 C 5.7 g/m*3 3.68 C 0 km/h
2834 03-10-2013 08:00:00 4.10833 C 5.85 g/m*3 4.11 C 0 km/h
2835 03-10-2013 09:00:00 5.175 C 6.21 g/m*3 5.18 C 0 km/h
2836 03-10-2013 10:00:00 6.54167 C 6.64 g/m*3 6.54 C 0.4 km/h
2837 03-10-2013 11:00:00 8.91667 C 6.89 g/m*3 8.92 C 4.14167 km/h
2838 03-10-2013 12:00:00 11.31667 C 7.07 g/m*3 11.32 C 5.625 km/h
2839 03-10-2013 13:00:00 13.99167 C 7.44 g/m*3 13.99 C 6.70833 km/h
2840 03-10-2013 14:00:00 15.13333 C 7.5 g/m*3 15.13 C 6.575 km/h
2841 03-10-2013 15:00:00 15.50833 C 7.91 g/m*3 15.51 C 6.575 km/h
2842 03-10-2013 16:00:00 15.35833 C 8.22 g/m*3 15.36 C 4.675 km/h
2843 03-10-2013 17:00:00 13.075 C 8.92 g/m*3 13.08 C 1.2 km/h
2844 03-10-2013 18:00:00 12.23333 C 8.62 g/m*3 12.23 C 1.06667 km/h
2845 03-10-2013 19:00:00 10.95833 C 8.11 g/m*3 10.96 C 0.4 km/h
2846 03-10-2013 20:00:00 10.6 C 7.95 g/m*3 10.6 C 0.26667 km/h
2847 03-10-2013 21:00:00 10.1 C 7.75 g/m*3 10.1 C 0.26667 km/h
2848 03-10-2013 22:00:00 9.61667 C 7.53 g/m*3 9.62 C 0 km/h
2849 03-10-2013 23:00:00 9.51667 C 7.46 g/m*3 9.52 C 0.13333 km/h
2850 04-10-2013 00:00:00 9.26667 C 7.38 g/m*3 9.27 C 0.26667 km/h
Sensor: Nr:Datum:Temp:Abs-Feuchte:Windchill:Wind:
Aussen-T/F 2851 04-10-2013 01:00:00 9.29167 C 7.34 g/m*3 9.29 C 0 km/h
2852 04-10-2013 02:00:00 9.46667 C 7.49 g/m*3 9.47 C 0 km/h
2853 04-10-2013 03:00:00 9.68333 C 7.59 g/m*3 9.68 C 0 km/h
2854 04-10-2013 04:00:00 9.875 C 7.73 g/m*3 9.88 C 0 km/h
2855 04-10-2013 05:00:00 9.31667 C 8.29 g/m*3 9.32 C 0 km/h
2856 04-10-2013 06:00:00 8.85 C 8.29 g/m*3 8.85 C 0 km/h
2857 04-10-2013 07:00:00 8.4 C 8.1 g/m*3 8.4 C 0 km/h
2858 04-10-2013 08:00:00 8.49167 C 8.2 g/m*3 8.49 C 0 km/h
2859 04-10-2013 09:00:00 9.33333 C 8.74 g/m*3 9.33 C 0 km/h
2860 04-10-2013 10:00:00 10.39167 C 9.19 g/m*3 10.39 C 0 km/h
2861 04-10-2013 11:00:00 10.49167 C 9.21 g/m*3 10.49 C 0 km/h
2862 04-10-2013 12:00:00 11.775 C 9.79 g/m*3 11.78 C 0 km/h
2863 04-10-2013 13:00:00 12.975 C 10.32 g/m*3 12.98 C 0 km/h
2864 04-10-2013 14:00:00 13.475 C 10.72 g/m*3 13.48 C 0 km/h
2865 04-10-2013 15:00:00 14 C 11.08 g/m*3 14 C 0 km/h
2866 04-10-2013 16:00:00 14.13333 C 11.36 g/m*3 14.13 C 0 km/h
2867 04-10-2013 17:00:00 14.30833 C 11.59 g/m*3 14.31 C 0 km/h
2868 04-10-2013 18:00:00 14.325 C 11.34 g/m*3 14.33 C 3.2 km/h
2869 04-10-2013 19:00:00 13.65 C 10.99 g/m*3 13.65 C 1.06667 km/h
2870 04-10-2013 20:00:00 13.09167 C 10.74 g/m*3 13.09 C 0.4 km/h
2871 04-10-2013 21:00:00 12.73333 C 10.6 g/m*3 12.73 C 0.13333 km/h
2872 04-10-2013 22:00:00 12.46667 C 10.46 g/m*3 12.47 C 0 km/h
2873 04-10-2013 23:00:00 12.36667 C 10.42 g/m*3 12.37 C 0 km/h
2874 05-10-2013 00:00:00 12.21667 C 10.37 g/m*3 12.22 C 0 km/h
2875 05-10-2013 01:00:00 12.25833 C 10.4 g/m*3 12.26 C 0 km/h
Sensor: Nr:Datum:Temp:Abs-Feuchte:Windchill:Wind:
Aussen-T/F 2876 05-10-2013 02:00:00 12.28333 C 10.5 g/m*3 12.28 C 0 km/h
2877 05-10-2013 03:00:00 12.1 C 10.4 g/m*3 12.1 C 0.13333 km/h
2878 05-10-2013 04:00:00 11.64167 C 10.11 g/m*3 11.64 C 0.4 km/h
2879 05-10-2013 05:00:00 11.58333 C 10.07 g/m*3 11.58 C 0.13333 km/h
2880 05-10-2013 06:00:00 11.55 C 10.05 g/m*3 11.55 C 0 km/h
2881 05-10-2013 07:00:00 11.53333 C 10.12 g/m*3 11.53 C 0.4 km/h
2882 05-10-2013 08:00:00 11.50833 C 10.07 g/m*3 11.51 C 0 km/h
2883 05-10-2013 09:00:00 11.60833 C 10.18 g/m*3 11.61 C 0.13333 km/h
2884 05-10-2013 10:00:00 11.71667 C 10.25 g/m*3 11.72 C 0.13333 km/h
2885 05-10-2013 11:00:00 11.75833 C 10.29 g/m*3 11.76 C 0.4 km/h
2886 05-10-2013 12:00:00 11.99167 C 10.44 g/m*3 11.99 C 0 km/h
2887 05-10-2013 13:00:00 12.30833 C 10.64 g/m*3 12.31 C 0 km/h
2888 05-10-2013 14:00:00 12.43333 C 10.67 g/m*3 12.43 C 0.13333 km/h
2889 05-10-2013 15:00:00 12.86667 C 11.02 g/m*3 12.87 C 0.13333 km/h
2890 05-10-2013 16:00:00 13.60833 C 11.54 g/m*3 13.61 C 0.13333 km/h
2891 05-10-2013 17:00:00 13.8 C 11.68 g/m*3 13.8 C 0.4 km/h
2892 05-10-2013 18:00:00 14 C 11.82 g/m*3 14 C 0.13333 km/h
2893 05-10-2013 19:00:00 14.06667 C 11.87 g/m*3 14.07 C 0.4 km/h
2894 05-10-2013 20:00:00 14.14167 C 11.92 g/m*3 14.14 C 0.26667 km/h
2895 05-10-2013 21:00:00 14.625 C 12.28 g/m*3 14.63 C 3.08333 km/h
2896 05-10-2013 22:00:00 14.46667 C 12.16 g/m*3 14.47 C 0 km/h
2897 05-10-2013 23:00:00 14.63333 C 12.29 g/m*3 14.63 C 1.06667 km/h
2898 06-10-2013 00:00:00 14.74167 C 12.37 g/m*3 14.74 C 5.225 km/h
2899 06-10-2013 01:00:00 14.38333 C 12.1 g/m*3 14.38 C 2.4 km/h
2900 06-10-2013 02:00:00 14.06667 C 11.77 g/m*3 14.07 C 4.29167 km/h
Sensor: Nr:Datum:Temp:Abs-Feuchte:Windchill:Wind:
Aussen-T/F 2901 06-10-2013 03:00:00 13.675 C 11.31 g/m*3 13.68 C 4.425 km/h
2902 06-10-2013 04:00:00 13.11667 C 10.9 g/m*3 13.12 C 1.86667 km/h
2903 06-10-2013 05:00:00 12.75833 C 10.83 g/m*3 12.76 C 0 km/h
2904 06-10-2013 06:00:00 12.45 C 10.63 g/m*3 12.45 C 0.8 km/h
2905 06-10-2013 07:00:00 12.25 C 10.5 g/m*3 12.25 C 0.26667 km/h
2906 06-10-2013 08:00:00 12.025 C 10.37 g/m*3 12.03 C 1.20833 km/h
2907 06-10-2013 09:00:00 12.35833 C 10.54 g/m*3 12.36 C 3.34167 km/h
2908 06-10-2013 10:00:00 13.04167 C 10.61 g/m*3 13.04 C 2.93333 km/h
2909 06-10-2013 11:00:00 13.88333 C 10.73 g/m*3 13.88 C 2.93333 km/h
2910 06-10-2013 12:00:00 14.725 C 10.98 g/m*3 14.73 C 3.06667 km/h
2911 06-10-2013 13:00:00 15.19167 C 11.02 g/m*3 15.19 C 4.13333 km/h
2912 06-10-2013 14:00:00 15.26667 C 10.93 g/m*3 15.27 C 4.95 km/h
2913 06-10-2013 15:00:00 15.375 C 10.77 g/m*3 15.38 C 6.83333 km/h
2914 06-10-2013 16:00:00 15.46667 C 10.59 g/m*3 15.47 C 4.28333 km/h
2915 06-10-2013 17:00:00 14.8 C 10.84 g/m*3 14.8 C 1.2 km/h
2916 06-10-2013 18:00:00 13.38333 C 10.64 g/m*3 13.38 C 0.53333 km/h
2917 06-10-2013 19:00:00 12.84167 C 10.59 g/m*3 12.84 C 0 km/h
2918 06-10-2013 20:00:00 12.79167 C 10.64 g/m*3 12.79 C 0 km/h
2919 06-10-2013 21:00:00 12.7 C 10.68 g/m*3 12.7 C 0 km/h
2920 06-10-2013 22:00:00 12.6 C 10.62 g/m*3 12.6 C 0 km/h
2921 06-10-2013 23:00:00 12.58333 C 10.61 g/m*3 12.58 C 0 km/h
2922 07-10-2013 00:00:00 12.36667 C 10.49 g/m*3 12.37 C 0 km/h
2923 07-10-2013 01:00:00 12.175 C 10.34 g/m*3 12.18 C 0 km/h
2924 07-10-2013 02:00:00 12.2 C 10.39 g/m*3 12.2 C 0 km/h
2925 07-10-2013 03:00:00 12.125 C 10.42 g/m*3 12.13 C 0 km/h
Sensor: Nr:Datum:Temp:Abs-Feuchte:Windchill:Wind:
Aussen-T/F 2926 07-10-2013 04:00:00 12.05 C 10.37 g/m*3 12.05 C 0 km/h
2927 07-10-2013 05:00:00 11.9 C 10.27 g/m*3 11.9 C 0 km/h
2928 07-10-2013 06:00:00 11.9 C 10.27 g/m*3 11.9 C 0 km/h
2929 07-10-2013 07:00:00 11.80833 C 10.21 g/m*3 11.81 C 0 km/h
2930 07-10-2013 08:00:00 11.85 C 10.24 g/m*3 11.85 C 0 km/h
2931 07-10-2013 09:00:00 12.24167 C 10.42 g/m*3 12.24 C 0.66667 km/h
2932 07-10-2013 10:00:00 13.06667 C 10.51 g/m*3 13.07 C 1.6 km/h
2933 07-10-2013 11:00:00 13.79167 C 10.85 g/m*3 13.79 C 0.26667 km/h
2934 07-10-2013 12:00:00 14.65 C 11.38 g/m*3 14.65 C 2.13333 km/h
2935 07-10-2013 13:00:00 16.3 C 11.69 g/m*3 16.3 C 1.46667 km/h
2936 07-10-2013 14:00:00 15.86667 C 11.98 g/m*3 15.87 C 0.26667 km/h
2937 07-10-2013 15:00:00 14.90833 C 11.88 g/m*3 14.91 C 0 km/h
2938 07-10-2013 16:00:00 14.95833 C 12.01 g/m*3 14.96 C 0 km/h
2939 07-10-2013 17:00:00 15.01667 C 12 g/m*3 15.02 C 0 km/h
2940 07-10-2013 18:00:00 14.075 C 11.45 g/m*3 14.08 C 0 km/h
2941 07-10-2013 19:00:00 13.125 C 11.01 g/m*3 13.13 C 0 km/h
2942 07-10-2013 20:00:00 12.8 C 10.77 g/m*3 12.8 C 0 km/h
2943 07-10-2013 21:00:00 12.61667 C 10.74 g/m*3 12.62 C 0 km/h
2944 07-10-2013 22:00:00 12.675 C 10.78 g/m*3 12.68 C 0 km/h
2945 07-10-2013 23:00:00 12.73333 C 10.82 g/m*3 12.73 C 0 km/h
2946 08-10-2013 00:00:00 12.7 C 10.8 g/m*3 12.7 C 0 km/h
2947 08-10-2013 01:00:00 12.7 C 10.8 g/m*3 12.7 C 0 km/h
2948 08-10-2013 02:00:00 12.675 C 10.78 g/m*3 12.68 C 0 km/h
2949 08-10-2013 03:00:00 12.6 C 10.73 g/m*3 12.6 C 0 km/h
2950 08-10-2013 04:00:00 12.525 C 10.69 g/m*3 12.53 C 0 km/h
Sensor: Nr:Datum:Temp:Abs-Feuchte:Windchill:Wind:
Aussen-T/F 2951 08-10-2013 05:00:00 12.39949 C 10.6 g/m*3 12.4 C 0 km/h
2952 08-10-2013 06:00:00 12.3 C 10.64 g/m*3 12.3 C 0 km/h
2953 08-10-2013 07:00:00 12.3 C 10.64 g/m*3 12.3 C 0 km/h
2954 08-10-2013 08:00:00 12.43333 C 10.73 g/m*3 12.43 C 0 km/h
2955 08-10-2013 09:00:00 12.70833 C 10.91 g/m*3 12.71 C 0 km/h
2956 08-10-2013 10:00:00 13.09167 C 11.13 g/m*3 13.09 C 0 km/h
2957 08-10-2013 11:00:00 13.91667 C 11.37 g/m*3 13.92 C 0 km/h
2958 08-10-2013 12:00:00 14.71667 C 11.55 g/m*3 14.72 C 0 km/h
2959 08-10-2013 13:00:00 15.31667 C 11.83 g/m*3 15.32 C 0 km/h
2960 08-10-2013 14:00:00 15.64167 C 11.97 g/m*3 15.64 C 0 km/h
2961 08-10-2013 15:00:00 15.96667 C 12.17 g/m*3 15.97 C 0 km/h
2962 08-10-2013 16:00:00 15.38333 C 11.95 g/m*3 15.38 C 0 km/h
2963 08-10-2013 17:00:00 14.6 C 11.7 g/m*3 14.6 C 0 km/h
2964 08-10-2013 18:00:00 14.05 C 11.42 g/m*3 14.05 C 0 km/h
2965 08-10-2013 19:00:00 13.68333 C 11.26 g/m*3 13.68 C 0 km/h
2966 08-10-2013 20:00:00 13.40833 C 11.16 g/m*3 13.41 C 0 km/h
2967 08-10-2013 21:00:00 13.25833 C 11.06 g/m*3 13.26 C 0 km/h
2968 08-10-2013 22:00:00 13.20833 C 10.97 g/m*3 13.21 C 0 km/h
2969 08-10-2013 23:00:00 13.2 C 10.97 g/m*3 13.2 C 0 km/h
2970 09-10-2013 00:00:00 13.16667 C 10.96 g/m*3 13.17 C 0 km/h
2971 09-10-2013 01:00:00 12.8 C 10.73 g/m*3 12.8 C 0 km/h
2972 09-10-2013 02:00:00 12.55 C 10.59 g/m*3 12.55 C 0 km/h
2973 09-10-2013 03:00:00 12.64167 C 10.65 g/m*3 12.64 C 0 km/h
2974 09-10-2013 04:00:00 12.6 C 10.63 g/m*3 12.6 C 0 km/h
2975 09-10-2013 05:00:00 12.6 C 10.68 g/m*3 12.6 C 0 km/h
Sensor: Nr:Datum:Temp:Abs-Feuchte:Windchill:Wind:
Aussen-T/F 2976 09-10-2013 06:00:00 12.63333 C 10.65 g/m*3 12.63 C 1.2 km/h
2977 09-10-2013 07:00:00 12.74167 C 10.61 g/m*3 12.74 C 0.53333 km/h
2978 09-10-2013 08:00:00 12.79167 C 10.67 g/m*3 12.79 C 0.13333 km/h
2979 09-10-2013 09:00:00 13.25 C 10.84 g/m*3 13.25 C 1.2 km/h
2980 09-10-2013 10:00:00 14.30833 C 11.11 g/m*3 14.31 C 3.46667 km/h
2981 09-10-2013 11:00:00 14.98333 C 11.17 g/m*3 14.98 C 4.53333 km/h
2982 09-10-2013 12:00:00 16.2 C 11.45 g/m*3 16.2 C 5.225 km/h
2983 09-10-2013 13:00:00 17.575 C 11.52 g/m*3 17.58 C 9.01667 km/h
2984 09-10-2013 14:00:00 17.2 C 11.68 g/m*3 17.2 C 6.725 km/h
2985 09-10-2013 15:00:00 15.525 C 12.07 g/m*3 15.53 C 0 km/h
2986 09-10-2013 16:00:00 15.53333 C 11.57 g/m*3 15.53 C 6.44167 km/h
2987 09-10-2013 17:00:00 15.875 C 11.14 g/m*3 15.88 C 11.95833 km/h
2988 09-10-2013 18:00:00 14.85 C 11.11 g/m*3 14.85 C 4.7 km/h
2989 09-10-2013 19:00:00 14.13333 C 11.22 g/m*3 14.13 C 5.34167 km/h
2990 09-10-2013 20:00:00 12.85 C 10.64 g/m*3 12.85 C 2.54167 km/h
2991 09-10-2013 21:00:00 12.13333 C 10.32 g/m*3 12.13 C 0 km/h
2992 09-10-2013 22:00:00 11.91667 C 10.27 g/m*3 11.92 C 0.66667 km/h
2993 09-10-2013 23:00:00 11.94167 C 10.21 g/m*3 11.94 C 2.26667 km/h
2994 10-10-2013 00:00:00 11.95833 C 10.04 g/m*3 11.96 C 2.94167 km/h
2995 10-10-2013 01:00:00 11.60833 C 9.91 g/m*3 11.61 C 0.53333 km/h
2996 10-10-2013 02:00:00 11.61667 C 9.98 g/m*3 11.62 C 3.21667 km/h
2997 10-10-2013 03:00:00 10.91667 C 9.2 g/m*3 9.43 C 11.95 km/h
2998 10-10-2013 04:00:00 9.64167 C 8.46 g/m*3 9.12 C 5.775 km/h
2999 10-10-2013 05:00:00 8.8 C 8.19 g/m*3 8.8 C 4.825 km/h
3000 10-10-2013 06:00:00 8.23333 C 7.88 g/m*3 8.23 C 1.73333 km/h
Sensor: Nr:Datum:Temp:Abs-Feuchte:Windchill:Wind:
Aussen-T/F 3001 10-10-2013 07:00:00 7.78333 C 7.84 g/m*3 7.78 C 0 km/h
3002 10-10-2013 08:00:00 7.3 C 7.66 g/m*3 7.3 C 0.26667 km/h
3003 10-10-2013 09:00:00 7.25 C 7.64 g/m*3 7.25 C 0 km/h
3004 10-10-2013 10:00:00 7.06667 C 7.55 g/m*3 7.07 C 0.53333 km/h
3005 10-10-2013 11:00:00 7.95833 C 8.03 g/m*3 7.96 C 1.6 km/h
3006 10-10-2013 12:00:00 8.94167 C 8.04 g/m*3 8.4 C 5.5 km/h
3007 10-10-2013 13:00:00 9.86667 C 8 g/m*3 8.79 C 8.31667 km/h
3008 10-10-2013 14:00:00 9.53333 C 8.04 g/m*3 9.53 C 3.75833 km/h
3009 10-10-2013 15:00:00 9 C 8.28 g/m*3 9 C 1.06667 km/h
3010 10-10-2013 16:00:00 8.2 C 7.85 g/m*3 8.2 C 1.33333 km/h
3011 10-10-2013 17:00:00 8.10833 C 7.88 g/m*3 8.11 C 0.53333 km/h
3012 10-10-2013 18:00:00 7.9 C 7.87 g/m*3 7.9 C 0 km/h
3013 10-10-2013 19:00:00 7.5 C 7.72 g/m*3 7.5 C 0.8 km/h
3014 10-10-2013 20:00:00 6.73333 C 7.37 g/m*3 6.73 C 0 km/h
3015 10-10-2013 21:00:00 6.1 C 7.09 g/m*3 6.1 C 0.66667 km/h
3016 10-10-2013 22:00:00 5.59167 C 6.85 g/m*3 5.59 C 0 km/h
3017 10-10-2013 23:00:00 5.49167 C 6.85 g/m*3 5.49 C 0 km/h
3018 11-10-2013 00:00:00 5.80833 C 7.02 g/m*3 5.81 C 0.26667 km/h
3019 11-10-2013 01:00:00 6.04167 C 7.13 g/m*3 6.04 C 1.33333 km/h
3020 11-10-2013 02:00:00 6.24167 C 7.23 g/m*3 6.24 C 0 km/h
3021 11-10-2013 03:00:00 6.05 C 7.14 g/m*3 6.05 C 0.13333 km/h
3022 11-10-2013 04:00:00 5.975 C 7.1 g/m*3 5.98 C 1.33333 km/h
3023 11-10-2013 05:00:00 6.175 C 7.2 g/m*3 6.18 C 0 km/h
3024 11-10-2013 06:00:00 6.26667 C 7.24 g/m*3 6.27 C 0 km/h
3025 11-10-2013 07:00:00 6.40833 C 7.31 g/m*3 6.41 C 0 km/h
Sensor: Nr:Datum:Temp:Abs-Feuchte:Windchill:Wind:
Aussen-T/F 3026 11-10-2013 08:00:00 6.63333 C 7.41 g/m*3 6.63 C 0 km/h
3027 11-10-2013 09:00:00 6.91667 C 7.55 g/m*3 6.92 C 0 km/h
3028 11-10-2013 10:00:00 7.2 C 7.69 g/m*3 7.2 C 0 km/h
3029 11-10-2013 11:00:00 7.45556 C 7.74 g/m*3 7.46 C 0 km/h
3030 11-10-2013 12:00:00 8.025 C 7.95 g/m*3 8.03 C 0.4 km/h
3031 11-10-2013 13:00:00 8.14167 C 7.97 g/m*3 8.14 C 1.73333 km/h
3032 11-10-2013 14:00:00 8.29167 C 7.99 g/m*3 8.29 C 0.13333 km/h
3033 11-10-2013 15:00:00 8.14167 C 7.91 g/m*3 8.14 C 0 km/h
3034 11-10-2013 16:00:00 7.925 C 7.89 g/m*3 7.93 C 0 km/h
3035 11-10-2013 17:00:00 7.74167 C 7.83 g/m*3 7.74 C 0 km/h
3036 11-10-2013 18:00:00 7.63333 C 7.83 g/m*3 7.63 C 0 km/h
3037 11-10-2013 19:00:00 6.89167 C 7.44 g/m*3 6.89 C 0 km/h
3038 11-10-2013 20:00:00 6.55833 C 7.3 g/m*3 6.56 C 0 km/h
3039 11-10-2013 21:00:00 6.59167 C 7.36 g/m*3 6.59 C 0 km/h
3040 11-10-2013 22:00:00 6.1 C 7.1 g/m*3 6.1 C 0 km/h
3041 11-10-2013 23:00:00 5.525 C 6.82 g/m*3 5.53 C 0 km/h
3042 12-10-2013 00:00:00 4.80833 C 6.54 g/m*3 4.81 C 0 km/h
3043 12-10-2013 01:00:00 4.475 C 6.41 g/m*3 4.47 C 0 km/h
3044 12-10-2013 02:00:00 4.25 C 6.34 g/m*3 4.25 C 0 km/h
3045 12-10-2013 03:00:00 4.775 C 6.56 g/m*3 4.78 C 0 km/h
3046 12-10-2013 04:00:00 5.16667 C 6.73 g/m*3 5.17 C 0 km/h
3047 12-10-2013 05:00:00 5.58333 C 6.92 g/m*3 5.58 C 1.33333 km/h
3048 12-10-2013 06:00:00 5.34167 C 6.81 g/m*3 5.34 C 1.475 km/h
3049 12-10-2013 07:00:00 5.375 C 6.83 g/m*3 5.38 C 1.06667 km/h
3050 12-10-2013 08:00:00 5.41667 C 6.85 g/m*3 5.42 C 0.8 km/h
Sensor: Nr:Datum:Temp:Abs-Feuchte:Windchill:Wind:
Aussen-T/F 3051 12-10-2013 09:00:00 5.56667 C 6.85 g/m*3 5.57 C 2.8 km/h
3052 12-10-2013 10:00:00 5.96667 C 6.93 g/m*3 5.97 C 2.94167 km/h
3053 12-10-2013 11:00:00 6.61667 C 6.97 g/m*3 6.62 C 3.34167 km/h
3054 12-10-2013 12:00:00 7.26667 C 7.09 g/m*3 7.27 C 2.93333 km/h
3055 12-10-2013 13:00:00 7.69167 C 7.29 g/m*3 7.69 C 0.53333 km/h
3056 12-10-2013 14:00:00 7.99167 C 7.33 g/m*3 7.99 C 2.66667 km/h
3057 12-10-2013 15:00:00 8.31667 C 7.54 g/m*3 8.32 C 0.8 km/h
3058 12-10-2013 16:00:00 8.25 C 7.78 g/m*3 8.25 C 0 km/h
3059 12-10-2013 17:00:00 8.23333 C 7.76 g/m*3 8.23 C 0.13333 km/h
3060 12-10-2013 18:00:00 8.00833 C 7.84 g/m*3 8.01 C 0 km/h
3061 12-10-2013 19:00:00 7.45 C 7.65 g/m*3 7.45 C 0 km/h
3062 12-10-2013 20:00:00 6.85 C 7.37 g/m*3 6.85 C 0 km/h
3063 12-10-2013 21:00:00 6.44167 C 7.17 g/m*3 6.44 C 0.26667 km/h
3064 12-10-2013 22:00:00 6.18333 C 7.05 g/m*3 6.18 C 0 km/h
3065 12-10-2013 23:00:00 5.46667 C 6.77 g/m*3 5.47 C 0 km/h
3066 13-10-2013 00:00:00 5.125 C 6.65 g/m*3 5.13 C 0 km/h
3067 13-10-2013 01:00:00 4.58333 C 6.41 g/m*3 4.58 C 0 km/h
3068 13-10-2013 02:00:00 4.99167 C 6.64 g/m*3 4.99 C 0.26667 km/h
3069 13-10-2013 03:00:00 6.01667 C 7.11 g/m*3 6.02 C 1.73333 km/h
3070 13-10-2013 04:00:00 6.3 C 7.16 g/m*3 6.3 C 0.53333 km/h
3071 13-10-2013 05:00:00 6.33333 C 7.08 g/m*3 6.33 C 0.26667 km/h
3072 13-10-2013 06:00:00 6.11667 C 6.95 g/m*3 6.12 C 0.4 km/h
3073 13-10-2013 07:00:00 6.21667 C 6.85 g/m*3 6.22 C 1.33333 km/h
3074 13-10-2013 08:00:00 6.70833 C 6.9 g/m*3 6.71 C 2.4 km/h
3075 13-10-2013 09:00:00 7.40833 C 7.25 g/m*3 7.41 C 1.6 km/h
Sensor: Nr:Datum:Temp:Abs-Feuchte:Windchill:Wind:
Aussen-T/F 3076 13-10-2013 10:00:00 8.3 C 7.51 g/m*3 8.3 C 0.66667 km/h
3077 13-10-2013 11:00:00 9.225 C 7.65 g/m*3 9.23 C 3.20833 km/h
3078 13-10-2013 12:00:00 9.775 C 7.6 g/m*3 9.78 C 4.675 km/h
3079 13-10-2013 13:00:00 10.725 C 7.49 g/m*3 9.85 C 8.05833 km/h
3080 13-10-2013 14:00:00 11.11667 C 7.51 g/m*3 11.12 C 8.6 km/h
3081 13-10-2013 15:00:00 10.75 C 7.33 g/m*3 10.26 C 6.30833 km/h
3082 13-10-2013 16:00:00 10.48333 C 7.58 g/m*3 10.48 C 3.06667 km/h
3083 13-10-2013 17:00:00 10.03333 C 8.01 g/m*3 10.03 C 1.33333 km/h
3084 13-10-2013 18:00:00 8.58333 C 7.9 g/m*3 8.58 C 0 km/h
3085 13-10-2013 19:00:00 7.8 C 7.62 g/m*3 7.8 C 0 km/h
3086 13-10-2013 20:00:00 7.41667 C 7.5 g/m*3 7.42 C 0.4 km/h
3087 13-10-2013 21:00:00 7.43333 C 7.5 g/m*3 7.43 C 0.4 km/h
3088 13-10-2013 22:00:00 6.88333 C 7.27 g/m*3 6.88 C 0.53333 km/h
3089 13-10-2013 23:00:00 6.275 C 7.05 g/m*3 6.28 C 0.4 km/h
3090 14-10-2013 00:00:00 6.43333 C 7.17 g/m*3 6.43 C 2.8 km/h
3091 14-10-2013 01:00:00 7.24167 C 7.56 g/m*3 7.24 C 0.93333 km/h
3092 14-10-2013 02:00:00 8.03333 C 7.68 g/m*3 8.03 C 2.4 km/h
3093 14-10-2013 03:00:00 8.49167 C 7.64 g/m*3 8.49 C 2 km/h
3094 14-10-2013 04:00:00 8.03333 C 7.53 g/m*3 8.03 C 1.06667 km/h
3095 14-10-2013 05:00:00 7.1 C 7.34 g/m*3 7.1 C 0.8 km/h
3096 14-10-2013 06:00:00 6.70833 C 7.3 g/m*3 6.71 C 0 km/h
3097 14-10-2013 07:00:00 6.7 C 7.37 g/m*3 6.7 C 0 km/h
3098 14-10-2013 08:00:00 6.6 C 7.31 g/m*3 6.6 C 0 km/h
3099 14-10-2013 09:00:00 6.79167 C 7.41 g/m*3 6.79 C 0.13333 km/h
3100 14-10-2013 10:00:00 7.7 C 7.87 g/m*3 7.7 C 0.4 km/h
Sensor: Nr:Datum:Temp:Abs-Feuchte:Windchill:Wind:
Aussen-T/F 3101 14-10-2013 11:00:00 9.10833 C 8.57 g/m*3 9.11 C 0.4 km/h
3102 14-10-2013 12:00:00 11.15 C 9.2 g/m*3 11.15 C 1.875 km/h
3103 14-10-2013 13:00:00 13.31667 C 9.24 g/m*3 13.32 C 3.875 km/h
3104 14-10-2013 14:00:00 13.75833 C 9.6 g/m*3 13.76 C 2.8 km/h
3105 14-10-2013 15:00:00 14.32727 C 9.83 g/m*3 14.33 C 3.78182 km/h
3106 14-10-2013 16:00:00 13.65 C 9.95 g/m*3 13.65 C 1.28 km/h
3107 14-10-2013 17:00:00 12.80833 C 10.1 g/m*3 12.81 C 2.26667 km/h
3108 14-10-2013 18:00:00 12.475 C 10.01 g/m*3 12.48 C 1.6 km/h
3109 14-10-2013 19:00:00 12.15 C 9.98 g/m*3 12.15 C 1.73333 km/h
3110 14-10-2013 20:00:00 11.98333 C 10.03 g/m*3 11.98 C 1.06667 km/h
3111 14-10-2013 21:00:00 11.775 C 10.13 g/m*3 11.78 C 0.8 km/h
3112 14-10-2013 22:00:00 11.82857 C 10.23 g/m*3 11.83 C 0.68571 km/h
3113 14-10-2013 23:00:00 11.82857 C 10.3 g/m*3 11.83 C 0.68571 km/h
3114 15-10-2013 00:00:00 11.425 C 10.01 g/m*3 11.43 C 0.53333 km/h
3115 15-10-2013 01:00:00 11.30833 C 10 g/m*3 11.31 C 0.66667 km/h
3116 15-10-2013 02:00:00 11.31667 C 9.95 g/m*3 11.32 C 1.06667 km/h
3117 15-10-2013 03:00:00 10.19167 C 9.23 g/m*3 10.19 C 0.26667 km/h
3118 15-10-2013 04:00:00 10.175 C 9.28 g/m*3 10.18 C 0.26667 km/h
3119 15-10-2013 05:00:00 10.08333 C 9.26 g/m*3 10.08 C 0 km/h
3120 15-10-2013 06:00:00 10.00833 C 9.21 g/m*3 10.01 C 1.33333 km/h
3121 15-10-2013 07:00:00 9.83333 C 9.09 g/m*3 9.83 C 0.94167 km/h
3122 15-10-2013 08:00:00 9.60833 C 8.85 g/m*3 9.28 C 5.1 km/h
3123 15-10-2013 09:00:00 9.875 C 8.63 g/m*3 9.21 C 6.45 km/h
3124 15-10-2013 10:00:00 10.31667 C 8.78 g/m*3 9.69 C 6.58333 km/h
3125 15-10-2013 11:00:00 11.23333 C 9.2 g/m*3 11.23 C 2.675 km/h
Sensor: Nr:Datum:Temp:Abs-Feuchte:Windchill:Wind:
Aussen-T/F 3126 15-10-2013 12:00:00 11.525 C 9.04 g/m*3 11.53 C 7.8375 km/h
3127 15-10-2013 13:00:00 11.675 C 9.11 g/m*3 11.68 C 7.24167 km/h
3128 15-10-2013 14:00:00 12.025 C 9.08 g/m*3 12.03 C 11.125 km/h
3129 15-10-2013 15:00:00 10.175 C 8.8 g/m*3 10.18 C 3.34167 km/h
3130 15-10-2013 16:00:00 11.06667 C 9.23 g/m*3 11.07 C 5.64167 km/h
3131 15-10-2013 17:00:00 11.5 C 9.07 g/m*3 11.5 C 5.35833 km/h
3132 15-10-2013 18:00:00 9.99167 C 8.84 g/m*3 9.99 C 1.06667 km/h
3133 15-10-2013 19:00:00 9.575 C 8.77 g/m*3 9.57 C 1.06667 km/h
3134 15-10-2013 20:00:00 9.375 C 8.68 g/m*3 9.38 C 0.4 km/h
3135 15-10-2013 21:00:00 9.45 C 8.73 g/m*3 9.45 C 0.53333 km/h
3136 15-10-2013 22:00:00 9.5 C 8.74 g/m*3 9.5 C 1.2 km/h
3137 15-10-2013 23:00:00 9.51667 C 8.74 g/m*3 9.52 C 1.46667 km/h
3138 16-10-2013 00:00:00 9.25833 C 8.69 g/m*3 9.26 C 0.26667 km/h
3139 16-10-2013 01:00:00 9.2 C 8.66 g/m*3 9.2 C 0 km/h
3140 16-10-2013 02:00:00 9.3 C 8.83 g/m*3 9.3 C 0 km/h
3141 16-10-2013 03:00:00 9.3 C 8.81 g/m*3 9.3 C 1.06667 km/h
3142 16-10-2013 04:00:00 9.20833 C 8.67 g/m*3 9.21 C 1.2 km/h